<?xml version="1.0" encoding="utf-8"?>
<gpx xmlns:xsi="http://www.w3.org/2001/XMLSchema-instance" xmlns:xsd="http://www.w3.org/2001/XMLSchema" version="1.1" creator="Shapelink.com" xmlns="http://www.topografix.com/GPX/1/1" xmlns:gpxtpx="http://www.garmin.com/xmlschemas/TrackPointExtension/v1">
  <metadata>
    <name>Løping 6.01 km, 2014-05-23</name>
    <desc></desc>
    <author><name>Mikael Blom</name></author> 
    <time>2014-05-23T18:07:03Z</time>
  </metadata>
  <trk>
    <name>Løping 6.01 km, 2014-05-23</name>
    <trkseg>
      <trkpt lat="59.9818333" lon="17.7382407">
        <ele>60.2197</ele>
        <time>2014-05-23T18:07:03Z</time>
      </trkpt>
      <trkpt lat="59.9818617" lon="17.7382095">
        <ele>61.181</ele>
        <time>2014-05-23T18:07:04Z</time>
      </trkpt>
      <trkpt lat="59.9818959" lon="17.7381929">
        <ele>62.6229</ele>
        <time>2014-05-23T18:07:05Z</time>
      </trkpt>
      <trkpt lat="59.9819405" lon="17.7381779">
        <ele>65.5071</ele>
        <time>2014-05-23T18:07:06Z</time>
      </trkpt>
      <trkpt lat="59.9819741" lon="17.738156">
        <ele>65.0264</ele>
        <time>2014-05-23T18:07:07Z</time>
      </trkpt>
      <trkpt lat="59.9820097" lon="17.7381269">
        <ele>65.5071</ele>
        <time>2014-05-23T18:07:08Z</time>
      </trkpt>
      <trkpt lat="59.9820424" lon="17.7381014">
        <ele>65.9877</ele>
        <time>2014-05-23T18:07:09Z</time>
      </trkpt>
      <trkpt lat="59.9820679" lon="17.738072">
        <ele>65.5071</ele>
        <time>2014-05-23T18:07:10Z</time>
      </trkpt>
      <trkpt lat="59.9820935" lon="17.7380551">
        <ele>65.9877</ele>
        <time>2014-05-23T18:07:11Z</time>
      </trkpt>
      <trkpt lat="59.9821258" lon="17.7380513">
        <ele>66.949</ele>
        <time>2014-05-23T18:07:12Z</time>
      </trkpt>
      <trkpt lat="59.9821602" lon="17.7380365">
        <ele>67.9103</ele>
        <time>2014-05-23T18:07:13Z</time>
      </trkpt>
      <trkpt lat="59.9821912" lon="17.7380246">
        <ele>68.8716</ele>
        <time>2014-05-23T18:07:14Z</time>
      </trkpt>
      <trkpt lat="59.9822186" lon="17.7380092">
        <ele>68.8716</ele>
        <time>2014-05-23T18:07:15Z</time>
      </trkpt>
      <trkpt lat="59.9822496" lon="17.7379789">
        <ele>70.3135</ele>
        <time>2014-05-23T18:07:16Z</time>
      </trkpt>
      <trkpt lat="59.9822793" lon="17.7379548">
        <ele>71.7555</ele>
        <time>2014-05-23T18:07:17Z</time>
      </trkpt>
      <trkpt lat="59.9823166" lon="17.7379415">
        <ele>73.6782</ele>
        <time>2014-05-23T18:07:18Z</time>
      </trkpt>
      <trkpt lat="59.9823529" lon="17.7379288">
        <ele>75.1202</ele>
        <time>2014-05-23T18:07:19Z</time>
      </trkpt>
      <trkpt lat="59.9823824" lon="17.7379126">
        <ele>75.6008</ele>
        <time>2014-05-23T18:07:20Z</time>
      </trkpt>
      <trkpt lat="59.9824078" lon="17.73789">
        <ele>75.1202</ele>
        <time>2014-05-23T18:07:21Z</time>
      </trkpt>
      <trkpt lat="59.9824377" lon="17.7378801">
        <ele>75.6008</ele>
        <time>2014-05-23T18:07:22Z</time>
      </trkpt>
      <trkpt lat="59.9824685" lon="17.7378724">
        <ele>76.0814</ele>
        <time>2014-05-23T18:07:23Z</time>
      </trkpt>
      <trkpt lat="59.9824936" lon="17.7378731">
        <ele>75.1202</ele>
        <time>2014-05-23T18:07:24Z</time>
      </trkpt>
      <trkpt lat="59.9825243" lon="17.7378809">
        <ele>75.6008</ele>
        <time>2014-05-23T18:07:25Z</time>
      </trkpt>
      <trkpt lat="59.9825532" lon="17.73788">
        <ele>76.0814</ele>
        <time>2014-05-23T18:07:26Z</time>
      </trkpt>
      <trkpt lat="59.9825781" lon="17.7378832">
        <ele>75.6008</ele>
        <time>2014-05-23T18:07:27Z</time>
      </trkpt>
      <trkpt lat="59.9826072" lon="17.7378934">
        <ele>76.0814</ele>
        <time>2014-05-23T18:07:28Z</time>
      </trkpt>
      <trkpt lat="59.9826399" lon="17.7379034">
        <ele>77.5234</ele>
        <time>2014-05-23T18:07:29Z</time>
      </trkpt>
      <trkpt lat="59.9826689" lon="17.7379095">
        <ele>78.004</ele>
        <time>2014-05-23T18:07:30Z</time>
      </trkpt>
      <trkpt lat="59.9826969" lon="17.7379142">
        <ele>78.9655</ele>
        <time>2014-05-23T18:07:31Z</time>
      </trkpt>
      <trkpt lat="59.9827264" lon="17.7379158">
        <ele>78.9655</ele>
        <time>2014-05-23T18:07:32Z</time>
      </trkpt>
      <trkpt lat="59.9827581" lon="17.7379169">
        <ele>79.446</ele>
        <time>2014-05-23T18:07:33Z</time>
      </trkpt>
      <trkpt lat="59.9827956" lon="17.7379179">
        <ele>81.3688</ele>
        <time>2014-05-23T18:07:34Z</time>
      </trkpt>
      <trkpt lat="59.9828285" lon="17.737921">
        <ele>81.8494</ele>
        <time>2014-05-23T18:07:35Z</time>
      </trkpt>
      <trkpt lat="59.9828542" lon="17.7379319">
        <ele>80.8882</ele>
        <time>2014-05-23T18:07:36Z</time>
      </trkpt>
      <trkpt lat="59.9828766" lon="17.7379411">
        <ele>79.9266</ele>
        <time>2014-05-23T18:07:37Z</time>
      </trkpt>
      <trkpt lat="59.9829012" lon="17.7379411">
        <ele>78.9655</ele>
        <time>2014-05-23T18:07:38Z</time>
      </trkpt>
      <trkpt lat="59.9829248" lon="17.7379456">
        <ele>78.4847</ele>
        <time>2014-05-23T18:07:39Z</time>
      </trkpt>
      <trkpt lat="59.982952" lon="17.7379541">
        <ele>78.004</ele>
        <time>2014-05-23T18:07:40Z</time>
      </trkpt>
      <trkpt lat="59.9829792" lon="17.7379684">
        <ele>78.4847</ele>
        <time>2014-05-23T18:07:41Z</time>
      </trkpt>
      <trkpt lat="59.9830113" lon="17.7379726">
        <ele>79.446</ele>
        <time>2014-05-23T18:07:42Z</time>
      </trkpt>
      <trkpt lat="59.9830366" lon="17.737977">
        <ele>78.4847</ele>
        <time>2014-05-23T18:07:43Z</time>
      </trkpt>
      <trkpt lat="59.9830677" lon="17.7379801">
        <ele>78.9655</ele>
        <time>2014-05-23T18:07:44Z</time>
      </trkpt>
      <trkpt lat="59.9830986" lon="17.7379733">
        <ele>79.446</ele>
        <time>2014-05-23T18:07:45Z</time>
      </trkpt>
      <trkpt lat="59.9831243" lon="17.7379707">
        <ele>79.9266</ele>
        <time>2014-05-23T18:07:46Z</time>
      </trkpt>
      <trkpt lat="59.9831474" lon="17.7379744">
        <ele>78.9655</ele>
        <time>2014-05-23T18:07:47Z</time>
      </trkpt>
      <trkpt lat="59.9831778" lon="17.7379666">
        <ele>79.9266</ele>
        <time>2014-05-23T18:07:48Z</time>
      </trkpt>
      <trkpt lat="59.9832084" lon="17.7379568">
        <ele>81.3688</ele>
        <time>2014-05-23T18:07:49Z</time>
      </trkpt>
      <trkpt lat="59.9832452" lon="17.7379529">
        <ele>84.2527</ele>
        <time>2014-05-23T18:07:50Z</time>
      </trkpt>
      <trkpt lat="59.9832739" lon="17.7379427">
        <ele>85.6946</ele>
        <time>2014-05-23T18:07:51Z</time>
      </trkpt>
      <trkpt lat="59.9833034" lon="17.7379311">
        <ele>85.214</ele>
        <time>2014-05-23T18:07:52Z</time>
      </trkpt>
      <trkpt lat="59.9833318" lon="17.73792">
        <ele>85.214</ele>
        <time>2014-05-23T18:07:53Z</time>
      </trkpt>
      <trkpt lat="59.9833567" lon="17.7379122">
        <ele>85.214</ele>
        <time>2014-05-23T18:07:54Z</time>
      </trkpt>
      <trkpt lat="59.983384" lon="17.7379123">
        <ele>85.6946</ele>
        <time>2014-05-23T18:07:55Z</time>
      </trkpt>
      <trkpt lat="59.9834169" lon="17.7379107">
        <ele>86.656</ele>
        <time>2014-05-23T18:07:56Z</time>
      </trkpt>
      <trkpt lat="59.9834548" lon="17.7379049">
        <ele>87.6172</ele>
        <time>2014-05-23T18:07:57Z</time>
      </trkpt>
      <trkpt lat="59.9834873" lon="17.7378998">
        <ele>88.098</ele>
        <time>2014-05-23T18:07:58Z</time>
      </trkpt>
      <trkpt lat="59.9835179" lon="17.7378956">
        <ele>87.1366</ele>
        <time>2014-05-23T18:07:59Z</time>
      </trkpt>
      <trkpt lat="59.9835433" lon="17.7378931">
        <ele>86.1753</ele>
        <time>2014-05-23T18:08:00Z</time>
      </trkpt>
      <trkpt lat="59.9835598" lon="17.7378957">
        <ele>83.772</ele>
        <time>2014-05-23T18:08:01Z</time>
      </trkpt>
      <trkpt lat="59.9835788" lon="17.7378898">
        <ele>82.8108</ele>
        <time>2014-05-23T18:08:02Z</time>
      </trkpt>
      <trkpt lat="59.9836042" lon="17.7378868">
        <ele>83.2914</ele>
        <time>2014-05-23T18:08:03Z</time>
      </trkpt>
      <trkpt lat="59.9836267" lon="17.7378819">
        <ele>82.8108</ele>
        <time>2014-05-23T18:08:04Z</time>
      </trkpt>
      <trkpt lat="59.983654" lon="17.737877">
        <ele>82.3301</ele>
        <time>2014-05-23T18:08:05Z</time>
      </trkpt>
      <trkpt lat="59.9836816" lon="17.7378747">
        <ele>81.3688</ele>
        <time>2014-05-23T18:08:06Z</time>
      </trkpt>
      <trkpt lat="59.9837052" lon="17.7378742">
        <ele>79.446</ele>
        <time>2014-05-23T18:08:07Z</time>
      </trkpt>
      <trkpt lat="59.9837298" lon="17.7378754">
        <ele>77.0428</ele>
        <time>2014-05-23T18:08:08Z</time>
      </trkpt>
      <trkpt lat="59.9837565" lon="17.7378705">
        <ele>75.1202</ele>
        <time>2014-05-23T18:08:09Z</time>
      </trkpt>
      <trkpt lat="59.9837888" lon="17.7378588">
        <ele>73.6782</ele>
        <time>2014-05-23T18:08:10Z</time>
      </trkpt>
      <trkpt lat="59.9838235" lon="17.7378522">
        <ele>72.7169</ele>
        <time>2014-05-23T18:08:11Z</time>
      </trkpt>
      <trkpt lat="59.9838559" lon="17.7378558">
        <ele>71.7555</ele>
        <time>2014-05-23T18:08:12Z</time>
      </trkpt>
      <trkpt lat="59.9838847" lon="17.7378657">
        <ele>69.8329</ele>
        <time>2014-05-23T18:08:13Z</time>
      </trkpt>
      <trkpt lat="59.9839219" lon="17.7378727">
        <ele>69.8329</ele>
        <time>2014-05-23T18:08:14Z</time>
      </trkpt>
      <trkpt lat="59.9839557" lon="17.7378742">
        <ele>69.8329</ele>
        <time>2014-05-23T18:08:15Z</time>
      </trkpt>
      <trkpt lat="59.9839859" lon="17.7378701">
        <ele>68.3909</ele>
        <time>2014-05-23T18:08:16Z</time>
      </trkpt>
      <trkpt lat="59.984011" lon="17.737863">
        <ele>68.3909</ele>
        <time>2014-05-23T18:08:17Z</time>
      </trkpt>
      <trkpt lat="59.9840329" lon="17.7378584">
        <ele>68.3909</ele>
        <time>2014-05-23T18:08:18Z</time>
      </trkpt>
      <trkpt lat="59.9840587" lon="17.7378587">
        <ele>68.3909</ele>
        <time>2014-05-23T18:08:19Z</time>
      </trkpt>
      <trkpt lat="59.9840867" lon="17.7378613">
        <ele>68.3909</ele>
        <time>2014-05-23T18:08:20Z</time>
      </trkpt>
      <trkpt lat="59.9841084" lon="17.7378622">
        <ele>68.3909</ele>
        <time>2014-05-23T18:08:21Z</time>
      </trkpt>
      <trkpt lat="59.9841328" lon="17.7378742">
        <ele>68.3909</ele>
        <time>2014-05-23T18:08:22Z</time>
      </trkpt>
      <trkpt lat="59.9841628" lon="17.7378771">
        <ele>69.3523</ele>
        <time>2014-05-23T18:08:23Z</time>
      </trkpt>
      <trkpt lat="59.9841968" lon="17.7378732">
        <ele>70.7942</ele>
        <time>2014-05-23T18:08:24Z</time>
      </trkpt>
      <trkpt lat="59.9842338" lon="17.7378653">
        <ele>73.1976</ele>
        <time>2014-05-23T18:08:25Z</time>
      </trkpt>
      <trkpt lat="59.9842561" lon="17.7378587">
        <ele>72.7169</ele>
        <time>2014-05-23T18:08:26Z</time>
      </trkpt>
      <trkpt lat="59.984284" lon="17.7378511">
        <ele>73.6782</ele>
        <time>2014-05-23T18:08:27Z</time>
      </trkpt>
      <trkpt lat="59.9843181" lon="17.7378488">
        <ele>74.6395</ele>
        <time>2014-05-23T18:08:28Z</time>
      </trkpt>
      <trkpt lat="59.9843561" lon="17.737856">
        <ele>76.5621</ele>
        <time>2014-05-23T18:08:29Z</time>
      </trkpt>
      <trkpt lat="59.9843934" lon="17.7378573">
        <ele>78.004</ele>
        <time>2014-05-23T18:08:30Z</time>
      </trkpt>
      <trkpt lat="59.98443" lon="17.7378522">
        <ele>79.9266</ele>
        <time>2014-05-23T18:08:31Z</time>
      </trkpt>
      <trkpt lat="59.9844529" lon="17.7378516">
        <ele>79.9266</ele>
        <time>2014-05-23T18:08:32Z</time>
      </trkpt>
      <trkpt lat="59.9844828" lon="17.7378505">
        <ele>81.3688</ele>
        <time>2014-05-23T18:08:33Z</time>
      </trkpt>
      <trkpt lat="59.9845176" lon="17.7378592">
        <ele>82.3301</ele>
        <time>2014-05-23T18:08:34Z</time>
      </trkpt>
      <trkpt lat="59.9845482" lon="17.7378749">
        <ele>82.3301</ele>
        <time>2014-05-23T18:08:35Z</time>
      </trkpt>
      <trkpt lat="59.984576" lon="17.7378776">
        <ele>82.8108</ele>
        <time>2014-05-23T18:08:36Z</time>
      </trkpt>
      <trkpt lat="59.984604" lon="17.7378831">
        <ele>82.8108</ele>
        <time>2014-05-23T18:08:37Z</time>
      </trkpt>
      <trkpt lat="59.984628" lon="17.7378851">
        <ele>82.3301</ele>
        <time>2014-05-23T18:08:38Z</time>
      </trkpt>
      <trkpt lat="59.9846601" lon="17.7378869">
        <ele>83.2914</ele>
        <time>2014-05-23T18:08:39Z</time>
      </trkpt>
      <trkpt lat="59.9846977" lon="17.737904">
        <ele>84.7334</ele>
        <time>2014-05-23T18:08:40Z</time>
      </trkpt>
      <trkpt lat="59.9847293" lon="17.7379138">
        <ele>85.214</ele>
        <time>2014-05-23T18:08:41Z</time>
      </trkpt>
      <trkpt lat="59.9847628" lon="17.7379268">
        <ele>86.1753</ele>
        <time>2014-05-23T18:08:42Z</time>
      </trkpt>
      <trkpt lat="59.9847964" lon="17.7379365">
        <ele>87.1366</ele>
        <time>2014-05-23T18:08:43Z</time>
      </trkpt>
      <trkpt lat="59.9848279" lon="17.7379385">
        <ele>88.098</ele>
        <time>2014-05-23T18:08:44Z</time>
      </trkpt>
      <trkpt lat="59.9848606" lon="17.7379422">
        <ele>88.5787</ele>
        <time>2014-05-23T18:08:45Z</time>
      </trkpt>
      <trkpt lat="59.9848917" lon="17.7379537">
        <ele>89.0593</ele>
        <time>2014-05-23T18:08:46Z</time>
      </trkpt>
      <trkpt lat="59.9849199" lon="17.7379551">
        <ele>90.0206</ele>
        <time>2014-05-23T18:08:47Z</time>
      </trkpt>
      <trkpt lat="59.9849441" lon="17.7379501">
        <ele>90.5013</ele>
        <time>2014-05-23T18:08:48Z</time>
      </trkpt>
      <trkpt lat="59.984974" lon="17.7379506">
        <ele>91.9432</ele>
        <time>2014-05-23T18:08:49Z</time>
      </trkpt>
      <trkpt lat="59.9850019" lon="17.7379542">
        <ele>93.3851</ele>
        <time>2014-05-23T18:08:50Z</time>
      </trkpt>
      <trkpt lat="59.9850238" lon="17.7379578">
        <ele>93.3851</ele>
        <time>2014-05-23T18:08:51Z</time>
      </trkpt>
      <trkpt lat="59.9850522" lon="17.7379515">
        <ele>95.3077</ele>
        <time>2014-05-23T18:08:52Z</time>
      </trkpt>
      <trkpt lat="59.985074" lon="17.737949">
        <ele>95.7885</ele>
        <time>2014-05-23T18:08:53Z</time>
      </trkpt>
      <trkpt lat="59.985095" lon="17.7379541">
        <ele>95.3077</ele>
        <time>2014-05-23T18:08:54Z</time>
      </trkpt>
      <trkpt lat="59.985125" lon="17.7379608">
        <ele>96.2693</ele>
        <time>2014-05-23T18:08:55Z</time>
      </trkpt>
      <trkpt lat="59.985147" lon="17.7379603">
        <ele>96.7499</ele>
        <time>2014-05-23T18:08:56Z</time>
      </trkpt>
      <trkpt lat="59.9851702" lon="17.7379603">
        <ele>96.2693</ele>
        <time>2014-05-23T18:08:57Z</time>
      </trkpt>
      <trkpt lat="59.9851864" lon="17.7379659">
        <ele>94.8271</ele>
        <time>2014-05-23T18:08:58Z</time>
      </trkpt>
      <trkpt lat="59.9852091" lon="17.7379672">
        <ele>94.8271</ele>
        <time>2014-05-23T18:08:59Z</time>
      </trkpt>
      <trkpt lat="59.9852268" lon="17.7379727">
        <ele>94.3466</ele>
        <time>2014-05-23T18:09:00Z</time>
      </trkpt>
      <trkpt lat="59.98525" lon="17.7379806">
        <ele>93.8658</ele>
        <time>2014-05-23T18:09:01Z</time>
      </trkpt>
      <trkpt lat="59.9852789" lon="17.7379848">
        <ele>94.3466</ele>
        <time>2014-05-23T18:09:02Z</time>
      </trkpt>
      <trkpt lat="59.9853032" lon="17.7379883">
        <ele>94.3466</ele>
        <time>2014-05-23T18:09:03Z</time>
      </trkpt>
      <trkpt lat="59.9853355" lon="17.7379961">
        <ele>95.3077</ele>
        <time>2014-05-23T18:09:04Z</time>
      </trkpt>
      <trkpt lat="59.9853676" lon="17.7379996">
        <ele>96.2693</ele>
        <time>2014-05-23T18:09:05Z</time>
      </trkpt>
      <trkpt lat="59.9853951" lon="17.7380052">
        <ele>96.7499</ele>
        <time>2014-05-23T18:09:06Z</time>
      </trkpt>
      <trkpt lat="59.9854199" lon="17.7380088">
        <ele>95.7885</ele>
        <time>2014-05-23T18:09:07Z</time>
      </trkpt>
      <trkpt lat="59.9854457" lon="17.7380104">
        <ele>94.8271</ele>
        <time>2014-05-23T18:09:08Z</time>
      </trkpt>
      <trkpt lat="59.9854775" lon="17.7380102">
        <ele>95.3077</ele>
        <time>2014-05-23T18:09:09Z</time>
      </trkpt>
      <trkpt lat="59.9854996" lon="17.7380163">
        <ele>94.3466</ele>
        <time>2014-05-23T18:09:10Z</time>
      </trkpt>
      <trkpt lat="59.9855244" lon="17.7380277">
        <ele>92.9045</ele>
        <time>2014-05-23T18:09:11Z</time>
      </trkpt>
      <trkpt lat="59.9855517" lon="17.7380485">
        <ele>91.9432</ele>
        <time>2014-05-23T18:09:12Z</time>
      </trkpt>
      <trkpt lat="59.9855812" lon="17.738061">
        <ele>91.4625</ele>
        <time>2014-05-23T18:09:13Z</time>
      </trkpt>
      <trkpt lat="59.9856056" lon="17.7380707">
        <ele>90.9819</ele>
        <time>2014-05-23T18:09:14Z</time>
      </trkpt>
      <trkpt lat="59.9856354" lon="17.7380878">
        <ele>90.5013</ele>
        <time>2014-05-23T18:09:15Z</time>
      </trkpt>
      <trkpt lat="59.9856531" lon="17.7381034">
        <ele>88.098</ele>
        <time>2014-05-23T18:09:16Z</time>
      </trkpt>
      <trkpt lat="59.9856767" lon="17.7381218">
        <ele>87.6172</ele>
        <time>2014-05-23T18:09:17Z</time>
      </trkpt>
      <trkpt lat="59.9856993" lon="17.7381373">
        <ele>87.1366</ele>
        <time>2014-05-23T18:09:18Z</time>
      </trkpt>
      <trkpt lat="59.9857241" lon="17.7381665">
        <ele>86.1753</ele>
        <time>2014-05-23T18:09:19Z</time>
      </trkpt>
      <trkpt lat="59.9857489" lon="17.7381809">
        <ele>85.6946</ele>
        <time>2014-05-23T18:09:20Z</time>
      </trkpt>
      <trkpt lat="59.9857764" lon="17.738191">
        <ele>85.6946</ele>
        <time>2014-05-23T18:09:21Z</time>
      </trkpt>
      <trkpt lat="59.9858028" lon="17.7381977">
        <ele>85.6946</ele>
        <time>2014-05-23T18:09:22Z</time>
      </trkpt>
      <trkpt lat="59.9858296" lon="17.7382038">
        <ele>86.1753</ele>
        <time>2014-05-23T18:09:23Z</time>
      </trkpt>
      <trkpt lat="59.9858627" lon="17.7382143">
        <ele>85.6946</ele>
        <time>2014-05-23T18:09:24Z</time>
      </trkpt>
      <trkpt lat="59.9858996" lon="17.7382251">
        <ele>86.656</ele>
        <time>2014-05-23T18:09:25Z</time>
      </trkpt>
      <trkpt lat="59.9859252" lon="17.7382412">
        <ele>85.214</ele>
        <time>2014-05-23T18:09:26Z</time>
      </trkpt>
      <trkpt lat="59.9859573" lon="17.7382598">
        <ele>85.6946</ele>
        <time>2014-05-23T18:09:27Z</time>
      </trkpt>
      <trkpt lat="59.9859914" lon="17.7382862">
        <ele>86.1753</ele>
        <time>2014-05-23T18:09:28Z</time>
      </trkpt>
      <trkpt lat="59.9860186" lon="17.7383143">
        <ele>85.6946</ele>
        <time>2014-05-23T18:09:29Z</time>
      </trkpt>
      <trkpt lat="59.9860422" lon="17.7383328">
        <ele>84.7334</ele>
        <time>2014-05-23T18:09:30Z</time>
      </trkpt>
      <trkpt lat="59.9860616" lon="17.7383541">
        <ele>82.8108</ele>
        <time>2014-05-23T18:09:31Z</time>
      </trkpt>
      <trkpt lat="59.9860903" lon="17.7383668">
        <ele>83.772</ele>
        <time>2014-05-23T18:09:32Z</time>
      </trkpt>
      <trkpt lat="59.9861202" lon="17.7383769">
        <ele>84.2527</ele>
        <time>2014-05-23T18:09:33Z</time>
      </trkpt>
      <trkpt lat="59.9861435" lon="17.7383886">
        <ele>83.772</ele>
        <time>2014-05-23T18:09:34Z</time>
      </trkpt>
      <trkpt lat="59.986164" lon="17.7383965">
        <ele>83.2914</ele>
        <time>2014-05-23T18:09:35Z</time>
      </trkpt>
      <trkpt lat="59.986189" lon="17.7384072">
        <ele>82.8108</ele>
        <time>2014-05-23T18:09:36Z</time>
      </trkpt>
      <trkpt lat="59.9862078" lon="17.7384223">
        <ele>80.8882</ele>
        <time>2014-05-23T18:09:37Z</time>
      </trkpt>
      <trkpt lat="59.9862274" lon="17.7384503">
        <ele>78.9655</ele>
        <time>2014-05-23T18:09:38Z</time>
      </trkpt>
      <trkpt lat="59.9862497" lon="17.7384706">
        <ele>78.004</ele>
        <time>2014-05-23T18:09:39Z</time>
      </trkpt>
      <trkpt lat="59.9862637" lon="17.7384794">
        <ele>76.0814</ele>
        <time>2014-05-23T18:09:40Z</time>
      </trkpt>
      <trkpt lat="59.9862798" lon="17.7384887">
        <ele>75.1202</ele>
        <time>2014-05-23T18:09:41Z</time>
      </trkpt>
      <trkpt lat="59.9863006" lon="17.7385006">
        <ele>74.1588</ele>
        <time>2014-05-23T18:09:42Z</time>
      </trkpt>
      <trkpt lat="59.9863286" lon="17.7385219">
        <ele>74.1588</ele>
        <time>2014-05-23T18:09:43Z</time>
      </trkpt>
      <trkpt lat="59.986358" lon="17.738543">
        <ele>75.1202</ele>
        <time>2014-05-23T18:09:44Z</time>
      </trkpt>
      <trkpt lat="59.9863792" lon="17.7385689">
        <ele>75.1202</ele>
        <time>2014-05-23T18:09:45Z</time>
      </trkpt>
      <trkpt lat="59.9864027" lon="17.7385887">
        <ele>74.6395</ele>
        <time>2014-05-23T18:09:46Z</time>
      </trkpt>
      <trkpt lat="59.9864254" lon="17.7386115">
        <ele>74.1588</ele>
        <time>2014-05-23T18:09:47Z</time>
      </trkpt>
      <trkpt lat="59.9864503" lon="17.7386393">
        <ele>73.1976</ele>
        <time>2014-05-23T18:09:48Z</time>
      </trkpt>
      <trkpt lat="59.9864779" lon="17.7386683">
        <ele>72.7169</ele>
        <time>2014-05-23T18:09:49Z</time>
      </trkpt>
      <trkpt lat="59.986502" lon="17.7386964">
        <ele>72.7169</ele>
        <time>2014-05-23T18:09:50Z</time>
      </trkpt>
      <trkpt lat="59.9865281" lon="17.7387191">
        <ele>73.1976</ele>
        <time>2014-05-23T18:09:51Z</time>
      </trkpt>
      <trkpt lat="59.9865574" lon="17.7387439">
        <ele>74.1588</ele>
        <time>2014-05-23T18:09:52Z</time>
      </trkpt>
      <trkpt lat="59.9865867" lon="17.7387688">
        <ele>75.1202</ele>
        <time>2014-05-23T18:09:53Z</time>
      </trkpt>
      <trkpt lat="59.9866083" lon="17.7387967">
        <ele>74.1588</ele>
        <time>2014-05-23T18:09:54Z</time>
      </trkpt>
      <trkpt lat="59.9866312" lon="17.738829">
        <ele>73.6782</ele>
        <time>2014-05-23T18:09:55Z</time>
      </trkpt>
      <trkpt lat="59.9866582" lon="17.7388563">
        <ele>74.1588</ele>
        <time>2014-05-23T18:09:56Z</time>
      </trkpt>
      <trkpt lat="59.9866874" lon="17.7388791">
        <ele>74.1588</ele>
        <time>2014-05-23T18:09:57Z</time>
      </trkpt>
      <trkpt lat="59.986717" lon="17.7389009">
        <ele>74.1588</ele>
        <time>2014-05-23T18:09:58Z</time>
      </trkpt>
      <trkpt lat="59.9867481" lon="17.7389281">
        <ele>74.1588</ele>
        <time>2014-05-23T18:09:59Z</time>
      </trkpt>
      <trkpt lat="59.986785" lon="17.738955">
        <ele>75.1202</ele>
        <time>2014-05-23T18:10:00Z</time>
      </trkpt>
      <trkpt lat="59.9868143" lon="17.7389819">
        <ele>75.1202</ele>
        <time>2014-05-23T18:10:01Z</time>
      </trkpt>
      <trkpt lat="59.9868303" lon="17.7390068">
        <ele>74.1588</ele>
        <time>2014-05-23T18:10:02Z</time>
      </trkpt>
      <trkpt lat="59.9868549" lon="17.7390315">
        <ele>74.1588</ele>
        <time>2014-05-23T18:10:03Z</time>
      </trkpt>
      <trkpt lat="59.9868745" lon="17.739061">
        <ele>74.1588</ele>
        <time>2014-05-23T18:10:04Z</time>
      </trkpt>
      <trkpt lat="59.9868928" lon="17.7390939">
        <ele>75.1202</ele>
        <time>2014-05-23T18:10:05Z</time>
      </trkpt>
      <trkpt lat="59.9869117" lon="17.7391227">
        <ele>74.6395</ele>
        <time>2014-05-23T18:10:06Z</time>
      </trkpt>
      <trkpt lat="59.9869366" lon="17.7391497">
        <ele>75.1202</ele>
        <time>2014-05-23T18:10:07Z</time>
      </trkpt>
      <trkpt lat="59.9869633" lon="17.7391772">
        <ele>76.0814</ele>
        <time>2014-05-23T18:10:08Z</time>
      </trkpt>
      <trkpt lat="59.9869956" lon="17.7391997">
        <ele>76.5621</ele>
        <time>2014-05-23T18:10:09Z</time>
      </trkpt>
      <trkpt lat="59.9870289" lon="17.7392058">
        <ele>77.5234</ele>
        <time>2014-05-23T18:10:10Z</time>
      </trkpt>
      <trkpt lat="59.9870617" lon="17.7392035">
        <ele>79.446</ele>
        <time>2014-05-23T18:10:11Z</time>
      </trkpt>
      <trkpt lat="59.9870948" lon="17.7391998">
        <ele>81.3688</ele>
        <time>2014-05-23T18:10:12Z</time>
      </trkpt>
      <trkpt lat="59.9871273" lon="17.7391947">
        <ele>83.772</ele>
        <time>2014-05-23T18:10:13Z</time>
      </trkpt>
      <trkpt lat="59.9871583" lon="17.7391947">
        <ele>84.2527</ele>
        <time>2014-05-23T18:10:14Z</time>
      </trkpt>
      <trkpt lat="59.9871917" lon="17.739201">
        <ele>85.6946</ele>
        <time>2014-05-23T18:10:15Z</time>
      </trkpt>
      <trkpt lat="59.9872192" lon="17.7392061">
        <ele>84.7334</ele>
        <time>2014-05-23T18:10:16Z</time>
      </trkpt>
      <trkpt lat="59.9872486" lon="17.7392123">
        <ele>86.1753</ele>
        <time>2014-05-23T18:10:17Z</time>
      </trkpt>
      <trkpt lat="59.9872781" lon="17.7392122">
        <ele>86.656</ele>
        <time>2014-05-23T18:10:18Z</time>
      </trkpt>
      <trkpt lat="59.9873088" lon="17.739217">
        <ele>87.6172</ele>
        <time>2014-05-23T18:10:19Z</time>
      </trkpt>
      <trkpt lat="59.9873351" lon="17.7392093">
        <ele>88.098</ele>
        <time>2014-05-23T18:10:20Z</time>
      </trkpt>
      <trkpt lat="59.9873558" lon="17.7391987">
        <ele>88.5787</ele>
        <time>2014-05-23T18:10:21Z</time>
      </trkpt>
      <trkpt lat="59.9873851" lon="17.7391946">
        <ele>90.5013</ele>
        <time>2014-05-23T18:10:22Z</time>
      </trkpt>
      <trkpt lat="59.9874126" lon="17.7391987">
        <ele>90.0206</ele>
        <time>2014-05-23T18:10:23Z</time>
      </trkpt>
      <trkpt lat="59.9874439" lon="17.7391983">
        <ele>90.9819</ele>
        <time>2014-05-23T18:10:24Z</time>
      </trkpt>
      <trkpt lat="59.9874706" lon="17.7391992">
        <ele>91.4625</ele>
        <time>2014-05-23T18:10:25Z</time>
      </trkpt>
      <trkpt lat="59.9875017" lon="17.7391995">
        <ele>92.424</ele>
        <time>2014-05-23T18:10:26Z</time>
      </trkpt>
      <trkpt lat="59.9875319" lon="17.7391922">
        <ele>92.9045</ele>
        <time>2014-05-23T18:10:27Z</time>
      </trkpt>
      <trkpt lat="59.9875673" lon="17.7391844">
        <ele>92.9045</ele>
        <time>2014-05-23T18:10:28Z</time>
      </trkpt>
      <trkpt lat="59.9875977" lon="17.7391822">
        <ele>92.9045</ele>
        <time>2014-05-23T18:10:29Z</time>
      </trkpt>
      <trkpt lat="59.9876304" lon="17.7391777">
        <ele>93.3851</ele>
        <time>2014-05-23T18:10:30Z</time>
      </trkpt>
      <trkpt lat="59.9876675" lon="17.7391708">
        <ele>95.3077</ele>
        <time>2014-05-23T18:10:31Z</time>
      </trkpt>
      <trkpt lat="59.9877018" lon="17.7391578">
        <ele>96.2693</ele>
        <time>2014-05-23T18:10:32Z</time>
      </trkpt>
      <trkpt lat="59.9877376" lon="17.7391493">
        <ele>97.2305</ele>
        <time>2014-05-23T18:10:33Z</time>
      </trkpt>
      <trkpt lat="59.9877685" lon="17.7391467">
        <ele>97.2305</ele>
        <time>2014-05-23T18:10:34Z</time>
      </trkpt>
      <trkpt lat="59.9878017" lon="17.7391379">
        <ele>98.6725</ele>
        <time>2014-05-23T18:10:35Z</time>
      </trkpt>
      <trkpt lat="59.9878374" lon="17.7391301">
        <ele>100.115</ele>
        <time>2014-05-23T18:10:36Z</time>
      </trkpt>
      <trkpt lat="59.987866" lon="17.7391158">
        <ele>101.076</ele>
        <time>2014-05-23T18:10:37Z</time>
      </trkpt>
      <trkpt lat="59.9878889" lon="17.739103">
        <ele>101.076</ele>
        <time>2014-05-23T18:10:38Z</time>
      </trkpt>
      <trkpt lat="59.9879194" lon="17.7390878">
        <ele>102.998</ele>
        <time>2014-05-23T18:10:39Z</time>
      </trkpt>
      <trkpt lat="59.9879524" lon="17.7390856">
        <ele>104.44</ele>
        <time>2014-05-23T18:10:40Z</time>
      </trkpt>
      <trkpt lat="59.9879795" lon="17.7390705">
        <ele>105.402</ele>
        <time>2014-05-23T18:10:41Z</time>
      </trkpt>
      <trkpt lat="59.988006" lon="17.7390585">
        <ele>106.363</ele>
        <time>2014-05-23T18:10:42Z</time>
      </trkpt>
      <trkpt lat="59.9880235" lon="17.7390574">
        <ele>104.44</ele>
        <time>2014-05-23T18:10:43Z</time>
      </trkpt>
      <trkpt lat="59.9880363" lon="17.7390548">
        <ele>101.556</ele>
        <time>2014-05-23T18:10:44Z</time>
      </trkpt>
      <trkpt lat="59.9880707" lon="17.7390538">
        <ele>102.518</ele>
        <time>2014-05-23T18:10:45Z</time>
      </trkpt>
      <trkpt lat="59.9880966" lon="17.7390517">
        <ele>102.037</ele>
        <time>2014-05-23T18:10:46Z</time>
      </trkpt>
      <trkpt lat="59.988126" lon="17.7390466">
        <ele>103.479</ele>
        <time>2014-05-23T18:10:47Z</time>
      </trkpt>
      <trkpt lat="59.988153" lon="17.739043">
        <ele>103.479</ele>
        <time>2014-05-23T18:10:48Z</time>
      </trkpt>
      <trkpt lat="59.9881866" lon="17.7390409">
        <ele>104.44</ele>
        <time>2014-05-23T18:10:49Z</time>
      </trkpt>
      <trkpt lat="59.9882105" lon="17.7390461">
        <ele>103.479</ele>
        <time>2014-05-23T18:10:50Z</time>
      </trkpt>
      <trkpt lat="59.9882421" lon="17.7390628">
        <ele>103.96</ele>
        <time>2014-05-23T18:10:51Z</time>
      </trkpt>
      <trkpt lat="59.988264" lon="17.7390698">
        <ele>103.96</ele>
        <time>2014-05-23T18:10:52Z</time>
      </trkpt>
      <trkpt lat="59.988296" lon="17.7390673">
        <ele>104.921</ele>
        <time>2014-05-23T18:10:53Z</time>
      </trkpt>
      <trkpt lat="59.9883321" lon="17.7390588">
        <ele>106.844</ele>
        <time>2014-05-23T18:10:54Z</time>
      </trkpt>
      <trkpt lat="59.9883545" lon="17.7390487">
        <ele>106.844</ele>
        <time>2014-05-23T18:10:55Z</time>
      </trkpt>
      <trkpt lat="59.9883821" lon="17.7390388">
        <ele>107.324</ele>
        <time>2014-05-23T18:10:56Z</time>
      </trkpt>
      <trkpt lat="59.988415" lon="17.7390269">
        <ele>108.766</ele>
        <time>2014-05-23T18:10:57Z</time>
      </trkpt>
      <trkpt lat="59.9884453" lon="17.7390201">
        <ele>109.247</ele>
        <time>2014-05-23T18:10:58Z</time>
      </trkpt>
      <trkpt lat="59.9884652" lon="17.7390161">
        <ele>108.766</ele>
        <time>2014-05-23T18:10:59Z</time>
      </trkpt>
      <trkpt lat="59.9884895" lon="17.7390013">
        <ele>107.805</ele>
        <time>2014-05-23T18:11:00Z</time>
      </trkpt>
      <trkpt lat="59.9885105" lon="17.7389851">
        <ele>106.844</ele>
        <time>2014-05-23T18:11:01Z</time>
      </trkpt>
      <trkpt lat="59.9885239" lon="17.7389746">
        <ele>104.921</ele>
        <time>2014-05-23T18:11:02Z</time>
      </trkpt>
      <trkpt lat="59.9885357" lon="17.7389673">
        <ele>102.518</ele>
        <time>2014-05-23T18:11:03Z</time>
      </trkpt>
      <trkpt lat="59.9885587" lon="17.7389618">
        <ele>101.556</ele>
        <time>2014-05-23T18:11:04Z</time>
      </trkpt>
      <trkpt lat="59.9885819" lon="17.7389637">
        <ele>100.595</ele>
        <time>2014-05-23T18:11:05Z</time>
      </trkpt>
      <trkpt lat="59.988596" lon="17.738958">
        <ele>98.6725</ele>
        <time>2014-05-23T18:11:06Z</time>
      </trkpt>
      <trkpt lat="59.9886145" lon="17.7389393">
        <ele>97.2305</ele>
        <time>2014-05-23T18:11:07Z</time>
      </trkpt>
      <trkpt lat="59.9886362" lon="17.7389105">
        <ele>97.2305</ele>
        <time>2014-05-23T18:11:08Z</time>
      </trkpt>
      <trkpt lat="59.9886558" lon="17.7388937">
        <ele>97.2305</ele>
        <time>2014-05-23T18:11:09Z</time>
      </trkpt>
      <trkpt lat="59.9886817" lon="17.7388796">
        <ele>97.2305</ele>
        <time>2014-05-23T18:11:10Z</time>
      </trkpt>
      <trkpt lat="59.9887165" lon="17.7388657">
        <ele>98.6725</ele>
        <time>2014-05-23T18:11:11Z</time>
      </trkpt>
      <trkpt lat="59.9887518" lon="17.7388504">
        <ele>100.115</ele>
        <time>2014-05-23T18:11:12Z</time>
      </trkpt>
      <trkpt lat="59.988786" lon="17.7388377">
        <ele>100.115</ele>
        <time>2014-05-23T18:11:13Z</time>
      </trkpt>
      <trkpt lat="59.9888161" lon="17.7388208">
        <ele>101.076</ele>
        <time>2014-05-23T18:11:14Z</time>
      </trkpt>
      <trkpt lat="59.9888343" lon="17.73881">
        <ele>99.6338</ele>
        <time>2014-05-23T18:11:15Z</time>
      </trkpt>
      <trkpt lat="59.9888549" lon="17.7387834">
        <ele>100.115</ele>
        <time>2014-05-23T18:11:16Z</time>
      </trkpt>
      <trkpt lat="59.9888741" lon="17.7387546">
        <ele>100.115</ele>
        <time>2014-05-23T18:11:17Z</time>
      </trkpt>
      <trkpt lat="59.9888871" lon="17.7387187">
        <ele>99.1531</ele>
        <time>2014-05-23T18:11:18Z</time>
      </trkpt>
      <trkpt lat="59.9889055" lon="17.7386856">
        <ele>99.1531</ele>
        <time>2014-05-23T18:11:19Z</time>
      </trkpt>
      <trkpt lat="59.9889242" lon="17.7386615">
        <ele>98.1919</ele>
        <time>2014-05-23T18:11:20Z</time>
      </trkpt>
      <trkpt lat="59.9889451" lon="17.7386426">
        <ele>97.2305</ele>
        <time>2014-05-23T18:11:21Z</time>
      </trkpt>
      <trkpt lat="59.9889643" lon="17.7386323">
        <ele>95.3077</ele>
        <time>2014-05-23T18:11:22Z</time>
      </trkpt>
      <trkpt lat="59.9889802" lon="17.7386213">
        <ele>93.8658</ele>
        <time>2014-05-23T18:11:23Z</time>
      </trkpt>
      <trkpt lat="59.9889942" lon="17.7386129">
        <ele>91.9432</ele>
        <time>2014-05-23T18:11:24Z</time>
      </trkpt>
      <trkpt lat="59.9890117" lon="17.7386079">
        <ele>89.5399</ele>
        <time>2014-05-23T18:11:25Z</time>
      </trkpt>
      <trkpt lat="59.9890285" lon="17.7386056">
        <ele>87.1366</ele>
        <time>2014-05-23T18:11:26Z</time>
      </trkpt>
      <trkpt lat="59.9890524" lon="17.7385931">
        <ele>86.656</ele>
        <time>2014-05-23T18:11:27Z</time>
      </trkpt>
      <trkpt lat="59.9890744" lon="17.7385757">
        <ele>86.1753</ele>
        <time>2014-05-23T18:11:28Z</time>
      </trkpt>
      <trkpt lat="59.9890927" lon="17.738554">
        <ele>85.214</ele>
        <time>2014-05-23T18:11:29Z</time>
      </trkpt>
      <trkpt lat="59.9891191" lon="17.7385372">
        <ele>85.214</ele>
        <time>2014-05-23T18:11:30Z</time>
      </trkpt>
      <trkpt lat="59.9891402" lon="17.7385123">
        <ele>84.7334</ele>
        <time>2014-05-23T18:11:31Z</time>
      </trkpt>
      <trkpt lat="59.9891598" lon="17.738495">
        <ele>84.7334</ele>
        <time>2014-05-23T18:11:32Z</time>
      </trkpt>
      <trkpt lat="59.9891775" lon="17.7384818">
        <ele>83.2914</ele>
        <time>2014-05-23T18:11:33Z</time>
      </trkpt>
      <trkpt lat="59.989203" lon="17.7384702">
        <ele>83.2914</ele>
        <time>2014-05-23T18:11:34Z</time>
      </trkpt>
      <trkpt lat="59.9892314" lon="17.7384466">
        <ele>83.772</ele>
        <time>2014-05-23T18:11:35Z</time>
      </trkpt>
      <trkpt lat="59.9892663" lon="17.7384293">
        <ele>84.2527</ele>
        <time>2014-05-23T18:11:36Z</time>
      </trkpt>
      <trkpt lat="59.9893056" lon="17.738408">
        <ele>85.6946</ele>
        <time>2014-05-23T18:11:37Z</time>
      </trkpt>
      <trkpt lat="59.9893398" lon="17.7383815">
        <ele>85.6946</ele>
        <time>2014-05-23T18:11:38Z</time>
      </trkpt>
      <trkpt lat="59.989375" lon="17.7383607">
        <ele>86.656</ele>
        <time>2014-05-23T18:11:39Z</time>
      </trkpt>
      <trkpt lat="59.9894048" lon="17.7383308">
        <ele>87.6172</ele>
        <time>2014-05-23T18:11:40Z</time>
      </trkpt>
      <trkpt lat="59.9894351" lon="17.7383038">
        <ele>88.098</ele>
        <time>2014-05-23T18:11:41Z</time>
      </trkpt>
      <trkpt lat="59.9894722" lon="17.7382809">
        <ele>90.0206</ele>
        <time>2014-05-23T18:11:42Z</time>
      </trkpt>
      <trkpt lat="59.9895004" lon="17.7382592">
        <ele>90.9819</ele>
        <time>2014-05-23T18:11:43Z</time>
      </trkpt>
      <trkpt lat="59.9895214" lon="17.7382454">
        <ele>90.0206</ele>
        <time>2014-05-23T18:11:44Z</time>
      </trkpt>
      <trkpt lat="59.9895433" lon="17.7382363">
        <ele>89.5399</ele>
        <time>2014-05-23T18:11:45Z</time>
      </trkpt>
      <trkpt lat="59.9895698" lon="17.7382395">
        <ele>89.5399</ele>
        <time>2014-05-23T18:11:46Z</time>
      </trkpt>
      <trkpt lat="59.9895968" lon="17.7382364">
        <ele>88.5787</ele>
        <time>2014-05-23T18:11:47Z</time>
      </trkpt>
      <trkpt lat="59.9896179" lon="17.7382349">
        <ele>87.1366</ele>
        <time>2014-05-23T18:11:48Z</time>
      </trkpt>
      <trkpt lat="59.9896383" lon="17.7382463">
        <ele>85.6946</ele>
        <time>2014-05-23T18:11:49Z</time>
      </trkpt>
      <trkpt lat="59.989667" lon="17.7382608">
        <ele>85.214</ele>
        <time>2014-05-23T18:11:50Z</time>
      </trkpt>
      <trkpt lat="59.9896926" lon="17.7382748">
        <ele>83.772</ele>
        <time>2014-05-23T18:11:51Z</time>
      </trkpt>
      <trkpt lat="59.9897125" lon="17.7382939">
        <ele>81.3688</ele>
        <time>2014-05-23T18:11:52Z</time>
      </trkpt>
      <trkpt lat="59.9897315" lon="17.7382955">
        <ele>79.446</ele>
        <time>2014-05-23T18:11:53Z</time>
      </trkpt>
      <trkpt lat="59.9897494" lon="17.7382996">
        <ele>77.0428</ele>
        <time>2014-05-23T18:11:54Z</time>
      </trkpt>
      <trkpt lat="59.9897719" lon="17.7383007">
        <ele>76.0814</ele>
        <time>2014-05-23T18:11:55Z</time>
      </trkpt>
      <trkpt lat="59.9897956" lon="17.7382949">
        <ele>74.6395</ele>
        <time>2014-05-23T18:11:56Z</time>
      </trkpt>
      <trkpt lat="59.9898261" lon="17.7382751">
        <ele>74.1588</ele>
        <time>2014-05-23T18:11:57Z</time>
      </trkpt>
      <trkpt lat="59.9898485" lon="17.7382733">
        <ele>72.7169</ele>
        <time>2014-05-23T18:11:58Z</time>
      </trkpt>
      <trkpt lat="59.989875" lon="17.7382664">
        <ele>72.2362</ele>
        <time>2014-05-23T18:11:59Z</time>
      </trkpt>
      <trkpt lat="59.9899023" lon="17.7382616">
        <ele>71.7555</ele>
        <time>2014-05-23T18:12:00Z</time>
      </trkpt>
      <trkpt lat="59.989939" lon="17.7382524">
        <ele>73.1976</ele>
        <time>2014-05-23T18:12:01Z</time>
      </trkpt>
      <trkpt lat="59.9899681" lon="17.7382546">
        <ele>73.1976</ele>
        <time>2014-05-23T18:12:02Z</time>
      </trkpt>
      <trkpt lat="59.9899882" lon="17.738253">
        <ele>71.7555</ele>
        <time>2014-05-23T18:12:03Z</time>
      </trkpt>
      <trkpt lat="59.9900267" lon="17.7382433">
        <ele>72.2362</ele>
        <time>2014-05-23T18:12:04Z</time>
      </trkpt>
      <trkpt lat="59.9900519" lon="17.7382468">
        <ele>70.3135</ele>
        <time>2014-05-23T18:12:05Z</time>
      </trkpt>
      <trkpt lat="59.9900871" lon="17.7382555">
        <ele>70.3135</ele>
        <time>2014-05-23T18:12:06Z</time>
      </trkpt>
      <trkpt lat="59.990122" lon="17.7382458">
        <ele>71.2749</ele>
        <time>2014-05-23T18:12:07Z</time>
      </trkpt>
      <trkpt lat="59.9901509" lon="17.7382271">
        <ele>70.7942</ele>
        <time>2014-05-23T18:12:08Z</time>
      </trkpt>
      <trkpt lat="59.9901862" lon="17.7382114">
        <ele>71.2749</ele>
        <time>2014-05-23T18:12:09Z</time>
      </trkpt>
      <trkpt lat="59.9902106" lon="17.7382006">
        <ele>70.3135</ele>
        <time>2014-05-23T18:12:10Z</time>
      </trkpt>
      <trkpt lat="59.9902432" lon="17.738185">
        <ele>71.2749</ele>
        <time>2014-05-23T18:12:11Z</time>
      </trkpt>
      <trkpt lat="59.9902679" lon="17.7381715">
        <ele>70.3135</ele>
        <time>2014-05-23T18:12:12Z</time>
      </trkpt>
      <trkpt lat="59.9902906" lon="17.7381604">
        <ele>69.8329</ele>
        <time>2014-05-23T18:12:13Z</time>
      </trkpt>
      <trkpt lat="59.9903204" lon="17.7381477">
        <ele>70.3135</ele>
        <time>2014-05-23T18:12:14Z</time>
      </trkpt>
      <trkpt lat="59.9903572" lon="17.7381375">
        <ele>71.2749</ele>
        <time>2014-05-23T18:12:15Z</time>
      </trkpt>
      <trkpt lat="59.9903903" lon="17.738138">
        <ele>71.7555</ele>
        <time>2014-05-23T18:12:16Z</time>
      </trkpt>
      <trkpt lat="59.9904125" lon="17.7381411">
        <ele>70.7942</ele>
        <time>2014-05-23T18:12:17Z</time>
      </trkpt>
      <trkpt lat="59.9904458" lon="17.7381335">
        <ele>72.7169</ele>
        <time>2014-05-23T18:12:18Z</time>
      </trkpt>
      <trkpt lat="59.9904763" lon="17.7381229">
        <ele>73.6782</ele>
        <time>2014-05-23T18:12:19Z</time>
      </trkpt>
      <trkpt lat="59.9905037" lon="17.7381034">
        <ele>74.6395</ele>
        <time>2014-05-23T18:12:20Z</time>
      </trkpt>
      <trkpt lat="59.9905202" lon="17.7380877">
        <ele>73.1976</ele>
        <time>2014-05-23T18:12:21Z</time>
      </trkpt>
      <trkpt lat="59.9905364" lon="17.7380779">
        <ele>71.2749</ele>
        <time>2014-05-23T18:12:22Z</time>
      </trkpt>
      <trkpt lat="59.9905583" lon="17.7380748">
        <ele>70.7942</ele>
        <time>2014-05-23T18:12:23Z</time>
      </trkpt>
      <trkpt lat="59.990583" lon="17.7380546">
        <ele>70.7942</ele>
        <time>2014-05-23T18:12:24Z</time>
      </trkpt>
      <trkpt lat="59.990614" lon="17.7380376">
        <ele>70.7942</ele>
        <time>2014-05-23T18:12:25Z</time>
      </trkpt>
      <trkpt lat="59.9906525" lon="17.7380216">
        <ele>72.2362</ele>
        <time>2014-05-23T18:12:26Z</time>
      </trkpt>
      <trkpt lat="59.990689" lon="17.7379992">
        <ele>73.1976</ele>
        <time>2014-05-23T18:12:27Z</time>
      </trkpt>
      <trkpt lat="59.9907259" lon="17.7379737">
        <ele>73.6782</ele>
        <time>2014-05-23T18:12:28Z</time>
      </trkpt>
      <trkpt lat="59.9907628" lon="17.7379556">
        <ele>75.1202</ele>
        <time>2014-05-23T18:12:29Z</time>
      </trkpt>
      <trkpt lat="59.9907919" lon="17.7379521">
        <ele>74.6395</ele>
        <time>2014-05-23T18:12:30Z</time>
      </trkpt>
      <trkpt lat="59.9908233" lon="17.7379406">
        <ele>74.6395</ele>
        <time>2014-05-23T18:12:31Z</time>
      </trkpt>
      <trkpt lat="59.9908594" lon="17.7379179">
        <ele>76.5621</ele>
        <time>2014-05-23T18:12:32Z</time>
      </trkpt>
      <trkpt lat="59.9908916" lon="17.7378826">
        <ele>78.004</ele>
        <time>2014-05-23T18:12:33Z</time>
      </trkpt>
      <trkpt lat="59.9909182" lon="17.7378574">
        <ele>78.4847</ele>
        <time>2014-05-23T18:12:34Z</time>
      </trkpt>
      <trkpt lat="59.9909424" lon="17.7378411">
        <ele>78.004</ele>
        <time>2014-05-23T18:12:35Z</time>
      </trkpt>
      <trkpt lat="59.9909576" lon="17.7378297">
        <ele>76.0814</ele>
        <time>2014-05-23T18:12:36Z</time>
      </trkpt>
      <trkpt lat="59.9909835" lon="17.7378025">
        <ele>76.5621</ele>
        <time>2014-05-23T18:12:37Z</time>
      </trkpt>
      <trkpt lat="59.991013" lon="17.7377754">
        <ele>77.0428</ele>
        <time>2014-05-23T18:12:38Z</time>
      </trkpt>
      <trkpt lat="59.9910304" lon="17.7377474">
        <ele>76.5621</ele>
        <time>2014-05-23T18:12:39Z</time>
      </trkpt>
      <trkpt lat="59.9910587" lon="17.7377193">
        <ele>77.0428</ele>
        <time>2014-05-23T18:12:40Z</time>
      </trkpt>
      <trkpt lat="59.9910824" lon="17.7377015">
        <ele>77.5234</ele>
        <time>2014-05-23T18:12:41Z</time>
      </trkpt>
      <trkpt lat="59.9911087" lon="17.7376835">
        <ele>77.5234</ele>
        <time>2014-05-23T18:12:42Z</time>
      </trkpt>
      <trkpt lat="59.9911273" lon="17.7376635">
        <ele>76.5621</ele>
        <time>2014-05-23T18:12:43Z</time>
      </trkpt>
      <trkpt lat="59.9911566" lon="17.7376395">
        <ele>77.5234</ele>
        <time>2014-05-23T18:12:44Z</time>
      </trkpt>
      <trkpt lat="59.9911804" lon="17.7376243">
        <ele>77.0428</ele>
        <time>2014-05-23T18:12:45Z</time>
      </trkpt>
      <trkpt lat="59.9912063" lon="17.7376151">
        <ele>76.5621</ele>
        <time>2014-05-23T18:12:46Z</time>
      </trkpt>
      <trkpt lat="59.9912286" lon="17.7376216">
        <ele>75.6008</ele>
        <time>2014-05-23T18:12:47Z</time>
      </trkpt>
      <trkpt lat="59.9912584" lon="17.7376148">
        <ele>75.6008</ele>
        <time>2014-05-23T18:12:48Z</time>
      </trkpt>
      <trkpt lat="59.9912948" lon="17.7376049">
        <ele>77.5234</ele>
        <time>2014-05-23T18:12:49Z</time>
      </trkpt>
      <trkpt lat="59.9913289" lon="17.737595">
        <ele>78.4847</ele>
        <time>2014-05-23T18:12:50Z</time>
      </trkpt>
      <trkpt lat="59.991366" lon="17.7375791">
        <ele>79.9266</ele>
        <time>2014-05-23T18:12:51Z</time>
      </trkpt>
      <trkpt lat="59.9913968" lon="17.737569">
        <ele>80.4075</ele>
        <time>2014-05-23T18:12:52Z</time>
      </trkpt>
      <trkpt lat="59.9914218" lon="17.7375625">
        <ele>79.9266</ele>
        <time>2014-05-23T18:12:53Z</time>
      </trkpt>
      <trkpt lat="59.9914569" lon="17.7375656">
        <ele>80.8882</ele>
        <time>2014-05-23T18:12:54Z</time>
      </trkpt>
      <trkpt lat="59.9914777" lon="17.7375773">
        <ele>79.9266</ele>
        <time>2014-05-23T18:12:55Z</time>
      </trkpt>
      <trkpt lat="59.9915103" lon="17.7375737">
        <ele>81.3688</ele>
        <time>2014-05-23T18:12:56Z</time>
      </trkpt>
      <trkpt lat="59.9915417" lon="17.7375742">
        <ele>82.3301</ele>
        <time>2014-05-23T18:12:57Z</time>
      </trkpt>
      <trkpt lat="59.9915647" lon="17.7375713">
        <ele>82.3301</ele>
        <time>2014-05-23T18:12:58Z</time>
      </trkpt>
      <trkpt lat="59.9915837" lon="17.7375693">
        <ele>81.8494</ele>
        <time>2014-05-23T18:12:59Z</time>
      </trkpt>
      <trkpt lat="59.991602" lon="17.7375822">
        <ele>80.4075</ele>
        <time>2014-05-23T18:13:00Z</time>
      </trkpt>
      <trkpt lat="59.9916392" lon="17.7375906">
        <ele>82.3301</ele>
        <time>2014-05-23T18:13:01Z</time>
      </trkpt>
      <trkpt lat="59.9916745" lon="17.7375894">
        <ele>84.2527</ele>
        <time>2014-05-23T18:13:02Z</time>
      </trkpt>
      <trkpt lat="59.9917048" lon="17.7375972">
        <ele>84.2527</ele>
        <time>2014-05-23T18:13:03Z</time>
      </trkpt>
      <trkpt lat="59.9917294" lon="17.7375972">
        <ele>83.2914</ele>
        <time>2014-05-23T18:13:04Z</time>
      </trkpt>
      <trkpt lat="59.9917661" lon="17.7375884">
        <ele>83.772</ele>
        <time>2014-05-23T18:13:05Z</time>
      </trkpt>
      <trkpt lat="59.9918063" lon="17.7375744">
        <ele>85.6946</ele>
        <time>2014-05-23T18:13:06Z</time>
      </trkpt>
      <trkpt lat="59.9918232" lon="17.7375769">
        <ele>83.772</ele>
        <time>2014-05-23T18:13:07Z</time>
      </trkpt>
      <trkpt lat="59.991851" lon="17.7375748">
        <ele>83.772</ele>
        <time>2014-05-23T18:13:08Z</time>
      </trkpt>
      <trkpt lat="59.991884" lon="17.7375713">
        <ele>84.2527</ele>
        <time>2014-05-23T18:13:09Z</time>
      </trkpt>
      <trkpt lat="59.9919075" lon="17.7375572">
        <ele>83.2914</ele>
        <time>2014-05-23T18:13:10Z</time>
      </trkpt>
      <trkpt lat="59.991931" lon="17.7375522">
        <ele>82.3301</ele>
        <time>2014-05-23T18:13:11Z</time>
      </trkpt>
      <trkpt lat="59.9919578" lon="17.7375597">
        <ele>81.8494</ele>
        <time>2014-05-23T18:13:12Z</time>
      </trkpt>
      <trkpt lat="59.9919785" lon="17.7375687">
        <ele>80.4075</ele>
        <time>2014-05-23T18:13:13Z</time>
      </trkpt>
      <trkpt lat="59.9920044" lon="17.7375704">
        <ele>79.9266</ele>
        <time>2014-05-23T18:13:14Z</time>
      </trkpt>
      <trkpt lat="59.992031" lon="17.7375641">
        <ele>79.446</ele>
        <time>2014-05-23T18:13:15Z</time>
      </trkpt>
      <trkpt lat="59.9920568" lon="17.7375579">
        <ele>79.446</ele>
        <time>2014-05-23T18:13:16Z</time>
      </trkpt>
      <trkpt lat="59.9920819" lon="17.7375514">
        <ele>78.4847</ele>
        <time>2014-05-23T18:13:17Z</time>
      </trkpt>
      <trkpt lat="59.9921183" lon="17.7375385">
        <ele>79.446</ele>
        <time>2014-05-23T18:13:18Z</time>
      </trkpt>
      <trkpt lat="59.99215" lon="17.7375257">
        <ele>80.4075</ele>
        <time>2014-05-23T18:13:19Z</time>
      </trkpt>
      <trkpt lat="59.9921764" lon="17.7375123">
        <ele>80.4075</ele>
        <time>2014-05-23T18:13:20Z</time>
      </trkpt>
      <trkpt lat="59.9922016" lon="17.7374951">
        <ele>81.8494</ele>
        <time>2014-05-23T18:13:21Z</time>
      </trkpt>
      <trkpt lat="59.9922268" lon="17.7374822">
        <ele>81.3688</ele>
        <time>2014-05-23T18:13:22Z</time>
      </trkpt>
      <trkpt lat="59.9922572" lon="17.7374852">
        <ele>80.8882</ele>
        <time>2014-05-23T18:13:23Z</time>
      </trkpt>
      <trkpt lat="59.9922923" lon="17.7374713">
        <ele>82.3301</ele>
        <time>2014-05-23T18:13:24Z</time>
      </trkpt>
      <trkpt lat="59.9923278" lon="17.7374642">
        <ele>83.2914</ele>
        <time>2014-05-23T18:13:25Z</time>
      </trkpt>
      <trkpt lat="59.9923355" lon="17.7374532">
        <ele>80.4075</ele>
        <time>2014-05-23T18:13:26Z</time>
      </trkpt>
      <trkpt lat="59.9923541" lon="17.7374372">
        <ele>79.446</ele>
        <time>2014-05-23T18:13:27Z</time>
      </trkpt>
      <trkpt lat="59.9923836" lon="17.7374118">
        <ele>79.9266</ele>
        <time>2014-05-23T18:13:28Z</time>
      </trkpt>
      <trkpt lat="59.9924142" lon="17.7373898">
        <ele>81.3688</ele>
        <time>2014-05-23T18:13:29Z</time>
      </trkpt>
      <trkpt lat="59.9924525" lon="17.7373693">
        <ele>83.772</ele>
        <time>2014-05-23T18:13:30Z</time>
      </trkpt>
      <trkpt lat="59.9924751" lon="17.7373455">
        <ele>83.772</ele>
        <time>2014-05-23T18:13:31Z</time>
      </trkpt>
      <trkpt lat="59.9924977" lon="17.7373087">
        <ele>83.2914</ele>
        <time>2014-05-23T18:13:32Z</time>
      </trkpt>
      <trkpt lat="59.9925188" lon="17.7372729">
        <ele>82.3301</ele>
        <time>2014-05-23T18:13:33Z</time>
      </trkpt>
      <trkpt lat="59.9925272" lon="17.7372582">
        <ele>79.446</ele>
        <time>2014-05-23T18:13:34Z</time>
      </trkpt>
      <trkpt lat="59.9925384" lon="17.7372399">
        <ele>77.5234</ele>
        <time>2014-05-23T18:13:35Z</time>
      </trkpt>
      <trkpt lat="59.9925526" lon="17.7372129">
        <ele>76.0814</ele>
        <time>2014-05-23T18:13:36Z</time>
      </trkpt>
      <trkpt lat="59.9925704" lon="17.7371906">
        <ele>74.6395</ele>
        <time>2014-05-23T18:13:37Z</time>
      </trkpt>
      <trkpt lat="59.9925856" lon="17.7371699">
        <ele>73.1976</ele>
        <time>2014-05-23T18:13:38Z</time>
      </trkpt>
      <trkpt lat="59.992613" lon="17.7371386">
        <ele>73.1976</ele>
        <time>2014-05-23T18:13:39Z</time>
      </trkpt>
      <trkpt lat="59.9926349" lon="17.7371147">
        <ele>71.7555</ele>
        <time>2014-05-23T18:13:40Z</time>
      </trkpt>
      <trkpt lat="59.9926556" lon="17.7370999">
        <ele>70.7942</ele>
        <time>2014-05-23T18:13:41Z</time>
      </trkpt>
      <trkpt lat="59.99268" lon="17.7370803">
        <ele>69.8329</ele>
        <time>2014-05-23T18:13:42Z</time>
      </trkpt>
      <trkpt lat="59.9927004" lon="17.7370491">
        <ele>69.8329</ele>
        <time>2014-05-23T18:13:43Z</time>
      </trkpt>
      <trkpt lat="59.9927224" lon="17.7370122">
        <ele>70.3135</ele>
        <time>2014-05-23T18:13:44Z</time>
      </trkpt>
      <trkpt lat="59.9927437" lon="17.7369824">
        <ele>70.7942</ele>
        <time>2014-05-23T18:13:45Z</time>
      </trkpt>
      <trkpt lat="59.9927498" lon="17.7369398">
        <ele>68.8716</ele>
        <time>2014-05-23T18:13:46Z</time>
      </trkpt>
      <trkpt lat="59.9927702" lon="17.736901">
        <ele>68.8716</ele>
        <time>2014-05-23T18:13:47Z</time>
      </trkpt>
      <trkpt lat="59.9927934" lon="17.7368637">
        <ele>68.8716</ele>
        <time>2014-05-23T18:13:48Z</time>
      </trkpt>
      <trkpt lat="59.9928004" lon="17.7368321">
        <ele>66.4683</ele>
        <time>2014-05-23T18:13:49Z</time>
      </trkpt>
      <trkpt lat="59.9928189" lon="17.7368041">
        <ele>65.9877</ele>
        <time>2014-05-23T18:13:50Z</time>
      </trkpt>
      <trkpt lat="59.9928441" lon="17.7367682">
        <ele>66.4683</ele>
        <time>2014-05-23T18:13:51Z</time>
      </trkpt>
      <trkpt lat="59.9928617" lon="17.7367209">
        <ele>65.9877</ele>
        <time>2014-05-23T18:13:52Z</time>
      </trkpt>
      <trkpt lat="59.9928836" lon="17.7366777">
        <ele>65.5071</ele>
        <time>2014-05-23T18:13:53Z</time>
      </trkpt>
      <trkpt lat="59.9929005" lon="17.7366291">
        <ele>64.0651</ele>
        <time>2014-05-23T18:13:54Z</time>
      </trkpt>
      <trkpt lat="59.9929181" lon="17.7365971">
        <ele>63.5844</ele>
        <time>2014-05-23T18:13:55Z</time>
      </trkpt>
      <trkpt lat="59.9929221" lon="17.7365565">
        <ele>62.1423</ele>
        <time>2014-05-23T18:13:56Z</time>
      </trkpt>
      <trkpt lat="59.992928" lon="17.7365196">
        <ele>60.2197</ele>
        <time>2014-05-23T18:13:57Z</time>
      </trkpt>
      <trkpt lat="59.9929357" lon="17.7364781">
        <ele>57.8165</ele>
        <time>2014-05-23T18:13:58Z</time>
      </trkpt>
      <trkpt lat="59.9929493" lon="17.7364421">
        <ele>56.8551</ele>
        <time>2014-05-23T18:13:59Z</time>
      </trkpt>
      <trkpt lat="59.9929607" lon="17.7363999">
        <ele>54.9324</ele>
        <time>2014-05-23T18:14:00Z</time>
      </trkpt>
      <trkpt lat="59.9929791" lon="17.7363588">
        <ele>54.9324</ele>
        <time>2014-05-23T18:14:01Z</time>
      </trkpt>
      <trkpt lat="59.9929915" lon="17.7363127">
        <ele>53.9712</ele>
        <time>2014-05-23T18:14:02Z</time>
      </trkpt>
      <trkpt lat="59.9930046" lon="17.7362692">
        <ele>52.5292</ele>
        <time>2014-05-23T18:14:03Z</time>
      </trkpt>
      <trkpt lat="59.9930231" lon="17.7362281">
        <ele>52.5292</ele>
        <time>2014-05-23T18:14:04Z</time>
      </trkpt>
      <trkpt lat="59.9930351" lon="17.7361856">
        <ele>51.0872</ele>
        <time>2014-05-23T18:14:05Z</time>
      </trkpt>
      <trkpt lat="59.993055" lon="17.7361525">
        <ele>51.0872</ele>
        <time>2014-05-23T18:14:06Z</time>
      </trkpt>
      <trkpt lat="59.9930719" lon="17.7361209">
        <ele>50.6066</ele>
        <time>2014-05-23T18:14:07Z</time>
      </trkpt>
      <trkpt lat="59.9930886" lon="17.7360756">
        <ele>50.126</ele>
        <time>2014-05-23T18:14:08Z</time>
      </trkpt>
      <trkpt lat="59.9931109" lon="17.7360287">
        <ele>49.6453</ele>
        <time>2014-05-23T18:14:09Z</time>
      </trkpt>
      <trkpt lat="59.9931337" lon="17.7359925">
        <ele>50.126</ele>
        <time>2014-05-23T18:14:10Z</time>
      </trkpt>
      <trkpt lat="59.9931517" lon="17.7359551">
        <ele>49.6453</ele>
        <time>2014-05-23T18:14:11Z</time>
      </trkpt>
      <trkpt lat="59.9931772" lon="17.7359197">
        <ele>50.126</ele>
        <time>2014-05-23T18:14:12Z</time>
      </trkpt>
      <trkpt lat="59.993203" lon="17.7358717">
        <ele>50.6066</ele>
        <time>2014-05-23T18:14:13Z</time>
      </trkpt>
      <trkpt lat="59.9932236" lon="17.7358277">
        <ele>50.126</ele>
        <time>2014-05-23T18:14:14Z</time>
      </trkpt>
      <trkpt lat="59.9932523" lon="17.7357881">
        <ele>51.5679</ele>
        <time>2014-05-23T18:14:15Z</time>
      </trkpt>
      <trkpt lat="59.9932751" lon="17.735749">
        <ele>51.5679</ele>
        <time>2014-05-23T18:14:16Z</time>
      </trkpt>
      <trkpt lat="59.9932988" lon="17.7357153">
        <ele>52.5292</ele>
        <time>2014-05-23T18:14:17Z</time>
      </trkpt>
      <trkpt lat="59.9933275" lon="17.7356835">
        <ele>53.9712</ele>
        <time>2014-05-23T18:14:18Z</time>
      </trkpt>
      <trkpt lat="59.993362" lon="17.7356438">
        <ele>55.8938</ele>
        <time>2014-05-23T18:14:19Z</time>
      </trkpt>
      <trkpt lat="59.9933958" lon="17.7356108">
        <ele>57.3358</ele>
        <time>2014-05-23T18:14:20Z</time>
      </trkpt>
      <trkpt lat="59.9934317" lon="17.73558">
        <ele>58.7777</ele>
        <time>2014-05-23T18:14:21Z</time>
      </trkpt>
      <trkpt lat="59.9934698" lon="17.7355493">
        <ele>61.181</ele>
        <time>2014-05-23T18:14:22Z</time>
      </trkpt>
      <trkpt lat="59.9935025" lon="17.7355216">
        <ele>62.6229</ele>
        <time>2014-05-23T18:14:23Z</time>
      </trkpt>
      <trkpt lat="59.9935352" lon="17.7355177">
        <ele>64.5457</ele>
        <time>2014-05-23T18:14:24Z</time>
      </trkpt>
      <trkpt lat="59.9935636" lon="17.7355081">
        <ele>65.5071</ele>
        <time>2014-05-23T18:14:25Z</time>
      </trkpt>
      <trkpt lat="59.9935901" lon="17.7354892">
        <ele>66.949</ele>
        <time>2014-05-23T18:14:26Z</time>
      </trkpt>
      <trkpt lat="59.9936169" lon="17.735474">
        <ele>67.4297</ele>
        <time>2014-05-23T18:14:27Z</time>
      </trkpt>
      <trkpt lat="59.9936449" lon="17.7354682">
        <ele>67.9103</ele>
        <time>2014-05-23T18:14:28Z</time>
      </trkpt>
      <trkpt lat="59.9936774" lon="17.7354717">
        <ele>68.8716</ele>
        <time>2014-05-23T18:14:29Z</time>
      </trkpt>
      <trkpt lat="59.993707" lon="17.7354734">
        <ele>69.3523</ele>
        <time>2014-05-23T18:14:30Z</time>
      </trkpt>
      <trkpt lat="59.9937402" lon="17.7354728">
        <ele>69.8329</ele>
        <time>2014-05-23T18:14:31Z</time>
      </trkpt>
      <trkpt lat="59.9937822" lon="17.7354708">
        <ele>72.2362</ele>
        <time>2014-05-23T18:14:32Z</time>
      </trkpt>
      <trkpt lat="59.9938186" lon="17.735477">
        <ele>73.1976</ele>
        <time>2014-05-23T18:14:33Z</time>
      </trkpt>
      <trkpt lat="59.9938522" lon="17.7354889">
        <ele>73.6782</ele>
        <time>2014-05-23T18:14:34Z</time>
      </trkpt>
      <trkpt lat="59.9938811" lon="17.7355037">
        <ele>73.1976</ele>
        <time>2014-05-23T18:14:35Z</time>
      </trkpt>
      <trkpt lat="59.9939112" lon="17.735523">
        <ele>72.7169</ele>
        <time>2014-05-23T18:14:36Z</time>
      </trkpt>
      <trkpt lat="59.9939334" lon="17.7355387">
        <ele>71.7555</ele>
        <time>2014-05-23T18:14:37Z</time>
      </trkpt>
      <trkpt lat="59.9939604" lon="17.7355417">
        <ele>72.2362</ele>
        <time>2014-05-23T18:14:38Z</time>
      </trkpt>
      <trkpt lat="59.9939844" lon="17.7355499">
        <ele>71.2749</ele>
        <time>2014-05-23T18:14:39Z</time>
      </trkpt>
      <trkpt lat="59.9940142" lon="17.7355589">
        <ele>71.7555</ele>
        <time>2014-05-23T18:14:40Z</time>
      </trkpt>
      <trkpt lat="59.9940555" lon="17.7355685">
        <ele>72.7169</ele>
        <time>2014-05-23T18:14:41Z</time>
      </trkpt>
      <trkpt lat="59.9940807" lon="17.7355693">
        <ele>72.2362</ele>
        <time>2014-05-23T18:14:42Z</time>
      </trkpt>
      <trkpt lat="59.9941091" lon="17.7355651">
        <ele>72.7169</ele>
        <time>2014-05-23T18:14:43Z</time>
      </trkpt>
      <trkpt lat="59.9941226" lon="17.7355729">
        <ele>70.7942</ele>
        <time>2014-05-23T18:14:44Z</time>
      </trkpt>
      <trkpt lat="59.9941348" lon="17.7355836">
        <ele>68.8716</ele>
        <time>2014-05-23T18:14:45Z</time>
      </trkpt>
      <trkpt lat="59.9941491" lon="17.7355893">
        <ele>67.4297</ele>
        <time>2014-05-23T18:14:46Z</time>
      </trkpt>
      <trkpt lat="59.9941739" lon="17.7355862">
        <ele>66.949</ele>
        <time>2014-05-23T18:14:47Z</time>
      </trkpt>
      <trkpt lat="59.9942013" lon="17.7355986">
        <ele>66.949</ele>
        <time>2014-05-23T18:14:48Z</time>
      </trkpt>
      <trkpt lat="59.9942302" lon="17.7356163">
        <ele>67.4297</ele>
        <time>2014-05-23T18:14:49Z</time>
      </trkpt>
      <trkpt lat="59.9942553" lon="17.7356164">
        <ele>66.949</ele>
        <time>2014-05-23T18:14:50Z</time>
      </trkpt>
      <trkpt lat="59.9942831" lon="17.7356247">
        <ele>66.4683</ele>
        <time>2014-05-23T18:14:51Z</time>
      </trkpt>
      <trkpt lat="59.9943111" lon="17.7356412">
        <ele>66.4683</ele>
        <time>2014-05-23T18:14:52Z</time>
      </trkpt>
      <trkpt lat="59.994343" lon="17.7356384">
        <ele>67.4297</ele>
        <time>2014-05-23T18:14:53Z</time>
      </trkpt>
      <trkpt lat="59.9943712" lon="17.7356448">
        <ele>67.9103</ele>
        <time>2014-05-23T18:14:54Z</time>
      </trkpt>
      <trkpt lat="59.9944048" lon="17.7356385">
        <ele>69.3523</ele>
        <time>2014-05-23T18:14:55Z</time>
      </trkpt>
      <trkpt lat="59.994434" lon="17.7356481">
        <ele>68.8716</ele>
        <time>2014-05-23T18:14:56Z</time>
      </trkpt>
      <trkpt lat="59.9944558" lon="17.7356713">
        <ele>67.4297</ele>
        <time>2014-05-23T18:14:57Z</time>
      </trkpt>
      <trkpt lat="59.9944918" lon="17.7356786">
        <ele>68.3909</ele>
        <time>2014-05-23T18:14:58Z</time>
      </trkpt>
      <trkpt lat="59.9945207" lon="17.7356914">
        <ele>68.3909</ele>
        <time>2014-05-23T18:14:59Z</time>
      </trkpt>
      <trkpt lat="59.9945511" lon="17.7357112">
        <ele>67.9103</ele>
        <time>2014-05-23T18:15:00Z</time>
      </trkpt>
      <trkpt lat="59.9945794" lon="17.735734">
        <ele>66.949</ele>
        <time>2014-05-23T18:15:01Z</time>
      </trkpt>
      <trkpt lat="59.9946029" lon="17.7357447">
        <ele>65.5071</ele>
        <time>2014-05-23T18:15:02Z</time>
      </trkpt>
      <trkpt lat="59.9946358" lon="17.7357546">
        <ele>65.5071</ele>
        <time>2014-05-23T18:15:03Z</time>
      </trkpt>
      <trkpt lat="59.9946675" lon="17.7357781">
        <ele>64.5457</ele>
        <time>2014-05-23T18:15:04Z</time>
      </trkpt>
      <trkpt lat="59.9947028" lon="17.7358074">
        <ele>64.5457</ele>
        <time>2014-05-23T18:15:05Z</time>
      </trkpt>
      <trkpt lat="59.9947276" lon="17.7358236">
        <ele>62.6229</ele>
        <time>2014-05-23T18:15:06Z</time>
      </trkpt>
      <trkpt lat="59.9947585" lon="17.7358495">
        <ele>62.6229</ele>
        <time>2014-05-23T18:15:07Z</time>
      </trkpt>
      <trkpt lat="59.9947867" lon="17.7358686">
        <ele>62.1423</ele>
        <time>2014-05-23T18:15:08Z</time>
      </trkpt>
      <trkpt lat="59.9948105" lon="17.7358884">
        <ele>61.181</ele>
        <time>2014-05-23T18:15:09Z</time>
      </trkpt>
      <trkpt lat="59.994838" lon="17.7359119">
        <ele>60.2197</ele>
        <time>2014-05-23T18:15:10Z</time>
      </trkpt>
      <trkpt lat="59.9948659" lon="17.735922">
        <ele>59.2584</ele>
        <time>2014-05-23T18:15:11Z</time>
      </trkpt>
      <trkpt lat="59.9949006" lon="17.7359324">
        <ele>60.2197</ele>
        <time>2014-05-23T18:15:12Z</time>
      </trkpt>
      <trkpt lat="59.994927" lon="17.7359406">
        <ele>59.7391</ele>
        <time>2014-05-23T18:15:13Z</time>
      </trkpt>
      <trkpt lat="59.9949555" lon="17.7359629">
        <ele>61.181</ele>
        <time>2014-05-23T18:15:14Z</time>
      </trkpt>
      <trkpt lat="59.9949751" lon="17.735976">
        <ele>59.7391</ele>
        <time>2014-05-23T18:15:15Z</time>
      </trkpt>
      <trkpt lat="59.9950073" lon="17.7359725">
        <ele>60.7003</ele>
        <time>2014-05-23T18:15:16Z</time>
      </trkpt>
      <trkpt lat="59.9950364" lon="17.7359873">
        <ele>60.2197</ele>
        <time>2014-05-23T18:15:17Z</time>
      </trkpt>
      <trkpt lat="59.9950734" lon="17.7360012">
        <ele>61.181</ele>
        <time>2014-05-23T18:15:18Z</time>
      </trkpt>
      <trkpt lat="59.9950991" lon="17.7360033">
        <ele>61.181</ele>
        <time>2014-05-23T18:15:19Z</time>
      </trkpt>
      <trkpt lat="59.9951176" lon="17.7360054">
        <ele>59.7391</ele>
        <time>2014-05-23T18:15:20Z</time>
      </trkpt>
      <trkpt lat="59.9951463" lon="17.7360152">
        <ele>59.7391</ele>
        <time>2014-05-23T18:15:21Z</time>
      </trkpt>
      <trkpt lat="59.9951729" lon="17.7360226">
        <ele>59.2584</ele>
        <time>2014-05-23T18:15:22Z</time>
      </trkpt>
      <trkpt lat="59.9952006" lon="17.7360292">
        <ele>59.2584</ele>
        <time>2014-05-23T18:15:23Z</time>
      </trkpt>
      <trkpt lat="59.9952373" lon="17.736042">
        <ele>60.7003</ele>
        <time>2014-05-23T18:15:24Z</time>
      </trkpt>
      <trkpt lat="59.9952643" lon="17.7360534">
        <ele>60.7003</ele>
        <time>2014-05-23T18:15:25Z</time>
      </trkpt>
      <trkpt lat="59.9953022" lon="17.7360593">
        <ele>62.6229</ele>
        <time>2014-05-23T18:15:26Z</time>
      </trkpt>
      <trkpt lat="59.9953343" lon="17.7360607">
        <ele>63.5844</ele>
        <time>2014-05-23T18:15:27Z</time>
      </trkpt>
      <trkpt lat="59.9953557" lon="17.7360601">
        <ele>62.6229</ele>
        <time>2014-05-23T18:15:28Z</time>
      </trkpt>
      <trkpt lat="59.9953881" lon="17.7360637">
        <ele>63.5844</ele>
        <time>2014-05-23T18:15:29Z</time>
      </trkpt>
      <trkpt lat="59.9954154" lon="17.7360722">
        <ele>63.1036</ele>
        <time>2014-05-23T18:15:30Z</time>
      </trkpt>
      <trkpt lat="59.9954412" lon="17.7360748">
        <ele>63.5844</ele>
        <time>2014-05-23T18:15:31Z</time>
      </trkpt>
      <trkpt lat="59.9954659" lon="17.7360741">
        <ele>64.0651</ele>
        <time>2014-05-23T18:15:32Z</time>
      </trkpt>
      <trkpt lat="59.995497" lon="17.7360756">
        <ele>64.5457</ele>
        <time>2014-05-23T18:15:33Z</time>
      </trkpt>
      <trkpt lat="59.9955381" lon="17.7360774">
        <ele>66.949</ele>
        <time>2014-05-23T18:15:34Z</time>
      </trkpt>
      <trkpt lat="59.9955693" lon="17.7360853">
        <ele>67.9103</ele>
        <time>2014-05-23T18:15:35Z</time>
      </trkpt>
      <trkpt lat="59.9955989" lon="17.7360867">
        <ele>68.8716</ele>
        <time>2014-05-23T18:15:36Z</time>
      </trkpt>
      <trkpt lat="59.9956261" lon="17.7360783">
        <ele>68.3909</ele>
        <time>2014-05-23T18:15:37Z</time>
      </trkpt>
      <trkpt lat="59.9956526" lon="17.7360691">
        <ele>68.8716</ele>
        <time>2014-05-23T18:15:38Z</time>
      </trkpt>
      <trkpt lat="59.9956786" lon="17.7360741">
        <ele>69.3523</ele>
        <time>2014-05-23T18:15:39Z</time>
      </trkpt>
      <trkpt lat="59.9957024" lon="17.7360744">
        <ele>68.8716</ele>
        <time>2014-05-23T18:15:40Z</time>
      </trkpt>
      <trkpt lat="59.9957323" lon="17.7360847">
        <ele>69.3523</ele>
        <time>2014-05-23T18:15:41Z</time>
      </trkpt>
      <trkpt lat="59.995765" lon="17.7360903">
        <ele>70.3135</ele>
        <time>2014-05-23T18:15:42Z</time>
      </trkpt>
      <trkpt lat="59.9957984" lon="17.7360875">
        <ele>72.2362</ele>
        <time>2014-05-23T18:15:43Z</time>
      </trkpt>
      <trkpt lat="59.995831" lon="17.7360749">
        <ele>73.6782</ele>
        <time>2014-05-23T18:15:44Z</time>
      </trkpt>
      <trkpt lat="59.9958484" lon="17.7360665">
        <ele>72.7169</ele>
        <time>2014-05-23T18:15:45Z</time>
      </trkpt>
      <trkpt lat="59.995886" lon="17.7360665">
        <ele>76.0814</ele>
        <time>2014-05-23T18:15:46Z</time>
      </trkpt>
      <trkpt lat="59.9959259" lon="17.736059">
        <ele>78.9655</ele>
        <time>2014-05-23T18:15:47Z</time>
      </trkpt>
      <trkpt lat="59.9959608" lon="17.7360521">
        <ele>81.3688</ele>
        <time>2014-05-23T18:15:48Z</time>
      </trkpt>
      <trkpt lat="59.9959983" lon="17.736044">
        <ele>83.772</ele>
        <time>2014-05-23T18:15:49Z</time>
      </trkpt>
      <trkpt lat="59.9960313" lon="17.7360324">
        <ele>86.656</ele>
        <time>2014-05-23T18:15:50Z</time>
      </trkpt>
      <trkpt lat="59.9960494" lon="17.7360225">
        <ele>86.656</ele>
        <time>2014-05-23T18:15:51Z</time>
      </trkpt>
      <trkpt lat="59.9960777" lon="17.7360155">
        <ele>87.6172</ele>
        <time>2014-05-23T18:15:52Z</time>
      </trkpt>
      <trkpt lat="59.9960931" lon="17.7360105">
        <ele>86.1753</ele>
        <time>2014-05-23T18:15:53Z</time>
      </trkpt>
      <trkpt lat="59.9961172" lon="17.7360068">
        <ele>86.1753</ele>
        <time>2014-05-23T18:15:54Z</time>
      </trkpt>
      <trkpt lat="59.9961541" lon="17.736009">
        <ele>87.6172</ele>
        <time>2014-05-23T18:15:55Z</time>
      </trkpt>
      <trkpt lat="59.9961883" lon="17.7360073">
        <ele>88.098</ele>
        <time>2014-05-23T18:15:56Z</time>
      </trkpt>
      <trkpt lat="59.9962231" lon="17.7359961">
        <ele>90.0206</ele>
        <time>2014-05-23T18:15:57Z</time>
      </trkpt>
      <trkpt lat="59.9962434" lon="17.7359945">
        <ele>90.0206</ele>
        <time>2014-05-23T18:15:58Z</time>
      </trkpt>
      <trkpt lat="59.9962577" lon="17.7359949">
        <ele>88.5787</ele>
        <time>2014-05-23T18:15:59Z</time>
      </trkpt>
      <trkpt lat="59.9962692" lon="17.7359964">
        <ele>85.6946</ele>
        <time>2014-05-23T18:16:00Z</time>
      </trkpt>
      <trkpt lat="59.9962869" lon="17.7360054">
        <ele>84.2527</ele>
        <time>2014-05-23T18:16:01Z</time>
      </trkpt>
      <trkpt lat="59.9963044" lon="17.7360148">
        <ele>82.8108</ele>
        <time>2014-05-23T18:16:02Z</time>
      </trkpt>
      <trkpt lat="59.9963231" lon="17.7360283">
        <ele>81.3688</ele>
        <time>2014-05-23T18:16:03Z</time>
      </trkpt>
      <trkpt lat="59.9963498" lon="17.7360415">
        <ele>81.3688</ele>
        <time>2014-05-23T18:16:04Z</time>
      </trkpt>
      <trkpt lat="59.9963788" lon="17.7360571">
        <ele>81.3688</ele>
        <time>2014-05-23T18:16:05Z</time>
      </trkpt>
      <trkpt lat="59.9964017" lon="17.7360778">
        <ele>79.9266</ele>
        <time>2014-05-23T18:16:06Z</time>
      </trkpt>
      <trkpt lat="59.9964167" lon="17.736086">
        <ele>77.5234</ele>
        <time>2014-05-23T18:16:07Z</time>
      </trkpt>
      <trkpt lat="59.996433" lon="17.7360958">
        <ele>76.0814</ele>
        <time>2014-05-23T18:16:08Z</time>
      </trkpt>
      <trkpt lat="59.9964593" lon="17.7361094">
        <ele>75.6008</ele>
        <time>2014-05-23T18:16:09Z</time>
      </trkpt>
      <trkpt lat="59.9964903" lon="17.7361267">
        <ele>76.0814</ele>
        <time>2014-05-23T18:16:10Z</time>
      </trkpt>
      <trkpt lat="59.9965123" lon="17.7361462">
        <ele>74.1588</ele>
        <time>2014-05-23T18:16:11Z</time>
      </trkpt>
      <trkpt lat="59.9965325" lon="17.7361644">
        <ele>72.2362</ele>
        <time>2014-05-23T18:16:12Z</time>
      </trkpt>
      <trkpt lat="59.9965547" lon="17.7361809">
        <ele>70.3135</ele>
        <time>2014-05-23T18:16:13Z</time>
      </trkpt>
      <trkpt lat="59.99658" lon="17.7362012">
        <ele>69.8329</ele>
        <time>2014-05-23T18:16:14Z</time>
      </trkpt>
      <trkpt lat="59.9966016" lon="17.736224">
        <ele>68.3909</ele>
        <time>2014-05-23T18:16:15Z</time>
      </trkpt>
      <trkpt lat="59.9966251" lon="17.7362415">
        <ele>66.4683</ele>
        <time>2014-05-23T18:16:16Z</time>
      </trkpt>
      <trkpt lat="59.9966594" lon="17.7362567">
        <ele>66.949</ele>
        <time>2014-05-23T18:16:17Z</time>
      </trkpt>
      <trkpt lat="59.9966908" lon="17.7362788">
        <ele>67.4297</ele>
        <time>2014-05-23T18:16:18Z</time>
      </trkpt>
      <trkpt lat="59.9967148" lon="17.7362961">
        <ele>66.4683</ele>
        <time>2014-05-23T18:16:19Z</time>
      </trkpt>
      <trkpt lat="59.9967363" lon="17.7363093">
        <ele>65.5071</ele>
        <time>2014-05-23T18:16:20Z</time>
      </trkpt>
      <trkpt lat="59.996759" lon="17.7363188">
        <ele>65.0264</ele>
        <time>2014-05-23T18:16:21Z</time>
      </trkpt>
      <trkpt lat="59.9967939" lon="17.7363373">
        <ele>67.4297</ele>
        <time>2014-05-23T18:16:22Z</time>
      </trkpt>
      <trkpt lat="59.9968136" lon="17.736352">
        <ele>67.4297</ele>
        <time>2014-05-23T18:16:23Z</time>
      </trkpt>
      <trkpt lat="59.9968359" lon="17.7363667">
        <ele>67.4297</ele>
        <time>2014-05-23T18:16:24Z</time>
      </trkpt>
      <trkpt lat="59.9968585" lon="17.7363767">
        <ele>67.9103</ele>
        <time>2014-05-23T18:16:25Z</time>
      </trkpt>
      <trkpt lat="59.9968825" lon="17.736384">
        <ele>67.9103</ele>
        <time>2014-05-23T18:16:26Z</time>
      </trkpt>
      <trkpt lat="59.996907" lon="17.7363841">
        <ele>68.8716</ele>
        <time>2014-05-23T18:16:27Z</time>
      </trkpt>
      <trkpt lat="59.9969338" lon="17.7363871">
        <ele>70.3135</ele>
        <time>2014-05-23T18:16:28Z</time>
      </trkpt>
      <trkpt lat="59.996965" lon="17.7363979">
        <ele>71.7555</ele>
        <time>2014-05-23T18:16:29Z</time>
      </trkpt>
      <trkpt lat="59.9969919" lon="17.7364018">
        <ele>73.1976</ele>
        <time>2014-05-23T18:16:30Z</time>
      </trkpt>
      <trkpt lat="59.9970222" lon="17.7364088">
        <ele>74.1588</ele>
        <time>2014-05-23T18:16:31Z</time>
      </trkpt>
      <trkpt lat="59.9970608" lon="17.7364208">
        <ele>76.5621</ele>
        <time>2014-05-23T18:16:32Z</time>
      </trkpt>
      <trkpt lat="59.9971012" lon="17.7364357">
        <ele>79.9266</ele>
        <time>2014-05-23T18:16:33Z</time>
      </trkpt>
      <trkpt lat="59.9971462" lon="17.7364446">
        <ele>83.2914</ele>
        <time>2014-05-23T18:16:34Z</time>
      </trkpt>
      <trkpt lat="59.9971807" lon="17.7364525">
        <ele>84.7334</ele>
        <time>2014-05-23T18:16:35Z</time>
      </trkpt>
      <trkpt lat="59.9972161" lon="17.7364689">
        <ele>85.6946</ele>
        <time>2014-05-23T18:16:36Z</time>
      </trkpt>
      <trkpt lat="59.9972596" lon="17.7364762">
        <ele>88.5787</ele>
        <time>2014-05-23T18:16:37Z</time>
      </trkpt>
      <trkpt lat="59.9973002" lon="17.7364778">
        <ele>91.9432</ele>
        <time>2014-05-23T18:16:38Z</time>
      </trkpt>
      <trkpt lat="59.9973408" lon="17.7364888">
        <ele>94.8271</ele>
        <time>2014-05-23T18:16:39Z</time>
      </trkpt>
      <trkpt lat="59.9973701" lon="17.7364901">
        <ele>94.8271</ele>
        <time>2014-05-23T18:16:40Z</time>
      </trkpt>
      <trkpt lat="59.9974036" lon="17.7364934">
        <ele>95.7885</ele>
        <time>2014-05-23T18:16:41Z</time>
      </trkpt>
      <trkpt lat="59.9974345" lon="17.7364965">
        <ele>96.7499</ele>
        <time>2014-05-23T18:16:42Z</time>
      </trkpt>
      <trkpt lat="59.9974617" lon="17.7364985">
        <ele>97.2305</ele>
        <time>2014-05-23T18:16:43Z</time>
      </trkpt>
      <trkpt lat="59.9974939" lon="17.7364962">
        <ele>98.6725</ele>
        <time>2014-05-23T18:16:44Z</time>
      </trkpt>
      <trkpt lat="59.9975205" lon="17.736494">
        <ele>99.6338</ele>
        <time>2014-05-23T18:16:45Z</time>
      </trkpt>
      <trkpt lat="59.997546" lon="17.7364918">
        <ele>100.595</ele>
        <time>2014-05-23T18:16:46Z</time>
      </trkpt>
      <trkpt lat="59.9975756" lon="17.7364891">
        <ele>101.556</ele>
        <time>2014-05-23T18:16:47Z</time>
      </trkpt>
      <trkpt lat="59.9975984" lon="17.7364944">
        <ele>101.556</ele>
        <time>2014-05-23T18:16:48Z</time>
      </trkpt>
      <trkpt lat="59.9976254" lon="17.7365072">
        <ele>102.998</ele>
        <time>2014-05-23T18:16:49Z</time>
      </trkpt>
      <trkpt lat="59.9976425" lon="17.7365063">
        <ele>102.518</ele>
        <time>2014-05-23T18:16:50Z</time>
      </trkpt>
      <trkpt lat="59.9976654" lon="17.736501">
        <ele>102.998</ele>
        <time>2014-05-23T18:16:51Z</time>
      </trkpt>
      <trkpt lat="59.9976856" lon="17.7365001">
        <ele>102.037</ele>
        <time>2014-05-23T18:16:52Z</time>
      </trkpt>
      <trkpt lat="59.9977124" lon="17.7365062">
        <ele>102.037</ele>
        <time>2014-05-23T18:16:53Z</time>
      </trkpt>
      <trkpt lat="59.9977371" lon="17.7365094">
        <ele>102.037</ele>
        <time>2014-05-23T18:16:54Z</time>
      </trkpt>
      <trkpt lat="59.9977671" lon="17.7365118">
        <ele>102.037</ele>
        <time>2014-05-23T18:16:55Z</time>
      </trkpt>
      <trkpt lat="59.9977987" lon="17.7365104">
        <ele>103.479</ele>
        <time>2014-05-23T18:16:56Z</time>
      </trkpt>
      <trkpt lat="59.9978164" lon="17.7365001">
        <ele>102.518</ele>
        <time>2014-05-23T18:16:57Z</time>
      </trkpt>
      <trkpt lat="59.9978402" lon="17.7364865">
        <ele>102.998</ele>
        <time>2014-05-23T18:16:58Z</time>
      </trkpt>
      <trkpt lat="59.9978656" lon="17.736483">
        <ele>102.998</ele>
        <time>2014-05-23T18:16:59Z</time>
      </trkpt>
      <trkpt lat="59.9979016" lon="17.7364867">
        <ele>103.96</ele>
        <time>2014-05-23T18:17:00Z</time>
      </trkpt>
      <trkpt lat="59.9979325" lon="17.736484">
        <ele>104.44</ele>
        <time>2014-05-23T18:17:01Z</time>
      </trkpt>
      <trkpt lat="59.9979565" lon="17.7364798">
        <ele>104.44</ele>
        <time>2014-05-23T18:17:02Z</time>
      </trkpt>
      <trkpt lat="59.9979776" lon="17.7364792">
        <ele>102.998</ele>
        <time>2014-05-23T18:17:03Z</time>
      </trkpt>
      <trkpt lat="59.9980102" lon="17.7364751">
        <ele>103.479</ele>
        <time>2014-05-23T18:17:04Z</time>
      </trkpt>
      <trkpt lat="59.9980341" lon="17.7364752">
        <ele>102.518</ele>
        <time>2014-05-23T18:17:05Z</time>
      </trkpt>
      <trkpt lat="59.9980615" lon="17.7364835">
        <ele>102.037</ele>
        <time>2014-05-23T18:17:06Z</time>
      </trkpt>
      <trkpt lat="59.9980759" lon="17.7364857">
        <ele>100.115</ele>
        <time>2014-05-23T18:17:07Z</time>
      </trkpt>
      <trkpt lat="59.9980957" lon="17.7364913">
        <ele>99.6338</ele>
        <time>2014-05-23T18:17:08Z</time>
      </trkpt>
      <trkpt lat="59.9981242" lon="17.7365006">
        <ele>100.115</ele>
        <time>2014-05-23T18:17:09Z</time>
      </trkpt>
      <trkpt lat="59.9981544" lon="17.7365061">
        <ele>101.076</ele>
        <time>2014-05-23T18:17:10Z</time>
      </trkpt>
      <trkpt lat="59.9981916" lon="17.7365118">
        <ele>103.479</ele>
        <time>2014-05-23T18:17:11Z</time>
      </trkpt>
      <trkpt lat="59.9982292" lon="17.736518">
        <ele>104.921</ele>
        <time>2014-05-23T18:17:12Z</time>
      </trkpt>
      <trkpt lat="59.9982553" lon="17.736516">
        <ele>104.44</ele>
        <time>2014-05-23T18:17:13Z</time>
      </trkpt>
      <trkpt lat="59.9982759" lon="17.736512">
        <ele>102.998</ele>
        <time>2014-05-23T18:17:14Z</time>
      </trkpt>
      <trkpt lat="59.9983063" lon="17.7365121">
        <ele>103.96</ele>
        <time>2014-05-23T18:17:15Z</time>
      </trkpt>
      <trkpt lat="59.9983401" lon="17.7365141">
        <ele>105.402</ele>
        <time>2014-05-23T18:17:16Z</time>
      </trkpt>
      <trkpt lat="59.9983555" lon="17.7365142">
        <ele>102.998</ele>
        <time>2014-05-23T18:17:17Z</time>
      </trkpt>
      <trkpt lat="59.9983835" lon="17.7365194">
        <ele>102.518</ele>
        <time>2014-05-23T18:17:18Z</time>
      </trkpt>
      <trkpt lat="59.9984075" lon="17.7365234">
        <ele>102.518</ele>
        <time>2014-05-23T18:17:19Z</time>
      </trkpt>
      <trkpt lat="59.9984198" lon="17.7365261">
        <ele>100.595</ele>
        <time>2014-05-23T18:17:20Z</time>
      </trkpt>
      <trkpt lat="59.9984382" lon="17.7365278">
        <ele>99.6338</ele>
        <time>2014-05-23T18:17:21Z</time>
      </trkpt>
      <trkpt lat="59.9984561" lon="17.7365322">
        <ele>98.6725</ele>
        <time>2014-05-23T18:17:22Z</time>
      </trkpt>
      <trkpt lat="59.9984743" lon="17.7365305">
        <ele>98.1919</ele>
        <time>2014-05-23T18:17:23Z</time>
      </trkpt>
      <trkpt lat="59.9984981" lon="17.7365286">
        <ele>98.1919</ele>
        <time>2014-05-23T18:17:24Z</time>
      </trkpt>
      <trkpt lat="59.9985133" lon="17.7365317">
        <ele>96.2693</ele>
        <time>2014-05-23T18:17:25Z</time>
      </trkpt>
      <trkpt lat="59.9985263" lon="17.7365342">
        <ele>94.3466</ele>
        <time>2014-05-23T18:17:26Z</time>
      </trkpt>
      <trkpt lat="59.998526" lon="17.7365317">
        <ele>90.9819</ele>
        <time>2014-05-23T18:17:27Z</time>
      </trkpt>
      <trkpt lat="59.998534" lon="17.7365301">
        <ele>88.5787</ele>
        <time>2014-05-23T18:17:28Z</time>
      </trkpt>
      <trkpt lat="59.9985392" lon="17.7365315">
        <ele>85.214</ele>
        <time>2014-05-23T18:17:29Z</time>
      </trkpt>
      <trkpt lat="59.998548" lon="17.7365403">
        <ele>82.3301</ele>
        <time>2014-05-23T18:17:30Z</time>
      </trkpt>
      <trkpt lat="59.9985496" lon="17.7365598">
        <ele>79.9266</ele>
        <time>2014-05-23T18:17:31Z</time>
      </trkpt>
      <trkpt lat="59.9985508" lon="17.7365802">
        <ele>76.5621</ele>
        <time>2014-05-23T18:17:32Z</time>
      </trkpt>
      <trkpt lat="59.9985712" lon="17.7365932">
        <ele>75.1202</ele>
        <time>2014-05-23T18:17:33Z</time>
      </trkpt>
      <trkpt lat="59.9986044" lon="17.7366068">
        <ele>75.1202</ele>
        <time>2014-05-23T18:17:34Z</time>
      </trkpt>
      <trkpt lat="59.9986293" lon="17.7366145">
        <ele>74.6395</ele>
        <time>2014-05-23T18:17:35Z</time>
      </trkpt>
      <trkpt lat="59.998652" lon="17.7366259">
        <ele>73.1976</ele>
        <time>2014-05-23T18:17:36Z</time>
      </trkpt>
      <trkpt lat="59.9986791" lon="17.7366371">
        <ele>72.7169</ele>
        <time>2014-05-23T18:17:37Z</time>
      </trkpt>
      <trkpt lat="59.9987038" lon="17.7366436">
        <ele>71.2749</ele>
        <time>2014-05-23T18:17:38Z</time>
      </trkpt>
      <trkpt lat="59.9987343" lon="17.7366466">
        <ele>70.7942</ele>
        <time>2014-05-23T18:17:39Z</time>
      </trkpt>
      <trkpt lat="59.9987603" lon="17.7366461">
        <ele>69.3523</ele>
        <time>2014-05-23T18:17:40Z</time>
      </trkpt>
      <trkpt lat="59.9987847" lon="17.7366459">
        <ele>69.8329</ele>
        <time>2014-05-23T18:17:41Z</time>
      </trkpt>
      <trkpt lat="59.998808" lon="17.7366432">
        <ele>69.8329</ele>
        <time>2014-05-23T18:17:42Z</time>
      </trkpt>
      <trkpt lat="59.9988309" lon="17.7366429">
        <ele>69.3523</ele>
        <time>2014-05-23T18:17:43Z</time>
      </trkpt>
      <trkpt lat="59.9988497" lon="17.7366375">
        <ele>67.4297</ele>
        <time>2014-05-23T18:17:44Z</time>
      </trkpt>
      <trkpt lat="59.9988715" lon="17.7366374">
        <ele>66.4683</ele>
        <time>2014-05-23T18:17:45Z</time>
      </trkpt>
      <trkpt lat="59.9988928" lon="17.7366462">
        <ele>65.9877</ele>
        <time>2014-05-23T18:17:46Z</time>
      </trkpt>
      <trkpt lat="59.9989151" lon="17.7366524">
        <ele>65.9877</ele>
        <time>2014-05-23T18:17:47Z</time>
      </trkpt>
      <trkpt lat="59.9989453" lon="17.7366485">
        <ele>66.949</ele>
        <time>2014-05-23T18:17:48Z</time>
      </trkpt>
      <trkpt lat="59.9989753" lon="17.7366436">
        <ele>67.4297</ele>
        <time>2014-05-23T18:17:49Z</time>
      </trkpt>
      <trkpt lat="59.9990012" lon="17.736631">
        <ele>66.949</ele>
        <time>2014-05-23T18:17:50Z</time>
      </trkpt>
      <trkpt lat="59.9990262" lon="17.7366146">
        <ele>66.949</ele>
        <time>2014-05-23T18:17:51Z</time>
      </trkpt>
      <trkpt lat="59.9990545" lon="17.7366042">
        <ele>66.949</ele>
        <time>2014-05-23T18:17:52Z</time>
      </trkpt>
      <trkpt lat="59.9990774" lon="17.7366046">
        <ele>65.5071</ele>
        <time>2014-05-23T18:17:53Z</time>
      </trkpt>
      <trkpt lat="59.9991038" lon="17.7366167">
        <ele>65.5071</ele>
        <time>2014-05-23T18:17:54Z</time>
      </trkpt>
      <trkpt lat="59.9991357" lon="17.7366286">
        <ele>65.9877</ele>
        <time>2014-05-23T18:17:55Z</time>
      </trkpt>
      <trkpt lat="59.9991595" lon="17.736639">
        <ele>65.0264</ele>
        <time>2014-05-23T18:17:56Z</time>
      </trkpt>
      <trkpt lat="59.9991768" lon="17.7366519">
        <ele>62.6229</ele>
        <time>2014-05-23T18:17:57Z</time>
      </trkpt>
      <trkpt lat="59.9991985" lon="17.7366571">
        <ele>60.7003</ele>
        <time>2014-05-23T18:17:58Z</time>
      </trkpt>
      <trkpt lat="59.9992265" lon="17.7366638">
        <ele>59.7391</ele>
        <time>2014-05-23T18:17:59Z</time>
      </trkpt>
      <trkpt lat="59.999251" lon="17.736676">
        <ele>58.2971</ele>
        <time>2014-05-23T18:18:00Z</time>
      </trkpt>
      <trkpt lat="59.999283" lon="17.736689">
        <ele>59.2584</ele>
        <time>2014-05-23T18:18:01Z</time>
      </trkpt>
      <trkpt lat="59.9993072" lon="17.7367045">
        <ele>58.2971</ele>
        <time>2014-05-23T18:18:02Z</time>
      </trkpt>
      <trkpt lat="59.9993374" lon="17.736713">
        <ele>58.7777</ele>
        <time>2014-05-23T18:18:03Z</time>
      </trkpt>
      <trkpt lat="59.9993637" lon="17.7367151">
        <ele>57.3358</ele>
        <time>2014-05-23T18:18:04Z</time>
      </trkpt>
      <trkpt lat="59.9993958" lon="17.7367255">
        <ele>57.3358</ele>
        <time>2014-05-23T18:18:05Z</time>
      </trkpt>
      <trkpt lat="59.9994261" lon="17.7367275">
        <ele>57.3358</ele>
        <time>2014-05-23T18:18:06Z</time>
      </trkpt>
      <trkpt lat="59.9994512" lon="17.7367399">
        <ele>56.8551</ele>
        <time>2014-05-23T18:18:07Z</time>
      </trkpt>
      <trkpt lat="59.9994766" lon="17.7367494">
        <ele>57.3358</ele>
        <time>2014-05-23T18:18:08Z</time>
      </trkpt>
      <trkpt lat="59.9994949" lon="17.7367612">
        <ele>55.8938</ele>
        <time>2014-05-23T18:18:09Z</time>
      </trkpt>
      <trkpt lat="59.9995171" lon="17.736771">
        <ele>55.4131</ele>
        <time>2014-05-23T18:18:10Z</time>
      </trkpt>
      <trkpt lat="59.9995475" lon="17.736774">
        <ele>55.8938</ele>
        <time>2014-05-23T18:18:11Z</time>
      </trkpt>
      <trkpt lat="59.9995705" lon="17.7367757">
        <ele>55.4131</ele>
        <time>2014-05-23T18:18:12Z</time>
      </trkpt>
      <trkpt lat="59.9996004" lon="17.7367806">
        <ele>55.8938</ele>
        <time>2014-05-23T18:18:13Z</time>
      </trkpt>
      <trkpt lat="59.9996306" lon="17.7367872">
        <ele>56.8551</ele>
        <time>2014-05-23T18:18:14Z</time>
      </trkpt>
      <trkpt lat="59.9996633" lon="17.7367874">
        <ele>57.8165</ele>
        <time>2014-05-23T18:18:15Z</time>
      </trkpt>
      <trkpt lat="59.9996889" lon="17.7368003">
        <ele>57.3358</ele>
        <time>2014-05-23T18:18:16Z</time>
      </trkpt>
      <trkpt lat="59.9997089" lon="17.7368108">
        <ele>56.3745</ele>
        <time>2014-05-23T18:18:17Z</time>
      </trkpt>
      <trkpt lat="59.9997356" lon="17.7368176">
        <ele>55.8938</ele>
        <time>2014-05-23T18:18:18Z</time>
      </trkpt>
      <trkpt lat="59.9997547" lon="17.7368171">
        <ele>55.4131</ele>
        <time>2014-05-23T18:18:19Z</time>
      </trkpt>
      <trkpt lat="59.9997834" lon="17.7368155">
        <ele>55.8938</ele>
        <time>2014-05-23T18:18:20Z</time>
      </trkpt>
      <trkpt lat="59.9998084" lon="17.7368275">
        <ele>55.4131</ele>
        <time>2014-05-23T18:18:21Z</time>
      </trkpt>
      <trkpt lat="59.9998303" lon="17.7368291">
        <ele>53.4905</ele>
        <time>2014-05-23T18:18:22Z</time>
      </trkpt>
      <trkpt lat="59.9998568" lon="17.7368262">
        <ele>53.0098</ele>
        <time>2014-05-23T18:18:23Z</time>
      </trkpt>
      <trkpt lat="59.9998812" lon="17.7368285">
        <ele>53.4905</ele>
        <time>2014-05-23T18:18:24Z</time>
      </trkpt>
      <trkpt lat="59.9999125" lon="17.7368296">
        <ele>54.4518</ele>
        <time>2014-05-23T18:18:25Z</time>
      </trkpt>
      <trkpt lat="59.9999429" lon="17.7368315">
        <ele>53.9712</ele>
        <time>2014-05-23T18:18:26Z</time>
      </trkpt>
      <trkpt lat="59.9999725" lon="17.7368351">
        <ele>53.4905</ele>
        <time>2014-05-23T18:18:27Z</time>
      </trkpt>
      <trkpt lat="60.0000111" lon="17.7368414">
        <ele>55.4131</ele>
        <time>2014-05-23T18:18:28Z</time>
      </trkpt>
      <trkpt lat="60.0000476" lon="17.7368315">
        <ele>57.3358</ele>
        <time>2014-05-23T18:18:29Z</time>
      </trkpt>
      <trkpt lat="60.0000776" lon="17.7368229">
        <ele>57.3358</ele>
        <time>2014-05-23T18:18:30Z</time>
      </trkpt>
      <trkpt lat="60.0001178" lon="17.7368165">
        <ele>59.2584</ele>
        <time>2014-05-23T18:18:31Z</time>
      </trkpt>
      <trkpt lat="60.000153" lon="17.7368124">
        <ele>60.2197</ele>
        <time>2014-05-23T18:18:32Z</time>
      </trkpt>
      <trkpt lat="60.0001833" lon="17.7368081">
        <ele>59.7391</ele>
        <time>2014-05-23T18:18:33Z</time>
      </trkpt>
      <trkpt lat="60.0002194" lon="17.7368026">
        <ele>60.7003</ele>
        <time>2014-05-23T18:18:34Z</time>
      </trkpt>
      <trkpt lat="60.0002547" lon="17.7367942">
        <ele>62.1423</ele>
        <time>2014-05-23T18:18:35Z</time>
      </trkpt>
      <trkpt lat="60.0002842" lon="17.7367896">
        <ele>61.6617</ele>
        <time>2014-05-23T18:18:36Z</time>
      </trkpt>
      <trkpt lat="60.0003143" lon="17.7367855">
        <ele>61.181</ele>
        <time>2014-05-23T18:18:37Z</time>
      </trkpt>
      <trkpt lat="60.0003401" lon="17.7367771">
        <ele>60.2197</ele>
        <time>2014-05-23T18:18:38Z</time>
      </trkpt>
      <trkpt lat="60.0003619" lon="17.7367678">
        <ele>58.2971</ele>
        <time>2014-05-23T18:18:39Z</time>
      </trkpt>
      <trkpt lat="60.0003892" lon="17.7367496">
        <ele>57.3358</ele>
        <time>2014-05-23T18:18:40Z</time>
      </trkpt>
      <trkpt lat="60.0004215" lon="17.736733">
        <ele>57.8165</ele>
        <time>2014-05-23T18:18:41Z</time>
      </trkpt>
      <trkpt lat="60.0004552" lon="17.736717">
        <ele>59.2584</ele>
        <time>2014-05-23T18:18:42Z</time>
      </trkpt>
      <trkpt lat="60.0004885" lon="17.7366963">
        <ele>60.2197</ele>
        <time>2014-05-23T18:18:43Z</time>
      </trkpt>
      <trkpt lat="60.0005201" lon="17.7366766">
        <ele>61.181</ele>
        <time>2014-05-23T18:18:44Z</time>
      </trkpt>
      <trkpt lat="60.0005418" lon="17.7366602">
        <ele>59.7391</ele>
        <time>2014-05-23T18:18:45Z</time>
      </trkpt>
      <trkpt lat="60.0005628" lon="17.7366446">
        <ele>58.7777</ele>
        <time>2014-05-23T18:18:46Z</time>
      </trkpt>
      <trkpt lat="60.0005842" lon="17.7366266">
        <ele>57.8165</ele>
        <time>2014-05-23T18:18:47Z</time>
      </trkpt>
      <trkpt lat="60.0006113" lon="17.7366083">
        <ele>58.2971</ele>
        <time>2014-05-23T18:18:48Z</time>
      </trkpt>
      <trkpt lat="60.0006329" lon="17.7365869">
        <ele>57.3358</ele>
        <time>2014-05-23T18:18:49Z</time>
      </trkpt>
      <trkpt lat="60.0006521" lon="17.7365651">
        <ele>56.3745</ele>
        <time>2014-05-23T18:18:50Z</time>
      </trkpt>
      <trkpt lat="60.0006739" lon="17.7365478">
        <ele>56.3745</ele>
        <time>2014-05-23T18:18:51Z</time>
      </trkpt>
      <trkpt lat="60.0006993" lon="17.7365284">
        <ele>56.8551</ele>
        <time>2014-05-23T18:18:52Z</time>
      </trkpt>
      <trkpt lat="60.0007267" lon="17.7365016">
        <ele>57.3358</ele>
        <time>2014-05-23T18:18:53Z</time>
      </trkpt>
      <trkpt lat="60.0007505" lon="17.7364802">
        <ele>57.3358</ele>
        <time>2014-05-23T18:18:54Z</time>
      </trkpt>
      <trkpt lat="60.0007691" lon="17.7364584">
        <ele>55.8938</ele>
        <time>2014-05-23T18:18:55Z</time>
      </trkpt>
      <trkpt lat="60.0007992" lon="17.7364444">
        <ele>56.8551</ele>
        <time>2014-05-23T18:18:56Z</time>
      </trkpt>
      <trkpt lat="60.0008275" lon="17.7364255">
        <ele>57.8165</ele>
        <time>2014-05-23T18:18:57Z</time>
      </trkpt>
      <trkpt lat="60.0008516" lon="17.736408">
        <ele>57.8165</ele>
        <time>2014-05-23T18:18:58Z</time>
      </trkpt>
      <trkpt lat="60.0008824" lon="17.7363907">
        <ele>59.2584</ele>
        <time>2014-05-23T18:18:59Z</time>
      </trkpt>
      <trkpt lat="60.0009163" lon="17.7363649">
        <ele>60.7003</ele>
        <time>2014-05-23T18:19:00Z</time>
      </trkpt>
      <trkpt lat="60.0009474" lon="17.736338">
        <ele>62.1423</ele>
        <time>2014-05-23T18:19:01Z</time>
      </trkpt>
      <trkpt lat="60.0009834" lon="17.7363172">
        <ele>64.0651</ele>
        <time>2014-05-23T18:19:02Z</time>
      </trkpt>
      <trkpt lat="60.0010114" lon="17.7362984">
        <ele>64.5457</ele>
        <time>2014-05-23T18:19:03Z</time>
      </trkpt>
      <trkpt lat="60.0010359" lon="17.7362862">
        <ele>64.5457</ele>
        <time>2014-05-23T18:19:04Z</time>
      </trkpt>
      <trkpt lat="60.0010674" lon="17.7362714">
        <ele>65.5071</ele>
        <time>2014-05-23T18:19:05Z</time>
      </trkpt>
      <trkpt lat="60.001101" lon="17.7362648">
        <ele>66.949</ele>
        <time>2014-05-23T18:19:06Z</time>
      </trkpt>
      <trkpt lat="60.001126" lon="17.7362514">
        <ele>66.4683</ele>
        <time>2014-05-23T18:19:07Z</time>
      </trkpt>
      <trkpt lat="60.0011525" lon="17.7362395">
        <ele>66.949</ele>
        <time>2014-05-23T18:19:08Z</time>
      </trkpt>
      <trkpt lat="60.0011815" lon="17.7362369">
        <ele>67.9103</ele>
        <time>2014-05-23T18:19:09Z</time>
      </trkpt>
      <trkpt lat="60.0012121" lon="17.7362281">
        <ele>68.3909</ele>
        <time>2014-05-23T18:19:10Z</time>
      </trkpt>
      <trkpt lat="60.0012338" lon="17.7362105">
        <ele>67.4297</ele>
        <time>2014-05-23T18:19:11Z</time>
      </trkpt>
      <trkpt lat="60.0012618" lon="17.7362028">
        <ele>67.4297</ele>
        <time>2014-05-23T18:19:12Z</time>
      </trkpt>
      <trkpt lat="60.0012887" lon="17.7361979">
        <ele>66.949</ele>
        <time>2014-05-23T18:19:13Z</time>
      </trkpt>
      <trkpt lat="60.001315" lon="17.7361826">
        <ele>66.949</ele>
        <time>2014-05-23T18:19:14Z</time>
      </trkpt>
      <trkpt lat="60.0013417" lon="17.7361744">
        <ele>67.4297</ele>
        <time>2014-05-23T18:19:15Z</time>
      </trkpt>
      <trkpt lat="60.0013605" lon="17.7361544">
        <ele>65.9877</ele>
        <time>2014-05-23T18:19:16Z</time>
      </trkpt>
      <trkpt lat="60.001381" lon="17.7361302">
        <ele>65.9877</ele>
        <time>2014-05-23T18:19:17Z</time>
      </trkpt>
      <trkpt lat="60.0013979" lon="17.7361046">
        <ele>64.5457</ele>
        <time>2014-05-23T18:19:18Z</time>
      </trkpt>
      <trkpt lat="60.0014163" lon="17.7360829">
        <ele>63.1036</ele>
        <time>2014-05-23T18:19:19Z</time>
      </trkpt>
      <trkpt lat="60.0014395" lon="17.7360572">
        <ele>63.1036</ele>
        <time>2014-05-23T18:19:20Z</time>
      </trkpt>
      <trkpt lat="60.0014622" lon="17.7360255">
        <ele>63.5844</ele>
        <time>2014-05-23T18:19:21Z</time>
      </trkpt>
      <trkpt lat="60.0014825" lon="17.7360038">
        <ele>64.0651</ele>
        <time>2014-05-23T18:19:22Z</time>
      </trkpt>
      <trkpt lat="60.0015113" lon="17.7359837">
        <ele>64.5457</ele>
        <time>2014-05-23T18:19:23Z</time>
      </trkpt>
      <trkpt lat="60.0015317" lon="17.7359591">
        <ele>64.0651</ele>
        <time>2014-05-23T18:19:24Z</time>
      </trkpt>
      <trkpt lat="60.0015478" lon="17.7359356">
        <ele>62.6229</ele>
        <time>2014-05-23T18:19:25Z</time>
      </trkpt>
      <trkpt lat="60.0015731" lon="17.7359101">
        <ele>62.6229</ele>
        <time>2014-05-23T18:19:26Z</time>
      </trkpt>
      <trkpt lat="60.0015912" lon="17.7358883">
        <ele>61.181</ele>
        <time>2014-05-23T18:19:27Z</time>
      </trkpt>
      <trkpt lat="60.0016095" lon="17.7358607">
        <ele>60.2197</ele>
        <time>2014-05-23T18:19:28Z</time>
      </trkpt>
      <trkpt lat="60.0016235" lon="17.7358339">
        <ele>58.7777</ele>
        <time>2014-05-23T18:19:29Z</time>
      </trkpt>
      <trkpt lat="60.0016467" lon="17.7358029">
        <ele>59.2584</ele>
        <time>2014-05-23T18:19:30Z</time>
      </trkpt>
      <trkpt lat="60.0016708" lon="17.7357686">
        <ele>59.2584</ele>
        <time>2014-05-23T18:19:31Z</time>
      </trkpt>
      <trkpt lat="60.0016979" lon="17.7357307">
        <ele>59.7391</ele>
        <time>2014-05-23T18:19:32Z</time>
      </trkpt>
      <trkpt lat="60.001727" lon="17.7356946">
        <ele>61.181</ele>
        <time>2014-05-23T18:19:33Z</time>
      </trkpt>
      <trkpt lat="60.0017442" lon="17.7356602">
        <ele>60.7003</ele>
        <time>2014-05-23T18:19:34Z</time>
      </trkpt>
      <trkpt lat="60.0017657" lon="17.7356226">
        <ele>61.181</ele>
        <time>2014-05-23T18:19:35Z</time>
      </trkpt>
      <trkpt lat="60.0017881" lon="17.735589">
        <ele>60.7003</ele>
        <time>2014-05-23T18:19:36Z</time>
      </trkpt>
      <trkpt lat="60.0018129" lon="17.7355583">
        <ele>60.2197</ele>
        <time>2014-05-23T18:19:37Z</time>
      </trkpt>
      <trkpt lat="60.0018373" lon="17.735531">
        <ele>60.2197</ele>
        <time>2014-05-23T18:19:38Z</time>
      </trkpt>
      <trkpt lat="60.0018602" lon="17.7355013">
        <ele>60.2197</ele>
        <time>2014-05-23T18:19:39Z</time>
      </trkpt>
      <trkpt lat="60.001886" lon="17.7354718">
        <ele>61.181</ele>
        <time>2014-05-23T18:19:40Z</time>
      </trkpt>
      <trkpt lat="60.0018993" lon="17.7354312">
        <ele>59.7391</ele>
        <time>2014-05-23T18:19:41Z</time>
      </trkpt>
      <trkpt lat="60.0019181" lon="17.7353832">
        <ele>59.7391</ele>
        <time>2014-05-23T18:19:42Z</time>
      </trkpt>
      <trkpt lat="60.0019351" lon="17.7353346">
        <ele>58.7777</ele>
        <time>2014-05-23T18:19:43Z</time>
      </trkpt>
      <trkpt lat="60.0019523" lon="17.7352888">
        <ele>57.3358</ele>
        <time>2014-05-23T18:19:44Z</time>
      </trkpt>
      <trkpt lat="60.0019678" lon="17.7352479">
        <ele>55.4131</ele>
        <time>2014-05-23T18:19:45Z</time>
      </trkpt>
      <trkpt lat="60.0019819" lon="17.7352076">
        <ele>53.9712</ele>
        <time>2014-05-23T18:19:46Z</time>
      </trkpt>
      <trkpt lat="60.0019967" lon="17.7351563">
        <ele>52.5292</ele>
        <time>2014-05-23T18:19:47Z</time>
      </trkpt>
      <trkpt lat="60.0020192" lon="17.7351041">
        <ele>51.0872</ele>
        <time>2014-05-23T18:19:48Z</time>
      </trkpt>
      <trkpt lat="60.0020352" lon="17.7350554">
        <ele>49.6453</ele>
        <time>2014-05-23T18:19:49Z</time>
      </trkpt>
      <trkpt lat="60.0020373" lon="17.7349963">
        <ele>47.2418</ele>
        <time>2014-05-23T18:19:50Z</time>
      </trkpt>
      <trkpt lat="60.0020529" lon="17.7349409">
        <ele>46.7612</ele>
        <time>2014-05-23T18:19:51Z</time>
      </trkpt>
      <trkpt lat="60.0020703" lon="17.7348964">
        <ele>47.2418</ele>
        <time>2014-05-23T18:19:52Z</time>
      </trkpt>
      <trkpt lat="60.002084" lon="17.7348532">
        <ele>47.2418</ele>
        <time>2014-05-23T18:19:53Z</time>
      </trkpt>
      <trkpt lat="60.0020942" lon="17.7348016">
        <ele>46.7612</ele>
        <time>2014-05-23T18:19:54Z</time>
      </trkpt>
      <trkpt lat="60.0021035" lon="17.7347425">
        <ele>45.7999</ele>
        <time>2014-05-23T18:19:55Z</time>
      </trkpt>
      <trkpt lat="60.0021103" lon="17.7346838">
        <ele>45.3192</ele>
        <time>2014-05-23T18:19:56Z</time>
      </trkpt>
      <trkpt lat="60.0021118" lon="17.7346212">
        <ele>43.8773</ele>
        <time>2014-05-23T18:19:57Z</time>
      </trkpt>
      <trkpt lat="60.0021158" lon="17.7345561">
        <ele>43.3966</ele>
        <time>2014-05-23T18:19:58Z</time>
      </trkpt>
      <trkpt lat="60.0021222" lon="17.734496">
        <ele>43.3966</ele>
        <time>2014-05-23T18:19:59Z</time>
      </trkpt>
      <trkpt lat="60.0021283" lon="17.7344363">
        <ele>42.916</ele>
        <time>2014-05-23T18:20:00Z</time>
      </trkpt>
      <trkpt lat="60.0021341" lon="17.7343782">
        <ele>42.916</ele>
        <time>2014-05-23T18:20:01Z</time>
      </trkpt>
      <trkpt lat="60.0021437" lon="17.7343228">
        <ele>42.916</ele>
        <time>2014-05-23T18:20:02Z</time>
      </trkpt>
      <trkpt lat="60.0021609" lon="17.7342756">
        <ele>41.9547</ele>
        <time>2014-05-23T18:20:03Z</time>
      </trkpt>
      <trkpt lat="60.0021792" lon="17.7342265">
        <ele>41.474</ele>
        <time>2014-05-23T18:20:04Z</time>
      </trkpt>
      <trkpt lat="60.0021899" lon="17.7341736">
        <ele>40.9934</ele>
        <time>2014-05-23T18:20:05Z</time>
      </trkpt>
      <trkpt lat="60.0022002" lon="17.7341197">
        <ele>41.474</ele>
        <time>2014-05-23T18:20:06Z</time>
      </trkpt>
      <trkpt lat="60.0022092" lon="17.7340628">
        <ele>41.474</ele>
        <time>2014-05-23T18:20:07Z</time>
      </trkpt>
      <trkpt lat="60.0022163" lon="17.7340084">
        <ele>41.474</ele>
        <time>2014-05-23T18:20:08Z</time>
      </trkpt>
      <trkpt lat="60.0022264" lon="17.7339576">
        <ele>41.9547</ele>
        <time>2014-05-23T18:20:09Z</time>
      </trkpt>
      <trkpt lat="60.0022381" lon="17.7339137">
        <ele>41.9547</ele>
        <time>2014-05-23T18:20:10Z</time>
      </trkpt>
      <trkpt lat="60.002246" lon="17.7338732">
        <ele>42.4354</ele>
        <time>2014-05-23T18:20:11Z</time>
      </trkpt>
      <trkpt lat="60.0022527" lon="17.7338219">
        <ele>41.9547</ele>
        <time>2014-05-23T18:20:12Z</time>
      </trkpt>
      <trkpt lat="60.0022601" lon="17.7337655">
        <ele>41.474</ele>
        <time>2014-05-23T18:20:13Z</time>
      </trkpt>
      <trkpt lat="60.0022631" lon="17.7337116">
        <ele>40.9934</ele>
        <time>2014-05-23T18:20:14Z</time>
      </trkpt>
      <trkpt lat="60.0022691" lon="17.7336649">
        <ele>40.5128</ele>
        <time>2014-05-23T18:20:15Z</time>
      </trkpt>
      <trkpt lat="60.0022714" lon="17.7336133">
        <ele>40.0321</ele>
        <time>2014-05-23T18:20:16Z</time>
      </trkpt>
      <trkpt lat="60.0022693" lon="17.7335677">
        <ele>39.5513</ele>
        <time>2014-05-23T18:20:17Z</time>
      </trkpt>
      <trkpt lat="60.0022634" lon="17.7335229">
        <ele>39.0707</ele>
        <time>2014-05-23T18:20:18Z</time>
      </trkpt>
      <trkpt lat="60.0022641" lon="17.7334738">
        <ele>39.0707</ele>
        <time>2014-05-23T18:20:19Z</time>
      </trkpt>
      <trkpt lat="60.0022683" lon="17.7334226">
        <ele>38.1094</ele>
        <time>2014-05-23T18:20:20Z</time>
      </trkpt>
      <trkpt lat="60.0022691" lon="17.7333667">
        <ele>38.5901</ele>
        <time>2014-05-23T18:20:21Z</time>
      </trkpt>
      <trkpt lat="60.0022589" lon="17.7333087">
        <ele>38.1094</ele>
        <time>2014-05-23T18:20:22Z</time>
      </trkpt>
      <trkpt lat="60.0022507" lon="17.73325">
        <ele>38.1094</ele>
        <time>2014-05-23T18:20:23Z</time>
      </trkpt>
      <trkpt lat="60.0022429" lon="17.73319">
        <ele>38.5901</ele>
        <time>2014-05-23T18:20:24Z</time>
      </trkpt>
      <trkpt lat="60.0022339" lon="17.7331313">
        <ele>38.5901</ele>
        <time>2014-05-23T18:20:25Z</time>
      </trkpt>
      <trkpt lat="60.0022176" lon="17.7330745">
        <ele>38.5901</ele>
        <time>2014-05-23T18:20:26Z</time>
      </trkpt>
      <trkpt lat="60.0022029" lon="17.7330173">
        <ele>39.0707</ele>
        <time>2014-05-23T18:20:27Z</time>
      </trkpt>
      <trkpt lat="60.0021878" lon="17.7329562">
        <ele>39.5513</ele>
        <time>2014-05-23T18:20:28Z</time>
      </trkpt>
      <trkpt lat="60.0021785" lon="17.7328978">
        <ele>40.5128</ele>
        <time>2014-05-23T18:20:29Z</time>
      </trkpt>
      <trkpt lat="60.0021693" lon="17.7328417">
        <ele>40.0321</ele>
        <time>2014-05-23T18:20:30Z</time>
      </trkpt>
      <trkpt lat="60.0021667" lon="17.7327876">
        <ele>40.0321</ele>
        <time>2014-05-23T18:20:31Z</time>
      </trkpt>
      <trkpt lat="60.0021605" lon="17.7327404">
        <ele>39.5513</ele>
        <time>2014-05-23T18:20:32Z</time>
      </trkpt>
      <trkpt lat="60.0021648" lon="17.7327025">
        <ele>40.0321</ele>
        <time>2014-05-23T18:20:33Z</time>
      </trkpt>
      <trkpt lat="60.002174" lon="17.73266">
        <ele>41.474</ele>
        <time>2014-05-23T18:20:34Z</time>
      </trkpt>
      <trkpt lat="60.0021828" lon="17.7326138">
        <ele>41.474</ele>
        <time>2014-05-23T18:20:35Z</time>
      </trkpt>
      <trkpt lat="60.002195" lon="17.7325632">
        <ele>41.474</ele>
        <time>2014-05-23T18:20:36Z</time>
      </trkpt>
      <trkpt lat="60.0022054" lon="17.7325188">
        <ele>41.474</ele>
        <time>2014-05-23T18:20:37Z</time>
      </trkpt>
      <trkpt lat="60.0022218" lon="17.7324797">
        <ele>43.3966</ele>
        <time>2014-05-23T18:20:38Z</time>
      </trkpt>
      <trkpt lat="60.002244" lon="17.7324389">
        <ele>45.7999</ele>
        <time>2014-05-23T18:20:39Z</time>
      </trkpt>
      <trkpt lat="60.0022527" lon="17.7323913">
        <ele>46.2806</ele>
        <time>2014-05-23T18:20:40Z</time>
      </trkpt>
      <trkpt lat="60.0022619" lon="17.7323316">
        <ele>46.7612</ele>
        <time>2014-05-23T18:20:41Z</time>
      </trkpt>
      <trkpt lat="60.0022703" lon="17.7322633">
        <ele>48.2034</ele>
        <time>2014-05-23T18:20:42Z</time>
      </trkpt>
      <trkpt lat="60.002281" lon="17.732199">
        <ele>50.6066</ele>
        <time>2014-05-23T18:20:43Z</time>
      </trkpt>
      <trkpt lat="60.0023009" lon="17.7321388">
        <ele>54.4518</ele>
        <time>2014-05-23T18:20:44Z</time>
      </trkpt>
      <trkpt lat="60.0023088" lon="17.7320789">
        <ele>55.4131</ele>
        <time>2014-05-23T18:20:45Z</time>
      </trkpt>
      <trkpt lat="60.0023145" lon="17.7320151">
        <ele>56.3745</ele>
        <time>2014-05-23T18:20:46Z</time>
      </trkpt>
      <trkpt lat="60.0023251" lon="17.7319494">
        <ele>57.8165</ele>
        <time>2014-05-23T18:20:47Z</time>
      </trkpt>
      <trkpt lat="60.0023392" lon="17.7318856">
        <ele>58.7777</ele>
        <time>2014-05-23T18:20:48Z</time>
      </trkpt>
      <trkpt lat="60.0023603" lon="17.7318451">
        <ele>60.2197</ele>
        <time>2014-05-23T18:20:49Z</time>
      </trkpt>
      <trkpt lat="60.0023779" lon="17.7317989">
        <ele>59.2584</ele>
        <time>2014-05-23T18:20:50Z</time>
      </trkpt>
      <trkpt lat="60.0023877" lon="17.7317462">
        <ele>57.3358</ele>
        <time>2014-05-23T18:20:51Z</time>
      </trkpt>
      <trkpt lat="60.0023917" lon="17.7316959">
        <ele>54.4518</ele>
        <time>2014-05-23T18:20:52Z</time>
      </trkpt>
      <trkpt lat="60.002394" lon="17.7316453">
        <ele>51.0872</ele>
        <time>2014-05-23T18:20:53Z</time>
      </trkpt>
      <trkpt lat="60.0023992" lon="17.7315938">
        <ele>48.684</ele>
        <time>2014-05-23T18:20:54Z</time>
      </trkpt>
      <trkpt lat="60.0024022" lon="17.7315412">
        <ele>45.7999</ele>
        <time>2014-05-23T18:20:55Z</time>
      </trkpt>
      <trkpt lat="60.0024179" lon="17.731492">
        <ele>44.8386</ele>
        <time>2014-05-23T18:20:56Z</time>
      </trkpt>
      <trkpt lat="60.0024253" lon="17.7314417">
        <ele>42.916</ele>
        <time>2014-05-23T18:20:57Z</time>
      </trkpt>
      <trkpt lat="60.002436" lon="17.7313956">
        <ele>40.5128</ele>
        <time>2014-05-23T18:20:58Z</time>
      </trkpt>
      <trkpt lat="60.0024466" lon="17.7313483">
        <ele>39.0707</ele>
        <time>2014-05-23T18:20:59Z</time>
      </trkpt>
      <trkpt lat="60.0024588" lon="17.7312991">
        <ele>37.1481</ele>
        <time>2014-05-23T18:21:00Z</time>
      </trkpt>
      <trkpt lat="60.0024784" lon="17.7312511">
        <ele>37.1481</ele>
        <time>2014-05-23T18:21:01Z</time>
      </trkpt>
      <trkpt lat="60.0024851" lon="17.7312034">
        <ele>35.7061</ele>
        <time>2014-05-23T18:21:02Z</time>
      </trkpt>
      <trkpt lat="60.0025022" lon="17.7311528">
        <ele>36.1868</ele>
        <time>2014-05-23T18:21:03Z</time>
      </trkpt>
      <trkpt lat="60.0025252" lon="17.7311111">
        <ele>36.6675</ele>
        <time>2014-05-23T18:21:04Z</time>
      </trkpt>
      <trkpt lat="60.0025465" lon="17.7310777">
        <ele>36.6675</ele>
        <time>2014-05-23T18:21:05Z</time>
      </trkpt>
      <trkpt lat="60.0025687" lon="17.7310418">
        <ele>35.2255</ele>
        <time>2014-05-23T18:21:06Z</time>
      </trkpt>
      <trkpt lat="60.0025812" lon="17.7310034">
        <ele>33.3029</ele>
        <time>2014-05-23T18:21:07Z</time>
      </trkpt>
      <trkpt lat="60.0025946" lon="17.7309672">
        <ele>32.8223</ele>
        <time>2014-05-23T18:21:08Z</time>
      </trkpt>
      <trkpt lat="60.0026094" lon="17.730929">
        <ele>31.8607</ele>
        <time>2014-05-23T18:21:09Z</time>
      </trkpt>
      <trkpt lat="60.0026278" lon="17.7308849">
        <ele>32.3416</ele>
        <time>2014-05-23T18:21:10Z</time>
      </trkpt>
      <trkpt lat="60.0026426" lon="17.7308442">
        <ele>31.8607</ele>
        <time>2014-05-23T18:21:11Z</time>
      </trkpt>
      <trkpt lat="60.0026537" lon="17.7308085">
        <ele>30.4188</ele>
        <time>2014-05-23T18:21:12Z</time>
      </trkpt>
      <trkpt lat="60.0026631" lon="17.7307705">
        <ele>29.9381</ele>
        <time>2014-05-23T18:21:13Z</time>
      </trkpt>
      <trkpt lat="60.0026719" lon="17.7307319">
        <ele>29.4575</ele>
        <time>2014-05-23T18:21:14Z</time>
      </trkpt>
      <trkpt lat="60.0026874" lon="17.7306973">
        <ele>29.4575</ele>
        <time>2014-05-23T18:21:15Z</time>
      </trkpt>
      <trkpt lat="60.0027112" lon="17.7306667">
        <ele>29.9381</ele>
        <time>2014-05-23T18:21:16Z</time>
      </trkpt>
      <trkpt lat="60.0027359" lon="17.7306288">
        <ele>29.4575</ele>
        <time>2014-05-23T18:21:17Z</time>
      </trkpt>
      <trkpt lat="60.0027578" lon="17.7305957">
        <ele>30.8995</ele>
        <time>2014-05-23T18:21:18Z</time>
      </trkpt>
      <trkpt lat="60.002777" lon="17.7305602">
        <ele>31.8607</ele>
        <time>2014-05-23T18:21:19Z</time>
      </trkpt>
      <trkpt lat="60.0028008" lon="17.7305202">
        <ele>31.8607</ele>
        <time>2014-05-23T18:21:20Z</time>
      </trkpt>
      <trkpt lat="60.0028241" lon="17.7304847">
        <ele>32.8223</ele>
        <time>2014-05-23T18:21:21Z</time>
      </trkpt>
      <trkpt lat="60.0028455" lon="17.7304502">
        <ele>32.8223</ele>
        <time>2014-05-23T18:21:22Z</time>
      </trkpt>
      <trkpt lat="60.0028733" lon="17.7304211">
        <ele>33.7834</ele>
        <time>2014-05-23T18:21:23Z</time>
      </trkpt>
      <trkpt lat="60.0029034" lon="17.7303903">
        <ele>35.2255</ele>
        <time>2014-05-23T18:21:24Z</time>
      </trkpt>
      <trkpt lat="60.0029335" lon="17.7303612">
        <ele>36.1868</ele>
        <time>2014-05-23T18:21:25Z</time>
      </trkpt>
      <trkpt lat="60.0029619" lon="17.7303325">
        <ele>36.6675</ele>
        <time>2014-05-23T18:21:26Z</time>
      </trkpt>
      <trkpt lat="60.0029902" lon="17.7303026">
        <ele>37.1481</ele>
        <time>2014-05-23T18:21:27Z</time>
      </trkpt>
      <trkpt lat="60.0030168" lon="17.7302682">
        <ele>38.1094</ele>
        <time>2014-05-23T18:21:28Z</time>
      </trkpt>
      <trkpt lat="60.0030396" lon="17.7302367">
        <ele>39.0707</ele>
        <time>2014-05-23T18:21:29Z</time>
      </trkpt>
      <trkpt lat="60.0030686" lon="17.7302063">
        <ele>40.5128</ele>
        <time>2014-05-23T18:21:30Z</time>
      </trkpt>
      <trkpt lat="60.0030975" lon="17.7301752">
        <ele>41.474</ele>
        <time>2014-05-23T18:21:31Z</time>
      </trkpt>
      <trkpt lat="60.0031189" lon="17.7301405">
        <ele>41.474</ele>
        <time>2014-05-23T18:21:32Z</time>
      </trkpt>
      <trkpt lat="60.0031469" lon="17.730109">
        <ele>42.916</ele>
        <time>2014-05-23T18:21:33Z</time>
      </trkpt>
      <trkpt lat="60.0031751" lon="17.7300766">
        <ele>43.3966</ele>
        <time>2014-05-23T18:21:34Z</time>
      </trkpt>
      <trkpt lat="60.0032003" lon="17.7300393">
        <ele>44.8386</ele>
        <time>2014-05-23T18:21:35Z</time>
      </trkpt>
      <trkpt lat="60.0032257" lon="17.7300017">
        <ele>45.7999</ele>
        <time>2014-05-23T18:21:36Z</time>
      </trkpt>
      <trkpt lat="60.0032509" lon="17.729966">
        <ele>46.7612</ele>
        <time>2014-05-23T18:21:37Z</time>
      </trkpt>
      <trkpt lat="60.003271" lon="17.7299294">
        <ele>47.2418</ele>
        <time>2014-05-23T18:21:38Z</time>
      </trkpt>
      <trkpt lat="60.0032934" lon="17.7298886">
        <ele>47.7225</ele>
        <time>2014-05-23T18:21:39Z</time>
      </trkpt>
      <trkpt lat="60.0033161" lon="17.7298484">
        <ele>48.2034</ele>
        <time>2014-05-23T18:21:40Z</time>
      </trkpt>
      <trkpt lat="60.0033407" lon="17.7298114">
        <ele>49.6453</ele>
        <time>2014-05-23T18:21:41Z</time>
      </trkpt>
      <trkpt lat="60.0033623" lon="17.7297785">
        <ele>50.126</ele>
        <time>2014-05-23T18:21:42Z</time>
      </trkpt>
      <trkpt lat="60.0033819" lon="17.7297433">
        <ele>49.6453</ele>
        <time>2014-05-23T18:21:43Z</time>
      </trkpt>
      <trkpt lat="60.0034006" lon="17.7297094">
        <ele>49.1646</ele>
        <time>2014-05-23T18:21:44Z</time>
      </trkpt>
      <trkpt lat="60.0034105" lon="17.7296808">
        <ele>48.684</ele>
        <time>2014-05-23T18:21:45Z</time>
      </trkpt>
      <trkpt lat="60.0034218" lon="17.7296531">
        <ele>48.684</ele>
        <time>2014-05-23T18:21:46Z</time>
      </trkpt>
      <trkpt lat="60.0034333" lon="17.7296153">
        <ele>48.2034</ele>
        <time>2014-05-23T18:21:47Z</time>
      </trkpt>
      <trkpt lat="60.0034484" lon="17.729566">
        <ele>48.2034</ele>
        <time>2014-05-23T18:21:48Z</time>
      </trkpt>
      <trkpt lat="60.0034705" lon="17.7295132">
        <ele>47.2418</ele>
        <time>2014-05-23T18:21:49Z</time>
      </trkpt>
      <trkpt lat="60.0034966" lon="17.7294793">
        <ele>47.7225</ele>
        <time>2014-05-23T18:21:50Z</time>
      </trkpt>
      <trkpt lat="60.0035224" lon="17.7294572">
        <ele>46.7612</ele>
        <time>2014-05-23T18:21:51Z</time>
      </trkpt>
      <trkpt lat="60.0035492" lon="17.7294316">
        <ele>45.7999</ele>
        <time>2014-05-23T18:21:52Z</time>
      </trkpt>
      <trkpt lat="60.0035685" lon="17.7293997">
        <ele>44.8386</ele>
        <time>2014-05-23T18:21:53Z</time>
      </trkpt>
      <trkpt lat="60.0035926" lon="17.7293669">
        <ele>45.3192</ele>
        <time>2014-05-23T18:21:54Z</time>
      </trkpt>
      <trkpt lat="60.0036152" lon="17.7293289">
        <ele>44.8386</ele>
        <time>2014-05-23T18:21:55Z</time>
      </trkpt>
      <trkpt lat="60.0036353" lon="17.7292909">
        <ele>44.8386</ele>
        <time>2014-05-23T18:21:56Z</time>
      </trkpt>
      <trkpt lat="60.0036611" lon="17.7292618">
        <ele>43.8773</ele>
        <time>2014-05-23T18:21:57Z</time>
      </trkpt>
      <trkpt lat="60.003685" lon="17.7292309">
        <ele>42.916</ele>
        <time>2014-05-23T18:21:58Z</time>
      </trkpt>
      <trkpt lat="60.0037062" lon="17.729193">
        <ele>42.4354</ele>
        <time>2014-05-23T18:21:59Z</time>
      </trkpt>
      <trkpt lat="60.0037336" lon="17.7291576">
        <ele>41.9547</ele>
        <time>2014-05-23T18:22:00Z</time>
      </trkpt>
      <trkpt lat="60.0037677" lon="17.7291319">
        <ele>42.916</ele>
        <time>2014-05-23T18:22:01Z</time>
      </trkpt>
      <trkpt lat="60.0037907" lon="17.7290985">
        <ele>43.3966</ele>
        <time>2014-05-23T18:22:02Z</time>
      </trkpt>
      <trkpt lat="60.0038084" lon="17.7290595">
        <ele>42.916</ele>
        <time>2014-05-23T18:22:03Z</time>
      </trkpt>
      <trkpt lat="60.0038309" lon="17.7290221">
        <ele>42.916</ele>
        <time>2014-05-23T18:22:04Z</time>
      </trkpt>
      <trkpt lat="60.0038485" lon="17.7289801">
        <ele>42.4354</ele>
        <time>2014-05-23T18:22:05Z</time>
      </trkpt>
      <trkpt lat="60.0038678" lon="17.7289381">
        <ele>42.4354</ele>
        <time>2014-05-23T18:22:06Z</time>
      </trkpt>
      <trkpt lat="60.0038907" lon="17.7288988">
        <ele>41.9547</ele>
        <time>2014-05-23T18:22:07Z</time>
      </trkpt>
      <trkpt lat="60.0039113" lon="17.728861">
        <ele>42.4354</ele>
        <time>2014-05-23T18:22:08Z</time>
      </trkpt>
      <trkpt lat="60.0039289" lon="17.7288276">
        <ele>42.4354</ele>
        <time>2014-05-23T18:22:09Z</time>
      </trkpt>
      <trkpt lat="60.0039467" lon="17.7287932">
        <ele>42.4354</ele>
        <time>2014-05-23T18:22:10Z</time>
      </trkpt>
      <trkpt lat="60.003968" lon="17.7287599">
        <ele>43.3966</ele>
        <time>2014-05-23T18:22:11Z</time>
      </trkpt>
      <trkpt lat="60.0039861" lon="17.7287249">
        <ele>43.3966</ele>
        <time>2014-05-23T18:22:12Z</time>
      </trkpt>
      <trkpt lat="60.0040051" lon="17.7286831">
        <ele>43.8773</ele>
        <time>2014-05-23T18:22:13Z</time>
      </trkpt>
      <trkpt lat="60.0040233" lon="17.7286432">
        <ele>43.3966</ele>
        <time>2014-05-23T18:22:14Z</time>
      </trkpt>
      <trkpt lat="60.004043" lon="17.7286028">
        <ele>43.8773</ele>
        <time>2014-05-23T18:22:15Z</time>
      </trkpt>
      <trkpt lat="60.0040734" lon="17.7285714">
        <ele>45.3192</ele>
        <time>2014-05-23T18:22:16Z</time>
      </trkpt>
      <trkpt lat="60.004112" lon="17.7285565">
        <ele>49.1646</ele>
        <time>2014-05-23T18:22:17Z</time>
      </trkpt>
      <trkpt lat="60.0041383" lon="17.7285741">
        <ele>51.0872</ele>
        <time>2014-05-23T18:22:18Z</time>
      </trkpt>
      <trkpt lat="60.0041479" lon="17.7286288">
        <ele>50.6066</ele>
        <time>2014-05-23T18:22:19Z</time>
      </trkpt>
      <trkpt lat="60.0041487" lon="17.7286936">
        <ele>49.1646</ele>
        <time>2014-05-23T18:22:20Z</time>
      </trkpt>
      <trkpt lat="60.0041431" lon="17.7287595">
        <ele>47.7225</ele>
        <time>2014-05-23T18:22:21Z</time>
      </trkpt>
      <trkpt lat="60.0041262" lon="17.7288152">
        <ele>46.2806</ele>
        <time>2014-05-23T18:22:22Z</time>
      </trkpt>
      <trkpt lat="60.0041109" lon="17.7288572">
        <ele>46.2806</ele>
        <time>2014-05-23T18:22:23Z</time>
      </trkpt>
      <trkpt lat="60.0040895" lon="17.7288834">
        <ele>45.3192</ele>
        <time>2014-05-23T18:22:24Z</time>
      </trkpt>
      <trkpt lat="60.0040591" lon="17.728908">
        <ele>44.358</ele>
        <time>2014-05-23T18:22:25Z</time>
      </trkpt>
      <trkpt lat="60.0040265" lon="17.7289391">
        <ele>43.3966</ele>
        <time>2014-05-23T18:22:26Z</time>
      </trkpt>
      <trkpt lat="60.0039939" lon="17.7289797">
        <ele>42.4354</ele>
        <time>2014-05-23T18:22:27Z</time>
      </trkpt>
      <trkpt lat="60.0039621" lon="17.729023">
        <ele>42.916</ele>
        <time>2014-05-23T18:22:28Z</time>
      </trkpt>
      <trkpt lat="60.0039262" lon="17.729059">
        <ele>42.916</ele>
        <time>2014-05-23T18:22:29Z</time>
      </trkpt>
      <trkpt lat="60.003885" lon="17.7290879">
        <ele>42.916</ele>
        <time>2014-05-23T18:22:30Z</time>
      </trkpt>
      <trkpt lat="60.0038524" lon="17.7291069">
        <ele>41.9547</ele>
        <time>2014-05-23T18:22:31Z</time>
      </trkpt>
      <trkpt lat="60.0038322" lon="17.729137">
        <ele>41.9547</ele>
        <time>2014-05-23T18:22:32Z</time>
      </trkpt>
      <trkpt lat="60.0037949" lon="17.7291615">
        <ele>41.474</ele>
        <time>2014-05-23T18:22:33Z</time>
      </trkpt>
      <trkpt lat="60.0037646" lon="17.7291846">
        <ele>40.5128</ele>
        <time>2014-05-23T18:22:34Z</time>
      </trkpt>
      <trkpt lat="60.0037401" lon="17.7292118">
        <ele>40.0321</ele>
        <time>2014-05-23T18:22:35Z</time>
      </trkpt>
      <trkpt lat="60.003716" lon="17.7292441">
        <ele>40.0321</ele>
        <time>2014-05-23T18:22:36Z</time>
      </trkpt>
      <trkpt lat="60.003699" lon="17.7292923">
        <ele>40.0321</ele>
        <time>2014-05-23T18:22:37Z</time>
      </trkpt>
      <trkpt lat="60.0036805" lon="17.7293354">
        <ele>40.0321</ele>
        <time>2014-05-23T18:22:38Z</time>
      </trkpt>
      <trkpt lat="60.0036628" lon="17.7293754">
        <ele>39.5513</ele>
        <time>2014-05-23T18:22:39Z</time>
      </trkpt>
      <trkpt lat="60.003648" lon="17.729424">
        <ele>39.0707</ele>
        <time>2014-05-23T18:22:40Z</time>
      </trkpt>
      <trkpt lat="60.0036348" lon="17.7294738">
        <ele>39.0707</ele>
        <time>2014-05-23T18:22:41Z</time>
      </trkpt>
      <trkpt lat="60.0036131" lon="17.7295152">
        <ele>39.0707</ele>
        <time>2014-05-23T18:22:42Z</time>
      </trkpt>
      <trkpt lat="60.0035839" lon="17.7295459">
        <ele>39.0707</ele>
        <time>2014-05-23T18:22:43Z</time>
      </trkpt>
      <trkpt lat="60.0035657" lon="17.7295821">
        <ele>38.5901</ele>
        <time>2014-05-23T18:22:44Z</time>
      </trkpt>
      <trkpt lat="60.0035478" lon="17.7296115">
        <ele>38.5901</ele>
        <time>2014-05-23T18:22:45Z</time>
      </trkpt>
      <trkpt lat="60.0035192" lon="17.729637">
        <ele>37.6287</ele>
        <time>2014-05-23T18:22:46Z</time>
      </trkpt>
      <trkpt lat="60.0035074" lon="17.7296844">
        <ele>38.5901</ele>
        <time>2014-05-23T18:22:47Z</time>
      </trkpt>
      <trkpt lat="60.0034897" lon="17.7297235">
        <ele>39.0707</ele>
        <time>2014-05-23T18:22:48Z</time>
      </trkpt>
      <trkpt lat="60.0034763" lon="17.7297535">
        <ele>39.0707</ele>
        <time>2014-05-23T18:22:49Z</time>
      </trkpt>
      <trkpt lat="60.0034671" lon="17.7297965">
        <ele>40.0321</ele>
        <time>2014-05-23T18:22:50Z</time>
      </trkpt>
      <trkpt lat="60.0034502" lon="17.7298438">
        <ele>40.0321</ele>
        <time>2014-05-23T18:22:51Z</time>
      </trkpt>
      <trkpt lat="60.0034279" lon="17.7298771">
        <ele>40.0321</ele>
        <time>2014-05-23T18:22:52Z</time>
      </trkpt>
      <trkpt lat="60.0034032" lon="17.7299137">
        <ele>40.0321</ele>
        <time>2014-05-23T18:22:53Z</time>
      </trkpt>
      <trkpt lat="60.0033727" lon="17.7299462">
        <ele>40.0321</ele>
        <time>2014-05-23T18:22:54Z</time>
      </trkpt>
      <trkpt lat="60.0033451" lon="17.7299861">
        <ele>40.0321</ele>
        <time>2014-05-23T18:22:55Z</time>
      </trkpt>
      <trkpt lat="60.0033174" lon="17.7300227">
        <ele>40.5128</ele>
        <time>2014-05-23T18:22:56Z</time>
      </trkpt>
      <trkpt lat="60.0032934" lon="17.7300556">
        <ele>40.0321</ele>
        <time>2014-05-23T18:22:57Z</time>
      </trkpt>
      <trkpt lat="60.00328" lon="17.7300932">
        <ele>40.0321</ele>
        <time>2014-05-23T18:22:58Z</time>
      </trkpt>
      <trkpt lat="60.003265" lon="17.7301249">
        <ele>39.5513</ele>
        <time>2014-05-23T18:22:59Z</time>
      </trkpt>
      <trkpt lat="60.0032458" lon="17.7301561">
        <ele>40.0321</ele>
        <time>2014-05-23T18:23:00Z</time>
      </trkpt>
      <trkpt lat="60.0032222" lon="17.7301897">
        <ele>40.0321</ele>
        <time>2014-05-23T18:23:01Z</time>
      </trkpt>
      <trkpt lat="60.0031982" lon="17.7302258">
        <ele>40.5128</ele>
        <time>2014-05-23T18:23:02Z</time>
      </trkpt>
      <trkpt lat="60.0031837" lon="17.7302674">
        <ele>41.474</ele>
        <time>2014-05-23T18:23:03Z</time>
      </trkpt>
      <trkpt lat="60.0031541" lon="17.7303011">
        <ele>40.9934</ele>
        <time>2014-05-23T18:23:04Z</time>
      </trkpt>
      <trkpt lat="60.0031314" lon="17.7303363">
        <ele>40.9934</ele>
        <time>2014-05-23T18:23:05Z</time>
      </trkpt>
      <trkpt lat="60.0031089" lon="17.7303647">
        <ele>41.474</ele>
        <time>2014-05-23T18:23:06Z</time>
      </trkpt>
      <trkpt lat="60.0030929" lon="17.7303949">
        <ele>41.9547</ele>
        <time>2014-05-23T18:23:07Z</time>
      </trkpt>
      <trkpt lat="60.0030655" lon="17.7304098">
        <ele>41.9547</ele>
        <time>2014-05-23T18:23:08Z</time>
      </trkpt>
      <trkpt lat="60.0030396" lon="17.7304299">
        <ele>41.9547</ele>
        <time>2014-05-23T18:23:09Z</time>
      </trkpt>
      <trkpt lat="60.003019" lon="17.730469">
        <ele>41.9547</ele>
        <time>2014-05-23T18:23:10Z</time>
      </trkpt>
      <trkpt lat="60.0030006" lon="17.7305072">
        <ele>41.474</ele>
        <time>2014-05-23T18:23:11Z</time>
      </trkpt>
      <trkpt lat="60.0029842" lon="17.7305481">
        <ele>41.9547</ele>
        <time>2014-05-23T18:23:12Z</time>
      </trkpt>
      <trkpt lat="60.0029641" lon="17.730587">
        <ele>41.9547</ele>
        <time>2014-05-23T18:23:13Z</time>
      </trkpt>
      <trkpt lat="60.002937" lon="17.7306279">
        <ele>41.474</ele>
        <time>2014-05-23T18:23:14Z</time>
      </trkpt>
      <trkpt lat="60.0029112" lon="17.7306709">
        <ele>40.9934</ele>
        <time>2014-05-23T18:23:15Z</time>
      </trkpt>
      <trkpt lat="60.0028946" lon="17.7307201">
        <ele>40.9934</ele>
        <time>2014-05-23T18:23:16Z</time>
      </trkpt>
      <trkpt lat="60.0028768" lon="17.7307534">
        <ele>40.9934</ele>
        <time>2014-05-23T18:23:17Z</time>
      </trkpt>
      <trkpt lat="60.0028625" lon="17.7307924">
        <ele>40.9934</ele>
        <time>2014-05-23T18:23:18Z</time>
      </trkpt>
      <trkpt lat="60.0028465" lon="17.7308332">
        <ele>40.9934</ele>
        <time>2014-05-23T18:23:19Z</time>
      </trkpt>
      <trkpt lat="60.0028306" lon="17.730872">
        <ele>40.9934</ele>
        <time>2014-05-23T18:23:20Z</time>
      </trkpt>
      <trkpt lat="60.0028117" lon="17.7309092">
        <ele>41.474</ele>
        <time>2014-05-23T18:23:21Z</time>
      </trkpt>
      <trkpt lat="60.0027893" lon="17.7309464">
        <ele>40.9934</ele>
        <time>2014-05-23T18:23:22Z</time>
      </trkpt>
      <trkpt lat="60.0027755" lon="17.73099">
        <ele>40.9934</ele>
        <time>2014-05-23T18:23:23Z</time>
      </trkpt>
      <trkpt lat="60.0027629" lon="17.7310361">
        <ele>40.9934</ele>
        <time>2014-05-23T18:23:24Z</time>
      </trkpt>
      <trkpt lat="60.0027496" lon="17.7310785">
        <ele>41.474</ele>
        <time>2014-05-23T18:23:25Z</time>
      </trkpt>
      <trkpt lat="60.0027308" lon="17.7311133">
        <ele>41.9547</ele>
        <time>2014-05-23T18:23:26Z</time>
      </trkpt>
      <trkpt lat="60.0027087" lon="17.7311413">
        <ele>40.9934</ele>
        <time>2014-05-23T18:23:27Z</time>
      </trkpt>
      <trkpt lat="60.0026914" lon="17.7311758">
        <ele>41.474</ele>
        <time>2014-05-23T18:23:28Z</time>
      </trkpt>
      <trkpt lat="60.0026809" lon="17.7312076">
        <ele>41.474</ele>
        <time>2014-05-23T18:23:29Z</time>
      </trkpt>
      <trkpt lat="60.0026692" lon="17.7312524">
        <ele>41.9547</ele>
        <time>2014-05-23T18:23:30Z</time>
      </trkpt>
      <trkpt lat="60.0026553" lon="17.7313091">
        <ele>42.4354</ele>
        <time>2014-05-23T18:23:31Z</time>
      </trkpt>
      <trkpt lat="60.0026366" lon="17.7313519">
        <ele>40.9934</ele>
        <time>2014-05-23T18:23:32Z</time>
      </trkpt>
      <trkpt lat="60.0026293" lon="17.7313962">
        <ele>41.474</ele>
        <time>2014-05-23T18:23:33Z</time>
      </trkpt>
      <trkpt lat="60.0026173" lon="17.7314345">
        <ele>41.9547</ele>
        <time>2014-05-23T18:23:34Z</time>
      </trkpt>
      <trkpt lat="60.0025988" lon="17.7314588">
        <ele>41.474</ele>
        <time>2014-05-23T18:23:35Z</time>
      </trkpt>
      <trkpt lat="60.0025737" lon="17.7314774">
        <ele>40.9934</ele>
        <time>2014-05-23T18:23:36Z</time>
      </trkpt>
      <trkpt lat="60.0025563" lon="17.7315111">
        <ele>40.5128</ele>
        <time>2014-05-23T18:23:37Z</time>
      </trkpt>
      <trkpt lat="60.0025408" lon="17.7315541">
        <ele>40.5128</ele>
        <time>2014-05-23T18:23:38Z</time>
      </trkpt>
      <trkpt lat="60.0025288" lon="17.7315976">
        <ele>40.5128</ele>
        <time>2014-05-23T18:23:39Z</time>
      </trkpt>
      <trkpt lat="60.0025194" lon="17.7316432">
        <ele>40.5128</ele>
        <time>2014-05-23T18:23:40Z</time>
      </trkpt>
      <trkpt lat="60.0025024" lon="17.7316816">
        <ele>40.5128</ele>
        <time>2014-05-23T18:23:41Z</time>
      </trkpt>
      <trkpt lat="60.0024877" lon="17.73173">
        <ele>41.474</ele>
        <time>2014-05-23T18:23:42Z</time>
      </trkpt>
      <trkpt lat="60.0024706" lon="17.7317721">
        <ele>41.9547</ele>
        <time>2014-05-23T18:23:43Z</time>
      </trkpt>
      <trkpt lat="60.0024532" lon="17.7318153">
        <ele>41.474</ele>
        <time>2014-05-23T18:23:44Z</time>
      </trkpt>
      <trkpt lat="60.0024397" lon="17.7318544">
        <ele>40.9934</ele>
        <time>2014-05-23T18:23:45Z</time>
      </trkpt>
      <trkpt lat="60.0024277" lon="17.7319079">
        <ele>40.9934</ele>
        <time>2014-05-23T18:23:46Z</time>
      </trkpt>
      <trkpt lat="60.0024169" lon="17.7319601">
        <ele>40.5128</ele>
        <time>2014-05-23T18:23:47Z</time>
      </trkpt>
      <trkpt lat="60.0024053" lon="17.7320022">
        <ele>40.0321</ele>
        <time>2014-05-23T18:23:48Z</time>
      </trkpt>
      <trkpt lat="60.0023916" lon="17.7320571">
        <ele>40.0321</ele>
        <time>2014-05-23T18:23:49Z</time>
      </trkpt>
      <trkpt lat="60.0023816" lon="17.7320992">
        <ele>40.0321</ele>
        <time>2014-05-23T18:23:50Z</time>
      </trkpt>
      <trkpt lat="60.0023718" lon="17.7321467">
        <ele>39.5513</ele>
        <time>2014-05-23T18:23:51Z</time>
      </trkpt>
      <trkpt lat="60.0023625" lon="17.7322067">
        <ele>39.5513</ele>
        <time>2014-05-23T18:23:52Z</time>
      </trkpt>
      <trkpt lat="60.0023538" lon="17.7322492">
        <ele>39.0707</ele>
        <time>2014-05-23T18:23:53Z</time>
      </trkpt>
      <trkpt lat="60.0023468" lon="17.7322981">
        <ele>39.0707</ele>
        <time>2014-05-23T18:23:54Z</time>
      </trkpt>
      <trkpt lat="60.0023402" lon="17.7323411">
        <ele>39.0707</ele>
        <time>2014-05-23T18:23:55Z</time>
      </trkpt>
      <trkpt lat="60.002333" lon="17.7323814">
        <ele>38.5901</ele>
        <time>2014-05-23T18:23:56Z</time>
      </trkpt>
      <trkpt lat="60.0023247" lon="17.7324222">
        <ele>38.1094</ele>
        <time>2014-05-23T18:23:57Z</time>
      </trkpt>
      <trkpt lat="60.0023162" lon="17.7324605">
        <ele>36.6675</ele>
        <time>2014-05-23T18:23:58Z</time>
      </trkpt>
      <trkpt lat="60.0023106" lon="17.732502">
        <ele>36.1868</ele>
        <time>2014-05-23T18:23:59Z</time>
      </trkpt>
      <trkpt lat="60.0023051" lon="17.7325487">
        <ele>35.7061</ele>
        <time>2014-05-23T18:24:00Z</time>
      </trkpt>
      <trkpt lat="60.0022987" lon="17.7325927">
        <ele>35.7061</ele>
        <time>2014-05-23T18:24:01Z</time>
      </trkpt>
      <trkpt lat="60.0022963" lon="17.7326398">
        <ele>35.7061</ele>
        <time>2014-05-23T18:24:02Z</time>
      </trkpt>
      <trkpt lat="60.0022916" lon="17.7326785">
        <ele>35.2255</ele>
        <time>2014-05-23T18:24:03Z</time>
      </trkpt>
      <trkpt lat="60.0022849" lon="17.7327197">
        <ele>34.7449</ele>
        <time>2014-05-23T18:24:04Z</time>
      </trkpt>
      <trkpt lat="60.0022828" lon="17.7327652">
        <ele>34.2642</ele>
        <time>2014-05-23T18:24:05Z</time>
      </trkpt>
      <trkpt lat="60.0022838" lon="17.7328258">
        <ele>35.7061</ele>
        <time>2014-05-23T18:24:06Z</time>
      </trkpt>
      <trkpt lat="60.0022832" lon="17.7328693">
        <ele>35.7061</ele>
        <time>2014-05-23T18:24:07Z</time>
      </trkpt>
      <trkpt lat="60.0022838" lon="17.7329103">
        <ele>36.1868</ele>
        <time>2014-05-23T18:24:08Z</time>
      </trkpt>
      <trkpt lat="60.0022853" lon="17.7329544">
        <ele>37.1481</ele>
        <time>2014-05-23T18:24:09Z</time>
      </trkpt>
      <trkpt lat="60.0022881" lon="17.7329992">
        <ele>37.1481</ele>
        <time>2014-05-23T18:24:10Z</time>
      </trkpt>
      <trkpt lat="60.0022969" lon="17.7330596">
        <ele>38.1094</ele>
        <time>2014-05-23T18:24:11Z</time>
      </trkpt>
      <trkpt lat="60.0023066" lon="17.7331133">
        <ele>38.5901</ele>
        <time>2014-05-23T18:24:12Z</time>
      </trkpt>
      <trkpt lat="60.0023181" lon="17.7331598">
        <ele>38.5901</ele>
        <time>2014-05-23T18:24:13Z</time>
      </trkpt>
      <trkpt lat="60.0023299" lon="17.7332053">
        <ele>38.5901</ele>
        <time>2014-05-23T18:24:14Z</time>
      </trkpt>
      <trkpt lat="60.0023399" lon="17.7332496">
        <ele>38.5901</ele>
        <time>2014-05-23T18:24:15Z</time>
      </trkpt>
      <trkpt lat="60.002346" lon="17.7332956">
        <ele>39.0707</ele>
        <time>2014-05-23T18:24:16Z</time>
      </trkpt>
      <trkpt lat="60.0023494" lon="17.7333395">
        <ele>39.0707</ele>
        <time>2014-05-23T18:24:17Z</time>
      </trkpt>
      <trkpt lat="60.002345" lon="17.7333863">
        <ele>39.0707</ele>
        <time>2014-05-23T18:24:18Z</time>
      </trkpt>
      <trkpt lat="60.0023409" lon="17.7334376">
        <ele>39.0707</ele>
        <time>2014-05-23T18:24:19Z</time>
      </trkpt>
      <trkpt lat="60.0023381" lon="17.7334861">
        <ele>38.5901</ele>
        <time>2014-05-23T18:24:20Z</time>
      </trkpt>
      <trkpt lat="60.0023367" lon="17.7335359">
        <ele>39.0707</ele>
        <time>2014-05-23T18:24:21Z</time>
      </trkpt>
      <trkpt lat="60.002339" lon="17.7335858">
        <ele>39.5513</ele>
        <time>2014-05-23T18:24:22Z</time>
      </trkpt>
      <trkpt lat="60.0023399" lon="17.7336399">
        <ele>39.0707</ele>
        <time>2014-05-23T18:24:23Z</time>
      </trkpt>
      <trkpt lat="60.0023451" lon="17.7336935">
        <ele>39.0707</ele>
        <time>2014-05-23T18:24:24Z</time>
      </trkpt>
      <trkpt lat="60.0023491" lon="17.7337417">
        <ele>38.5901</ele>
        <time>2014-05-23T18:24:25Z</time>
      </trkpt>
      <trkpt lat="60.0023548" lon="17.7337969">
        <ele>38.1094</ele>
        <time>2014-05-23T18:24:26Z</time>
      </trkpt>
      <trkpt lat="60.002357" lon="17.7338559">
        <ele>38.1094</ele>
        <time>2014-05-23T18:24:27Z</time>
      </trkpt>
      <trkpt lat="60.002349" lon="17.733896">
        <ele>36.6675</ele>
        <time>2014-05-23T18:24:28Z</time>
      </trkpt>
      <trkpt lat="60.0023347" lon="17.7339303">
        <ele>35.2255</ele>
        <time>2014-05-23T18:24:29Z</time>
      </trkpt>
      <trkpt lat="60.0023246" lon="17.7339767">
        <ele>35.2255</ele>
        <time>2014-05-23T18:24:30Z</time>
      </trkpt>
      <trkpt lat="60.0023134" lon="17.7340023">
        <ele>33.7834</ele>
        <time>2014-05-23T18:24:31Z</time>
      </trkpt>
      <trkpt lat="60.0023026" lon="17.7340344">
        <ele>32.8223</ele>
        <time>2014-05-23T18:24:32Z</time>
      </trkpt>
      <trkpt lat="60.0022942" lon="17.7340777">
        <ele>31.8607</ele>
        <time>2014-05-23T18:24:33Z</time>
      </trkpt>
      <trkpt lat="60.0022796" lon="17.7341013">
        <ele>31.3801</ele>
        <time>2014-05-23T18:24:34Z</time>
      </trkpt>
      <trkpt lat="60.0022648" lon="17.7341302">
        <ele>31.3801</ele>
        <time>2014-05-23T18:24:35Z</time>
      </trkpt>
      <trkpt lat="60.0022537" lon="17.7341711">
        <ele>30.8995</ele>
        <time>2014-05-23T18:24:36Z</time>
      </trkpt>
      <trkpt lat="60.002245" lon="17.7342146">
        <ele>31.3801</ele>
        <time>2014-05-23T18:24:37Z</time>
      </trkpt>
      <trkpt lat="60.0022346" lon="17.7342608">
        <ele>31.3801</ele>
        <time>2014-05-23T18:24:38Z</time>
      </trkpt>
      <trkpt lat="60.0022225" lon="17.7343225">
        <ele>31.3801</ele>
        <time>2014-05-23T18:24:39Z</time>
      </trkpt>
      <trkpt lat="60.0022104" lon="17.7343753">
        <ele>30.8995</ele>
        <time>2014-05-23T18:24:40Z</time>
      </trkpt>
      <trkpt lat="60.0021999" lon="17.7344188">
        <ele>31.3801</ele>
        <time>2014-05-23T18:24:41Z</time>
      </trkpt>
      <trkpt lat="60.0021901" lon="17.7344545">
        <ele>31.3801</ele>
        <time>2014-05-23T18:24:42Z</time>
      </trkpt>
      <trkpt lat="60.00218" lon="17.7344973">
        <ele>31.3801</ele>
        <time>2014-05-23T18:24:43Z</time>
      </trkpt>
      <trkpt lat="60.0021697" lon="17.7345399">
        <ele>31.3801</ele>
        <time>2014-05-23T18:24:44Z</time>
      </trkpt>
      <trkpt lat="60.002161" lon="17.7345845">
        <ele>31.3801</ele>
        <time>2014-05-23T18:24:45Z</time>
      </trkpt>
      <trkpt lat="60.0021522" lon="17.7346337">
        <ele>31.3801</ele>
        <time>2014-05-23T18:24:46Z</time>
      </trkpt>
      <trkpt lat="60.0021441" lon="17.734682">
        <ele>31.3801</ele>
        <time>2014-05-23T18:24:47Z</time>
      </trkpt>
      <trkpt lat="60.0021346" lon="17.7347356">
        <ele>32.3416</ele>
        <time>2014-05-23T18:24:48Z</time>
      </trkpt>
      <trkpt lat="60.0021279" lon="17.7347806">
        <ele>32.8223</ele>
        <time>2014-05-23T18:24:49Z</time>
      </trkpt>
      <trkpt lat="60.0021191" lon="17.7348247">
        <ele>32.8223</ele>
        <time>2014-05-23T18:24:50Z</time>
      </trkpt>
      <trkpt lat="60.0021067" lon="17.7348645">
        <ele>32.8223</ele>
        <time>2014-05-23T18:24:51Z</time>
      </trkpt>
      <trkpt lat="60.0020957" lon="17.7349068">
        <ele>32.3416</ele>
        <time>2014-05-23T18:24:52Z</time>
      </trkpt>
      <trkpt lat="60.0020857" lon="17.7349574">
        <ele>32.8223</ele>
        <time>2014-05-23T18:24:53Z</time>
      </trkpt>
      <trkpt lat="60.0020724" lon="17.7350036">
        <ele>33.3029</ele>
        <time>2014-05-23T18:24:54Z</time>
      </trkpt>
      <trkpt lat="60.0020557" lon="17.7350456">
        <ele>32.8223</ele>
        <time>2014-05-23T18:24:55Z</time>
      </trkpt>
      <trkpt lat="60.0020405" lon="17.7350973">
        <ele>33.3029</ele>
        <time>2014-05-23T18:24:56Z</time>
      </trkpt>
      <trkpt lat="60.0020254" lon="17.7351465">
        <ele>32.8223</ele>
        <time>2014-05-23T18:24:57Z</time>
      </trkpt>
      <trkpt lat="60.0020107" lon="17.7351983">
        <ele>32.8223</ele>
        <time>2014-05-23T18:24:58Z</time>
      </trkpt>
      <trkpt lat="60.0019957" lon="17.73525">
        <ele>33.3029</ele>
        <time>2014-05-23T18:24:59Z</time>
      </trkpt>
      <trkpt lat="60.0019798" lon="17.7352851">
        <ele>32.3416</ele>
        <time>2014-05-23T18:25:00Z</time>
      </trkpt>
      <trkpt lat="60.0019648" lon="17.7353181">
        <ele>31.8607</ele>
        <time>2014-05-23T18:25:01Z</time>
      </trkpt>
      <trkpt lat="60.001945" lon="17.7353655">
        <ele>32.3416</ele>
        <time>2014-05-23T18:25:02Z</time>
      </trkpt>
      <trkpt lat="60.0019285" lon="17.7353894">
        <ele>31.3801</ele>
        <time>2014-05-23T18:25:03Z</time>
      </trkpt>
      <trkpt lat="60.0019125" lon="17.7354175">
        <ele>30.8995</ele>
        <time>2014-05-23T18:25:04Z</time>
      </trkpt>
      <trkpt lat="60.0018957" lon="17.7354532">
        <ele>31.3801</ele>
        <time>2014-05-23T18:25:05Z</time>
      </trkpt>
      <trkpt lat="60.0018751" lon="17.7354796">
        <ele>31.3801</ele>
        <time>2014-05-23T18:25:06Z</time>
      </trkpt>
      <trkpt lat="60.0018552" lon="17.7355126">
        <ele>31.3801</ele>
        <time>2014-05-23T18:25:07Z</time>
      </trkpt>
      <trkpt lat="60.0018355" lon="17.7355449">
        <ele>31.3801</ele>
        <time>2014-05-23T18:25:08Z</time>
      </trkpt>
      <trkpt lat="60.0018138" lon="17.7355801">
        <ele>31.8607</ele>
        <time>2014-05-23T18:25:09Z</time>
      </trkpt>
      <trkpt lat="60.0017947" lon="17.7356158">
        <ele>32.3416</ele>
        <time>2014-05-23T18:25:10Z</time>
      </trkpt>
      <trkpt lat="60.0017781" lon="17.7356447">
        <ele>32.3416</ele>
        <time>2014-05-23T18:25:11Z</time>
      </trkpt>
      <trkpt lat="60.0017611" lon="17.7356666">
        <ele>32.3416</ele>
        <time>2014-05-23T18:25:12Z</time>
      </trkpt>
      <trkpt lat="60.001743" lon="17.7356938">
        <ele>32.3416</ele>
        <time>2014-05-23T18:25:13Z</time>
      </trkpt>
      <trkpt lat="60.0017248" lon="17.7357159">
        <ele>32.3416</ele>
        <time>2014-05-23T18:25:14Z</time>
      </trkpt>
      <trkpt lat="60.0017031" lon="17.7357372">
        <ele>32.8223</ele>
        <time>2014-05-23T18:25:15Z</time>
      </trkpt>
      <trkpt lat="60.0016827" lon="17.7357596">
        <ele>33.3029</ele>
        <time>2014-05-23T18:25:16Z</time>
      </trkpt>
      <trkpt lat="60.0016622" lon="17.7357758">
        <ele>33.3029</ele>
        <time>2014-05-23T18:25:17Z</time>
      </trkpt>
      <trkpt lat="60.0016461" lon="17.7357988">
        <ele>33.3029</ele>
        <time>2014-05-23T18:25:18Z</time>
      </trkpt>
      <trkpt lat="60.001628" lon="17.7358237">
        <ele>33.3029</ele>
        <time>2014-05-23T18:25:19Z</time>
      </trkpt>
      <trkpt lat="60.0016079" lon="17.7358527">
        <ele>33.3029</ele>
        <time>2014-05-23T18:25:20Z</time>
      </trkpt>
      <trkpt lat="60.0015913" lon="17.7358763">
        <ele>34.2642</ele>
        <time>2014-05-23T18:25:21Z</time>
      </trkpt>
      <trkpt lat="60.0015762" lon="17.7359005">
        <ele>34.7449</ele>
        <time>2014-05-23T18:25:22Z</time>
      </trkpt>
      <trkpt lat="60.0015606" lon="17.735923">
        <ele>35.7061</ele>
        <time>2014-05-23T18:25:23Z</time>
      </trkpt>
      <trkpt lat="60.0015393" lon="17.7359446">
        <ele>34.7449</ele>
        <time>2014-05-23T18:25:24Z</time>
      </trkpt>
      <trkpt lat="60.0015197" lon="17.735971">
        <ele>34.7449</ele>
        <time>2014-05-23T18:25:25Z</time>
      </trkpt>
      <trkpt lat="60.0015019" lon="17.7359904">
        <ele>33.7834</ele>
        <time>2014-05-23T18:25:26Z</time>
      </trkpt>
      <trkpt lat="60.0014856" lon="17.7360131">
        <ele>33.7834</ele>
        <time>2014-05-23T18:25:27Z</time>
      </trkpt>
      <trkpt lat="60.0014667" lon="17.7360348">
        <ele>34.2642</ele>
        <time>2014-05-23T18:25:28Z</time>
      </trkpt>
      <trkpt lat="60.0014468" lon="17.7360572">
        <ele>34.2642</ele>
        <time>2014-05-23T18:25:29Z</time>
      </trkpt>
      <trkpt lat="60.0014316" lon="17.7360731">
        <ele>34.7449</ele>
        <time>2014-05-23T18:25:30Z</time>
      </trkpt>
      <trkpt lat="60.0014141" lon="17.736096">
        <ele>35.2255</ele>
        <time>2014-05-23T18:25:31Z</time>
      </trkpt>
      <trkpt lat="60.0013952" lon="17.7361157">
        <ele>35.2255</ele>
        <time>2014-05-23T18:25:32Z</time>
      </trkpt>
      <trkpt lat="60.0013738" lon="17.7361379">
        <ele>35.7061</ele>
        <time>2014-05-23T18:25:33Z</time>
      </trkpt>
      <trkpt lat="60.0013509" lon="17.7361633">
        <ele>36.1868</ele>
        <time>2014-05-23T18:25:34Z</time>
      </trkpt>
      <trkpt lat="60.0013268" lon="17.7361889">
        <ele>36.6675</ele>
        <time>2014-05-23T18:25:35Z</time>
      </trkpt>
      <trkpt lat="60.001302" lon="17.7362067">
        <ele>36.6675</ele>
        <time>2014-05-23T18:25:36Z</time>
      </trkpt>
      <trkpt lat="60.0012777" lon="17.7362244">
        <ele>36.6675</ele>
        <time>2014-05-23T18:25:37Z</time>
      </trkpt>
      <trkpt lat="60.001256" lon="17.736245">
        <ele>37.1481</ele>
        <time>2014-05-23T18:25:38Z</time>
      </trkpt>
      <trkpt lat="60.00124" lon="17.7362639">
        <ele>37.6287</ele>
        <time>2014-05-23T18:25:39Z</time>
      </trkpt>
      <trkpt lat="60.0012189" lon="17.7362804">
        <ele>38.1094</ele>
        <time>2014-05-23T18:25:40Z</time>
      </trkpt>
      <trkpt lat="60.0011886" lon="17.7362925">
        <ele>38.1094</ele>
        <time>2014-05-23T18:25:41Z</time>
      </trkpt>
      <trkpt lat="60.0011619" lon="17.7362971">
        <ele>38.5901</ele>
        <time>2014-05-23T18:25:42Z</time>
      </trkpt>
      <trkpt lat="60.0011345" lon="17.7363116">
        <ele>39.0707</ele>
        <time>2014-05-23T18:25:43Z</time>
      </trkpt>
      <trkpt lat="60.0011067" lon="17.7363282">
        <ele>40.0321</ele>
        <time>2014-05-23T18:25:44Z</time>
      </trkpt>
      <trkpt lat="60.0010793" lon="17.7363318">
        <ele>40.5128</ele>
        <time>2014-05-23T18:25:45Z</time>
      </trkpt>
      <trkpt lat="60.0010504" lon="17.7363352">
        <ele>40.5128</ele>
        <time>2014-05-23T18:25:46Z</time>
      </trkpt>
      <trkpt lat="60.0010248" lon="17.7363458">
        <ele>40.5128</ele>
        <time>2014-05-23T18:25:47Z</time>
      </trkpt>
      <trkpt lat="60.0010026" lon="17.7363644">
        <ele>40.9934</ele>
        <time>2014-05-23T18:25:48Z</time>
      </trkpt>
      <trkpt lat="60.0009803" lon="17.7363814">
        <ele>41.474</ele>
        <time>2014-05-23T18:25:49Z</time>
      </trkpt>
      <trkpt lat="60.0009612" lon="17.7363954">
        <ele>42.4354</ele>
        <time>2014-05-23T18:25:50Z</time>
      </trkpt>
      <trkpt lat="60.0009437" lon="17.7364046">
        <ele>42.916</ele>
        <time>2014-05-23T18:25:51Z</time>
      </trkpt>
      <trkpt lat="60.0009277" lon="17.7364193">
        <ele>43.3966</ele>
        <time>2014-05-23T18:25:52Z</time>
      </trkpt>
      <trkpt lat="60.0009064" lon="17.7364368">
        <ele>43.3966</ele>
        <time>2014-05-23T18:25:53Z</time>
      </trkpt>
      <trkpt lat="60.0008801" lon="17.7364548">
        <ele>43.8773</ele>
        <time>2014-05-23T18:25:54Z</time>
      </trkpt>
      <trkpt lat="60.0008536" lon="17.736469">
        <ele>43.8773</ele>
        <time>2014-05-23T18:25:55Z</time>
      </trkpt>
      <trkpt lat="60.0008301" lon="17.7364845">
        <ele>44.358</ele>
        <time>2014-05-23T18:25:56Z</time>
      </trkpt>
      <trkpt lat="60.0008071" lon="17.7365045">
        <ele>44.8386</ele>
        <time>2014-05-23T18:25:57Z</time>
      </trkpt>
      <trkpt lat="60.0007776" lon="17.7365296">
        <ele>44.8386</ele>
        <time>2014-05-23T18:25:58Z</time>
      </trkpt>
      <trkpt lat="60.0007474" lon="17.7365544">
        <ele>44.8386</ele>
        <time>2014-05-23T18:25:59Z</time>
      </trkpt>
      <trkpt lat="60.0007219" lon="17.7365773">
        <ele>45.3192</ele>
        <time>2014-05-23T18:26:00Z</time>
      </trkpt>
      <trkpt lat="60.0006933" lon="17.7366062">
        <ele>45.7999</ele>
        <time>2014-05-23T18:26:01Z</time>
      </trkpt>
      <trkpt lat="60.0006636" lon="17.7366445">
        <ele>45.7999</ele>
        <time>2014-05-23T18:26:02Z</time>
      </trkpt>
      <trkpt lat="60.0006395" lon="17.7366789">
        <ele>46.7612</ele>
        <time>2014-05-23T18:26:03Z</time>
      </trkpt>
      <trkpt lat="60.0006175" lon="17.7366969">
        <ele>46.2806</ele>
        <time>2014-05-23T18:26:04Z</time>
      </trkpt>
      <trkpt lat="60.0005949" lon="17.7367248">
        <ele>46.7612</ele>
        <time>2014-05-23T18:26:05Z</time>
      </trkpt>
      <trkpt lat="60.0005683" lon="17.7367472">
        <ele>46.7612</ele>
        <time>2014-05-23T18:26:06Z</time>
      </trkpt>
      <trkpt lat="60.0005457" lon="17.7367584">
        <ele>47.2418</ele>
        <time>2014-05-23T18:26:07Z</time>
      </trkpt>
      <trkpt lat="60.0005209" lon="17.7367749">
        <ele>47.2418</ele>
        <time>2014-05-23T18:26:08Z</time>
      </trkpt>
      <trkpt lat="60.0004945" lon="17.7367972">
        <ele>47.2418</ele>
        <time>2014-05-23T18:26:09Z</time>
      </trkpt>
      <trkpt lat="60.0004681" lon="17.7368245">
        <ele>47.7225</ele>
        <time>2014-05-23T18:26:10Z</time>
      </trkpt>
      <trkpt lat="60.000451" lon="17.7368462">
        <ele>48.2034</ele>
        <time>2014-05-23T18:26:11Z</time>
      </trkpt>
      <trkpt lat="60.0004369" lon="17.7368677">
        <ele>48.2034</ele>
        <time>2014-05-23T18:26:12Z</time>
      </trkpt>
      <trkpt lat="60.0004226" lon="17.7368906">
        <ele>48.2034</ele>
        <time>2014-05-23T18:26:13Z</time>
      </trkpt>
      <trkpt lat="60.0004107" lon="17.736916">
        <ele>48.684</ele>
        <time>2014-05-23T18:26:14Z</time>
      </trkpt>
      <trkpt lat="60.000394" lon="17.7369388">
        <ele>48.2034</ele>
        <time>2014-05-23T18:26:15Z</time>
      </trkpt>
      <trkpt lat="60.0003763" lon="17.7369617">
        <ele>47.7225</ele>
        <time>2014-05-23T18:26:16Z</time>
      </trkpt>
      <trkpt lat="60.0003579" lon="17.7369786">
        <ele>46.7612</ele>
        <time>2014-05-23T18:26:17Z</time>
      </trkpt>
      <trkpt lat="60.0003412" lon="17.7369927">
        <ele>47.2418</ele>
        <time>2014-05-23T18:26:18Z</time>
      </trkpt>
      <trkpt lat="60.000323" lon="17.7370051">
        <ele>47.2418</ele>
        <time>2014-05-23T18:26:19Z</time>
      </trkpt>
      <trkpt lat="60.0002972" lon="17.7370194">
        <ele>46.7612</ele>
        <time>2014-05-23T18:26:20Z</time>
      </trkpt>
      <trkpt lat="60.0002646" lon="17.7370218">
        <ele>46.2806</ele>
        <time>2014-05-23T18:26:21Z</time>
      </trkpt>
      <trkpt lat="60.0002271" lon="17.7370089">
        <ele>45.3192</ele>
        <time>2014-05-23T18:26:22Z</time>
      </trkpt>
      <trkpt lat="60.0001922" lon="17.7369995">
        <ele>44.358</ele>
        <time>2014-05-23T18:26:23Z</time>
      </trkpt>
      <trkpt lat="60.000162" lon="17.7369995">
        <ele>43.8773</ele>
        <time>2014-05-23T18:26:24Z</time>
      </trkpt>
      <trkpt lat="60.0001302" lon="17.7370014">
        <ele>43.8773</ele>
        <time>2014-05-23T18:26:25Z</time>
      </trkpt>
      <trkpt lat="60.0001015" lon="17.7370081">
        <ele>43.8773</ele>
        <time>2014-05-23T18:26:26Z</time>
      </trkpt>
      <trkpt lat="60.0000749" lon="17.7370054">
        <ele>43.3966</ele>
        <time>2014-05-23T18:26:27Z</time>
      </trkpt>
      <trkpt lat="60.0000502" lon="17.7370098">
        <ele>43.3966</ele>
        <time>2014-05-23T18:26:28Z</time>
      </trkpt>
      <trkpt lat="60.0000253" lon="17.7370138">
        <ele>43.3966</ele>
        <time>2014-05-23T18:26:29Z</time>
      </trkpt>
      <trkpt lat="60.000001" lon="17.7370077">
        <ele>42.916</ele>
        <time>2014-05-23T18:26:30Z</time>
      </trkpt>
      <trkpt lat="59.9999771" lon="17.7370032">
        <ele>42.916</ele>
        <time>2014-05-23T18:26:31Z</time>
      </trkpt>
      <trkpt lat="59.999951" lon="17.7370046">
        <ele>42.916</ele>
        <time>2014-05-23T18:26:32Z</time>
      </trkpt>
      <trkpt lat="59.9999267" lon="17.7369999">
        <ele>42.4354</ele>
        <time>2014-05-23T18:26:33Z</time>
      </trkpt>
      <trkpt lat="59.9999085" lon="17.7370078">
        <ele>43.3966</ele>
        <time>2014-05-23T18:26:34Z</time>
      </trkpt>
      <trkpt lat="59.9998859" lon="17.7370089">
        <ele>43.3966</ele>
        <time>2014-05-23T18:26:35Z</time>
      </trkpt>
      <trkpt lat="59.9998616" lon="17.7369987">
        <ele>43.3966</ele>
        <time>2014-05-23T18:26:36Z</time>
      </trkpt>
      <trkpt lat="59.9998355" lon="17.7369856">
        <ele>43.3966</ele>
        <time>2014-05-23T18:26:37Z</time>
      </trkpt>
      <trkpt lat="59.9998093" lon="17.7369767">
        <ele>43.3966</ele>
        <time>2014-05-23T18:26:38Z</time>
      </trkpt>
      <trkpt lat="59.9997797" lon="17.736961">
        <ele>43.3966</ele>
        <time>2014-05-23T18:26:39Z</time>
      </trkpt>
      <trkpt lat="59.9997539" lon="17.7369448">
        <ele>43.8773</ele>
        <time>2014-05-23T18:26:40Z</time>
      </trkpt>
      <trkpt lat="59.9997322" lon="17.7369357">
        <ele>43.8773</ele>
        <time>2014-05-23T18:26:41Z</time>
      </trkpt>
      <trkpt lat="59.9997098" lon="17.7369286">
        <ele>44.358</ele>
        <time>2014-05-23T18:26:42Z</time>
      </trkpt>
      <trkpt lat="59.9996825" lon="17.7369205">
        <ele>43.8773</ele>
        <time>2014-05-23T18:26:43Z</time>
      </trkpt>
      <trkpt lat="59.9996571" lon="17.7369207">
        <ele>43.8773</ele>
        <time>2014-05-23T18:26:44Z</time>
      </trkpt>
      <trkpt lat="59.9996378" lon="17.7369202">
        <ele>43.8773</ele>
        <time>2014-05-23T18:26:45Z</time>
      </trkpt>
      <trkpt lat="59.9996208" lon="17.736917">
        <ele>43.3966</ele>
        <time>2014-05-23T18:26:46Z</time>
      </trkpt>
      <trkpt lat="59.9996092" lon="17.7369026">
        <ele>43.3966</ele>
        <time>2014-05-23T18:26:47Z</time>
      </trkpt>
      <trkpt lat="59.9995925" lon="17.7368948">
        <ele>43.8773</ele>
        <time>2014-05-23T18:26:48Z</time>
      </trkpt>
      <trkpt lat="59.9995703" lon="17.7368908">
        <ele>44.358</ele>
        <time>2014-05-23T18:26:49Z</time>
      </trkpt>
      <trkpt lat="59.9995446" lon="17.7368832">
        <ele>43.8773</ele>
        <time>2014-05-23T18:26:50Z</time>
      </trkpt>
      <trkpt lat="59.9995244" lon="17.7368834">
        <ele>44.358</ele>
        <time>2014-05-23T18:26:51Z</time>
      </trkpt>
      <trkpt lat="59.9995082" lon="17.7368934">
        <ele>44.358</ele>
        <time>2014-05-23T18:26:52Z</time>
      </trkpt>
      <trkpt lat="59.9994954" lon="17.7368932">
        <ele>44.8386</ele>
        <time>2014-05-23T18:26:53Z</time>
      </trkpt>
      <trkpt lat="59.9994798" lon="17.7368768">
        <ele>44.358</ele>
        <time>2014-05-23T18:26:54Z</time>
      </trkpt>
      <trkpt lat="59.9994621" lon="17.7368627">
        <ele>43.8773</ele>
        <time>2014-05-23T18:26:55Z</time>
      </trkpt>
      <trkpt lat="59.9994377" lon="17.7368456">
        <ele>42.916</ele>
        <time>2014-05-23T18:26:56Z</time>
      </trkpt>
      <trkpt lat="59.9994167" lon="17.7368316">
        <ele>43.3966</ele>
        <time>2014-05-23T18:26:57Z</time>
      </trkpt>
      <trkpt lat="59.9993913" lon="17.7368223">
        <ele>42.916</ele>
        <time>2014-05-23T18:26:58Z</time>
      </trkpt>
      <trkpt lat="59.9993669" lon="17.7368208">
        <ele>42.4354</ele>
        <time>2014-05-23T18:26:59Z</time>
      </trkpt>
      <trkpt lat="59.9993352" lon="17.7368167">
        <ele>40.9934</ele>
        <time>2014-05-23T18:27:00Z</time>
      </trkpt>
      <trkpt lat="59.9992955" lon="17.736816">
        <ele>40.0321</ele>
        <time>2014-05-23T18:27:01Z</time>
      </trkpt>
      <trkpt lat="59.9992572" lon="17.7368115">
        <ele>39.5513</ele>
        <time>2014-05-23T18:27:02Z</time>
      </trkpt>
      <trkpt lat="59.9992215" lon="17.7368109">
        <ele>39.5513</ele>
        <time>2014-05-23T18:27:03Z</time>
      </trkpt>
      <trkpt lat="59.9991916" lon="17.7368081">
        <ele>39.5513</ele>
        <time>2014-05-23T18:27:04Z</time>
      </trkpt>
      <trkpt lat="59.9991538" lon="17.7367995">
        <ele>38.5901</ele>
        <time>2014-05-23T18:27:05Z</time>
      </trkpt>
      <trkpt lat="59.9991235" lon="17.7367927">
        <ele>39.0707</ele>
        <time>2014-05-23T18:27:06Z</time>
      </trkpt>
      <trkpt lat="59.9990965" lon="17.7367818">
        <ele>39.0707</ele>
        <time>2014-05-23T18:27:07Z</time>
      </trkpt>
      <trkpt lat="59.9990784" lon="17.7367729">
        <ele>40.0321</ele>
        <time>2014-05-23T18:27:08Z</time>
      </trkpt>
      <trkpt lat="59.9990612" lon="17.736772">
        <ele>40.0321</ele>
        <time>2014-05-23T18:27:09Z</time>
      </trkpt>
      <trkpt lat="59.9990529" lon="17.7367633">
        <ele>40.5128</ele>
        <time>2014-05-23T18:27:10Z</time>
      </trkpt>
      <trkpt lat="59.9990417" lon="17.7367601">
        <ele>40.9934</ele>
        <time>2014-05-23T18:27:11Z</time>
      </trkpt>
      <trkpt lat="59.999025" lon="17.7367559">
        <ele>41.474</ele>
        <time>2014-05-23T18:27:12Z</time>
      </trkpt>
      <trkpt lat="59.9989991" lon="17.7367494">
        <ele>41.474</ele>
        <time>2014-05-23T18:27:13Z</time>
      </trkpt>
      <trkpt lat="59.998973" lon="17.7367472">
        <ele>42.916</ele>
        <time>2014-05-23T18:27:14Z</time>
      </trkpt>
      <trkpt lat="59.9989454" lon="17.736749">
        <ele>42.916</ele>
        <time>2014-05-23T18:27:15Z</time>
      </trkpt>
      <trkpt lat="59.9989214" lon="17.7367395">
        <ele>42.4354</ele>
        <time>2014-05-23T18:27:16Z</time>
      </trkpt>
      <trkpt lat="59.998891" lon="17.7367299">
        <ele>42.4354</ele>
        <time>2014-05-23T18:27:17Z</time>
      </trkpt>
      <trkpt lat="59.9988591" lon="17.7367254">
        <ele>42.916</ele>
        <time>2014-05-23T18:27:18Z</time>
      </trkpt>
      <trkpt lat="59.9988205" lon="17.7367136">
        <ele>42.916</ele>
        <time>2014-05-23T18:27:19Z</time>
      </trkpt>
      <trkpt lat="59.9987826" lon="17.7366967">
        <ele>43.8773</ele>
        <time>2014-05-23T18:27:20Z</time>
      </trkpt>
      <trkpt lat="59.9987449" lon="17.7366861">
        <ele>43.3966</ele>
        <time>2014-05-23T18:27:21Z</time>
      </trkpt>
      <trkpt lat="59.9987076" lon="17.7366679">
        <ele>43.3966</ele>
        <time>2014-05-23T18:27:22Z</time>
      </trkpt>
      <trkpt lat="59.9986815" lon="17.7366638">
        <ele>45.3192</ele>
        <time>2014-05-23T18:27:23Z</time>
      </trkpt>
      <trkpt lat="59.998651" lon="17.7366664">
        <ele>44.8386</ele>
        <time>2014-05-23T18:27:24Z</time>
      </trkpt>
      <trkpt lat="59.9986179" lon="17.7366704">
        <ele>44.8386</ele>
        <time>2014-05-23T18:27:25Z</time>
      </trkpt>
      <trkpt lat="59.9985929" lon="17.7366747">
        <ele>46.2806</ele>
        <time>2014-05-23T18:27:26Z</time>
      </trkpt>
      <trkpt lat="59.9985684" lon="17.736674">
        <ele>46.2806</ele>
        <time>2014-05-23T18:27:27Z</time>
      </trkpt>
      <trkpt lat="59.9985375" lon="17.736673">
        <ele>45.7999</ele>
        <time>2014-05-23T18:27:28Z</time>
      </trkpt>
      <trkpt lat="59.99852" lon="17.7366698">
        <ele>46.2806</ele>
        <time>2014-05-23T18:27:29Z</time>
      </trkpt>
      <trkpt lat="59.9984884" lon="17.7366683">
        <ele>46.7612</ele>
        <time>2014-05-23T18:27:30Z</time>
      </trkpt>
      <trkpt lat="59.9984578" lon="17.7366689">
        <ele>46.2806</ele>
        <time>2014-05-23T18:27:31Z</time>
      </trkpt>
      <trkpt lat="59.9984298" lon="17.7366672">
        <ele>46.2806</ele>
        <time>2014-05-23T18:27:32Z</time>
      </trkpt>
      <trkpt lat="59.9984091" lon="17.7366584">
        <ele>47.2418</ele>
        <time>2014-05-23T18:27:33Z</time>
      </trkpt>
      <trkpt lat="59.9983843" lon="17.7366535">
        <ele>48.2034</ele>
        <time>2014-05-23T18:27:34Z</time>
      </trkpt>
      <trkpt lat="59.9983609" lon="17.7366543">
        <ele>49.1646</ele>
        <time>2014-05-23T18:27:35Z</time>
      </trkpt>
      <trkpt lat="59.9983339" lon="17.7366503">
        <ele>49.1646</ele>
        <time>2014-05-23T18:27:36Z</time>
      </trkpt>
      <trkpt lat="59.9983084" lon="17.7366524">
        <ele>49.1646</ele>
        <time>2014-05-23T18:27:37Z</time>
      </trkpt>
      <trkpt lat="59.9982859" lon="17.7366519">
        <ele>50.126</ele>
        <time>2014-05-23T18:27:38Z</time>
      </trkpt>
      <trkpt lat="59.9982583" lon="17.7366415">
        <ele>49.6453</ele>
        <time>2014-05-23T18:27:39Z</time>
      </trkpt>
      <trkpt lat="59.9982365" lon="17.736638">
        <ele>49.1646</ele>
        <time>2014-05-23T18:27:40Z</time>
      </trkpt>
      <trkpt lat="59.9982241" lon="17.7366394">
        <ele>49.1646</ele>
        <time>2014-05-23T18:27:41Z</time>
      </trkpt>
      <trkpt lat="59.9982143" lon="17.736647">
        <ele>48.684</ele>
        <time>2014-05-23T18:27:42Z</time>
      </trkpt>
      <trkpt lat="59.998206" lon="17.7366538">
        <ele>48.684</ele>
        <time>2014-05-23T18:27:43Z</time>
      </trkpt>
      <trkpt lat="59.9982013" lon="17.7366576">
        <ele>48.684</ele>
        <time>2014-05-23T18:27:44Z</time>
      </trkpt>
      <trkpt lat="59.9981884" lon="17.7366563">
        <ele>47.7225</ele>
        <time>2014-05-23T18:27:45Z</time>
      </trkpt>
      <trkpt lat="59.998176" lon="17.7366575">
        <ele>47.7225</ele>
        <time>2014-05-23T18:27:46Z</time>
      </trkpt>
      <trkpt lat="59.9981506" lon="17.7366576">
        <ele>46.2806</ele>
        <time>2014-05-23T18:27:47Z</time>
      </trkpt>
      <trkpt lat="59.9981242" lon="17.7366602">
        <ele>45.3192</ele>
        <time>2014-05-23T18:27:48Z</time>
      </trkpt>
      <trkpt lat="59.9980957" lon="17.736668">
        <ele>44.8386</ele>
        <time>2014-05-23T18:27:49Z</time>
      </trkpt>
      <trkpt lat="59.9980746" lon="17.736677">
        <ele>44.8386</ele>
        <time>2014-05-23T18:27:50Z</time>
      </trkpt>
      <trkpt lat="59.9980526" lon="17.7366897">
        <ele>44.8386</ele>
        <time>2014-05-23T18:27:51Z</time>
      </trkpt>
      <trkpt lat="59.9980295" lon="17.7367087">
        <ele>45.3192</ele>
        <time>2014-05-23T18:27:52Z</time>
      </trkpt>
      <trkpt lat="59.9980076" lon="17.7367228">
        <ele>45.3192</ele>
        <time>2014-05-23T18:27:53Z</time>
      </trkpt>
      <trkpt lat="59.9979792" lon="17.7367228">
        <ele>44.358</ele>
        <time>2014-05-23T18:27:54Z</time>
      </trkpt>
      <trkpt lat="59.9979512" lon="17.7367196">
        <ele>43.3966</ele>
        <time>2014-05-23T18:27:55Z</time>
      </trkpt>
      <trkpt lat="59.9979194" lon="17.736724">
        <ele>42.916</ele>
        <time>2014-05-23T18:27:56Z</time>
      </trkpt>
      <trkpt lat="59.9978873" lon="17.736731">
        <ele>42.916</ele>
        <time>2014-05-23T18:27:57Z</time>
      </trkpt>
      <trkpt lat="59.9978562" lon="17.7367269">
        <ele>42.4354</ele>
        <time>2014-05-23T18:27:58Z</time>
      </trkpt>
      <trkpt lat="59.997822" lon="17.7367209">
        <ele>41.9547</ele>
        <time>2014-05-23T18:27:59Z</time>
      </trkpt>
      <trkpt lat="59.9977937" lon="17.7367151">
        <ele>40.9934</ele>
        <time>2014-05-23T18:28:00Z</time>
      </trkpt>
      <trkpt lat="59.9977672" lon="17.7367094">
        <ele>40.9934</ele>
        <time>2014-05-23T18:28:01Z</time>
      </trkpt>
      <trkpt lat="59.9977378" lon="17.7367022">
        <ele>40.5128</ele>
        <time>2014-05-23T18:28:02Z</time>
      </trkpt>
      <trkpt lat="59.9977101" lon="17.7367007">
        <ele>40.5128</ele>
        <time>2014-05-23T18:28:03Z</time>
      </trkpt>
      <trkpt lat="59.9976782" lon="17.7366934">
        <ele>40.0321</ele>
        <time>2014-05-23T18:28:04Z</time>
      </trkpt>
      <trkpt lat="59.997651" lon="17.736686">
        <ele>40.0321</ele>
        <time>2014-05-23T18:28:05Z</time>
      </trkpt>
      <trkpt lat="59.9976212" lon="17.736684">
        <ele>40.5128</ele>
        <time>2014-05-23T18:28:06Z</time>
      </trkpt>
      <trkpt lat="59.9975895" lon="17.7366844">
        <ele>39.5513</ele>
        <time>2014-05-23T18:28:07Z</time>
      </trkpt>
      <trkpt lat="59.9975606" lon="17.736683">
        <ele>40.0321</ele>
        <time>2014-05-23T18:28:08Z</time>
      </trkpt>
      <trkpt lat="59.997531" lon="17.7366761">
        <ele>40.0321</ele>
        <time>2014-05-23T18:28:09Z</time>
      </trkpt>
      <trkpt lat="59.9975026" lon="17.7366892">
        <ele>40.9934</ele>
        <time>2014-05-23T18:28:10Z</time>
      </trkpt>
      <trkpt lat="59.9974751" lon="17.7366948">
        <ele>40.9934</ele>
        <time>2014-05-23T18:28:11Z</time>
      </trkpt>
      <trkpt lat="59.9974485" lon="17.7366921">
        <ele>40.5128</ele>
        <time>2014-05-23T18:28:12Z</time>
      </trkpt>
      <trkpt lat="59.9974275" lon="17.7366944">
        <ele>40.9934</ele>
        <time>2014-05-23T18:28:13Z</time>
      </trkpt>
      <trkpt lat="59.997403" lon="17.736696">
        <ele>41.474</ele>
        <time>2014-05-23T18:28:14Z</time>
      </trkpt>
      <trkpt lat="59.9973778" lon="17.7366876">
        <ele>41.9547</ele>
        <time>2014-05-23T18:28:15Z</time>
      </trkpt>
      <trkpt lat="59.9973534" lon="17.7366778">
        <ele>41.474</ele>
        <time>2014-05-23T18:28:16Z</time>
      </trkpt>
      <trkpt lat="59.9973283" lon="17.7366709">
        <ele>41.9547</ele>
        <time>2014-05-23T18:28:17Z</time>
      </trkpt>
      <trkpt lat="59.9972985" lon="17.7366612">
        <ele>41.474</ele>
        <time>2014-05-23T18:28:18Z</time>
      </trkpt>
      <trkpt lat="59.997268" lon="17.7366534">
        <ele>41.474</ele>
        <time>2014-05-23T18:28:19Z</time>
      </trkpt>
      <trkpt lat="59.9972451" lon="17.73666">
        <ele>42.916</ele>
        <time>2014-05-23T18:28:20Z</time>
      </trkpt>
      <trkpt lat="59.9972193" lon="17.7366564">
        <ele>41.9547</ele>
        <time>2014-05-23T18:28:21Z</time>
      </trkpt>
      <trkpt lat="59.9971876" lon="17.7366467">
        <ele>42.4354</ele>
        <time>2014-05-23T18:28:22Z</time>
      </trkpt>
      <trkpt lat="59.9971591" lon="17.7366485">
        <ele>44.358</ele>
        <time>2014-05-23T18:28:23Z</time>
      </trkpt>
      <trkpt lat="59.9971302" lon="17.7366504">
        <ele>45.3192</ele>
        <time>2014-05-23T18:28:24Z</time>
      </trkpt>
      <trkpt lat="59.9970996" lon="17.7366425">
        <ele>44.8386</ele>
        <time>2014-05-23T18:28:25Z</time>
      </trkpt>
      <trkpt lat="59.99707" lon="17.7366309">
        <ele>44.8386</ele>
        <time>2014-05-23T18:28:26Z</time>
      </trkpt>
      <trkpt lat="59.9970468" lon="17.736626">
        <ele>44.8386</ele>
        <time>2014-05-23T18:28:27Z</time>
      </trkpt>
      <trkpt lat="59.9970241" lon="17.7366177">
        <ele>44.8386</ele>
        <time>2014-05-23T18:28:28Z</time>
      </trkpt>
      <trkpt lat="59.9970033" lon="17.7365985">
        <ele>44.8386</ele>
        <time>2014-05-23T18:28:29Z</time>
      </trkpt>
      <trkpt lat="59.9969835" lon="17.7365903">
        <ele>45.7999</ele>
        <time>2014-05-23T18:28:30Z</time>
      </trkpt>
      <trkpt lat="59.9969593" lon="17.7365824">
        <ele>45.7999</ele>
        <time>2014-05-23T18:28:31Z</time>
      </trkpt>
      <trkpt lat="59.99694" lon="17.7365704">
        <ele>47.7225</ele>
        <time>2014-05-23T18:28:32Z</time>
      </trkpt>
      <trkpt lat="59.9969166" lon="17.7365517">
        <ele>49.1646</ele>
        <time>2014-05-23T18:28:33Z</time>
      </trkpt>
      <trkpt lat="59.9968908" lon="17.7365343">
        <ele>50.126</ele>
        <time>2014-05-23T18:28:34Z</time>
      </trkpt>
      <trkpt lat="59.9968748" lon="17.7365045">
        <ele>50.6066</ele>
        <time>2014-05-23T18:28:35Z</time>
      </trkpt>
      <trkpt lat="59.9968564" lon="17.7364783">
        <ele>51.0872</ele>
        <time>2014-05-23T18:28:36Z</time>
      </trkpt>
      <trkpt lat="59.9968322" lon="17.7364581">
        <ele>51.0872</ele>
        <time>2014-05-23T18:28:37Z</time>
      </trkpt>
      <trkpt lat="59.9968093" lon="17.736441">
        <ele>50.126</ele>
        <time>2014-05-23T18:28:38Z</time>
      </trkpt>
      <trkpt lat="59.99678" lon="17.7364331">
        <ele>50.6066</ele>
        <time>2014-05-23T18:28:39Z</time>
      </trkpt>
      <trkpt lat="59.9967489" lon="17.7364218">
        <ele>50.126</ele>
        <time>2014-05-23T18:28:40Z</time>
      </trkpt>
      <trkpt lat="59.9967179" lon="17.7364063">
        <ele>49.6453</ele>
        <time>2014-05-23T18:28:41Z</time>
      </trkpt>
      <trkpt lat="59.9966769" lon="17.7363935">
        <ele>49.1646</ele>
        <time>2014-05-23T18:28:42Z</time>
      </trkpt>
      <trkpt lat="59.9966404" lon="17.7363872">
        <ele>49.6453</ele>
        <time>2014-05-23T18:28:43Z</time>
      </trkpt>
      <trkpt lat="59.9966064" lon="17.7363699">
        <ele>49.1646</ele>
        <time>2014-05-23T18:28:44Z</time>
      </trkpt>
      <trkpt lat="59.9965867" lon="17.7363577">
        <ele>49.6453</ele>
        <time>2014-05-23T18:28:45Z</time>
      </trkpt>
      <trkpt lat="59.9965602" lon="17.7363419">
        <ele>49.1646</ele>
        <time>2014-05-23T18:28:46Z</time>
      </trkpt>
      <trkpt lat="59.9965324" lon="17.7363275">
        <ele>48.684</ele>
        <time>2014-05-23T18:28:47Z</time>
      </trkpt>
      <trkpt lat="59.9964975" lon="17.7363082">
        <ele>48.2034</ele>
        <time>2014-05-23T18:28:48Z</time>
      </trkpt>
      <trkpt lat="59.9964736" lon="17.7362971">
        <ele>47.7225</ele>
        <time>2014-05-23T18:28:49Z</time>
      </trkpt>
      <trkpt lat="59.9964474" lon="17.7362914">
        <ele>47.7225</ele>
        <time>2014-05-23T18:28:50Z</time>
      </trkpt>
      <trkpt lat="59.9964215" lon="17.7362768">
        <ele>47.7225</ele>
        <time>2014-05-23T18:28:51Z</time>
      </trkpt>
      <trkpt lat="59.9963956" lon="17.7362658">
        <ele>47.2418</ele>
        <time>2014-05-23T18:28:52Z</time>
      </trkpt>
      <trkpt lat="59.99636" lon="17.7362607">
        <ele>47.2418</ele>
        <time>2014-05-23T18:28:53Z</time>
      </trkpt>
      <trkpt lat="59.9963355" lon="17.7362508">
        <ele>47.2418</ele>
        <time>2014-05-23T18:28:54Z</time>
      </trkpt>
      <trkpt lat="59.9963101" lon="17.7362437">
        <ele>47.2418</ele>
        <time>2014-05-23T18:28:55Z</time>
      </trkpt>
      <trkpt lat="59.9962773" lon="17.7362456">
        <ele>48.2034</ele>
        <time>2014-05-23T18:28:56Z</time>
      </trkpt>
      <trkpt lat="59.9962467" lon="17.736225">
        <ele>46.7612</ele>
        <time>2014-05-23T18:28:57Z</time>
      </trkpt>
      <trkpt lat="59.9962138" lon="17.7361954">
        <ele>45.7999</ele>
        <time>2014-05-23T18:28:58Z</time>
      </trkpt>
      <trkpt lat="59.9961859" lon="17.7361831">
        <ele>45.7999</ele>
        <time>2014-05-23T18:28:59Z</time>
      </trkpt>
      <trkpt lat="59.9961669" lon="17.7362042">
        <ele>47.2418</ele>
        <time>2014-05-23T18:29:00Z</time>
      </trkpt>
      <trkpt lat="59.9961314" lon="17.7362142">
        <ele>47.2418</ele>
        <time>2014-05-23T18:29:01Z</time>
      </trkpt>
      <trkpt lat="59.9960977" lon="17.7362067">
        <ele>46.2806</ele>
        <time>2014-05-23T18:29:02Z</time>
      </trkpt>
      <trkpt lat="59.9960677" lon="17.7362073">
        <ele>46.2806</ele>
        <time>2014-05-23T18:29:03Z</time>
      </trkpt>
      <trkpt lat="59.9960338" lon="17.7362079">
        <ele>45.3192</ele>
        <time>2014-05-23T18:29:04Z</time>
      </trkpt>
      <trkpt lat="59.9960029" lon="17.7362075">
        <ele>45.3192</ele>
        <time>2014-05-23T18:29:05Z</time>
      </trkpt>
      <trkpt lat="59.9959739" lon="17.7362098">
        <ele>45.3192</ele>
        <time>2014-05-23T18:29:06Z</time>
      </trkpt>
      <trkpt lat="59.9959465" lon="17.7362098">
        <ele>45.7999</ele>
        <time>2014-05-23T18:29:07Z</time>
      </trkpt>
      <trkpt lat="59.9959211" lon="17.7362166">
        <ele>46.2806</ele>
        <time>2014-05-23T18:29:08Z</time>
      </trkpt>
      <trkpt lat="59.995893" lon="17.7362255">
        <ele>46.2806</ele>
        <time>2014-05-23T18:29:09Z</time>
      </trkpt>
      <trkpt lat="59.9958656" lon="17.7362297">
        <ele>46.7612</ele>
        <time>2014-05-23T18:29:10Z</time>
      </trkpt>
      <trkpt lat="59.9958423" lon="17.7362276">
        <ele>47.7225</ele>
        <time>2014-05-23T18:29:11Z</time>
      </trkpt>
      <trkpt lat="59.995823" lon="17.7362373">
        <ele>49.1646</ele>
        <time>2014-05-23T18:29:12Z</time>
      </trkpt>
      <trkpt lat="59.9958014" lon="17.7362468">
        <ele>49.6453</ele>
        <time>2014-05-23T18:29:13Z</time>
      </trkpt>
      <trkpt lat="59.9957775" lon="17.7362468">
        <ele>49.6453</ele>
        <time>2014-05-23T18:29:14Z</time>
      </trkpt>
      <trkpt lat="59.9957513" lon="17.7362488">
        <ele>49.6453</ele>
        <time>2014-05-23T18:29:15Z</time>
      </trkpt>
      <trkpt lat="59.9957243" lon="17.7362504">
        <ele>49.6453</ele>
        <time>2014-05-23T18:29:16Z</time>
      </trkpt>
      <trkpt lat="59.9957078" lon="17.7362438">
        <ele>50.6066</ele>
        <time>2014-05-23T18:29:17Z</time>
      </trkpt>
      <trkpt lat="59.9956822" lon="17.7362463">
        <ele>50.6066</ele>
        <time>2014-05-23T18:29:18Z</time>
      </trkpt>
      <trkpt lat="59.9956658" lon="17.7362525">
        <ele>51.5679</ele>
        <time>2014-05-23T18:29:19Z</time>
      </trkpt>
      <trkpt lat="59.9956521" lon="17.7362586">
        <ele>51.5679</ele>
        <time>2014-05-23T18:29:20Z</time>
      </trkpt>
      <trkpt lat="59.9956378" lon="17.7362582">
        <ele>52.0486</ele>
        <time>2014-05-23T18:29:21Z</time>
      </trkpt>
      <trkpt lat="59.9956138" lon="17.7362716">
        <ele>52.0486</ele>
        <time>2014-05-23T18:29:22Z</time>
      </trkpt>
      <trkpt lat="59.9955975" lon="17.7362846">
        <ele>52.0486</ele>
        <time>2014-05-23T18:29:23Z</time>
      </trkpt>
      <trkpt lat="59.9955775" lon="17.736289">
        <ele>51.5679</ele>
        <time>2014-05-23T18:29:24Z</time>
      </trkpt>
      <trkpt lat="59.9955601" lon="17.7362911">
        <ele>51.0872</ele>
        <time>2014-05-23T18:29:25Z</time>
      </trkpt>
      <trkpt lat="59.9955372" lon="17.7362924">
        <ele>51.0872</ele>
        <time>2014-05-23T18:29:26Z</time>
      </trkpt>
      <trkpt lat="59.9955191" lon="17.736302">
        <ele>51.5679</ele>
        <time>2014-05-23T18:29:27Z</time>
      </trkpt>
      <trkpt lat="59.9954969" lon="17.736314">
        <ele>52.0486</ele>
        <time>2014-05-23T18:29:28Z</time>
      </trkpt>
      <trkpt lat="59.9954657" lon="17.7363151">
        <ele>52.5292</ele>
        <time>2014-05-23T18:29:29Z</time>
      </trkpt>
      <trkpt lat="59.9954368" lon="17.736299">
        <ele>51.5679</ele>
        <time>2014-05-23T18:29:30Z</time>
      </trkpt>
      <trkpt lat="59.9954008" lon="17.7362774">
        <ele>49.1646</ele>
        <time>2014-05-23T18:29:31Z</time>
      </trkpt>
      <trkpt lat="59.9953648" lon="17.7362745">
        <ele>49.1646</ele>
        <time>2014-05-23T18:29:32Z</time>
      </trkpt>
      <trkpt lat="59.9953332" lon="17.7362643">
        <ele>48.2034</ele>
        <time>2014-05-23T18:29:33Z</time>
      </trkpt>
      <trkpt lat="59.9952977" lon="17.7362493">
        <ele>47.7225</ele>
        <time>2014-05-23T18:29:34Z</time>
      </trkpt>
      <trkpt lat="59.9952621" lon="17.7362393">
        <ele>46.7612</ele>
        <time>2014-05-23T18:29:35Z</time>
      </trkpt>
      <trkpt lat="59.9952235" lon="17.7362463">
        <ele>46.2806</ele>
        <time>2014-05-23T18:29:36Z</time>
      </trkpt>
      <trkpt lat="59.9951876" lon="17.7362479">
        <ele>45.7999</ele>
        <time>2014-05-23T18:29:37Z</time>
      </trkpt>
      <trkpt lat="59.9951617" lon="17.7362478">
        <ele>45.7999</ele>
        <time>2014-05-23T18:29:38Z</time>
      </trkpt>
      <trkpt lat="59.9951359" lon="17.7362442">
        <ele>46.2806</ele>
        <time>2014-05-23T18:29:39Z</time>
      </trkpt>
      <trkpt lat="59.9951112" lon="17.7362386">
        <ele>46.2806</ele>
        <time>2014-05-23T18:29:40Z</time>
      </trkpt>
      <trkpt lat="59.9950859" lon="17.7362364">
        <ele>46.2806</ele>
        <time>2014-05-23T18:29:41Z</time>
      </trkpt>
      <trkpt lat="59.9950612" lon="17.7362359">
        <ele>46.7612</ele>
        <time>2014-05-23T18:29:42Z</time>
      </trkpt>
      <trkpt lat="59.9950388" lon="17.7362253">
        <ele>46.2806</ele>
        <time>2014-05-23T18:29:43Z</time>
      </trkpt>
      <trkpt lat="59.9950182" lon="17.7362126">
        <ele>46.2806</ele>
        <time>2014-05-23T18:29:44Z</time>
      </trkpt>
      <trkpt lat="59.9950002" lon="17.7362012">
        <ele>45.7999</ele>
        <time>2014-05-23T18:29:45Z</time>
      </trkpt>
      <trkpt lat="59.994976" lon="17.7361813">
        <ele>44.8386</ele>
        <time>2014-05-23T18:29:46Z</time>
      </trkpt>
      <trkpt lat="59.9949565" lon="17.7361639">
        <ele>44.8386</ele>
        <time>2014-05-23T18:29:47Z</time>
      </trkpt>
      <trkpt lat="59.9949378" lon="17.736138">
        <ele>44.358</ele>
        <time>2014-05-23T18:29:48Z</time>
      </trkpt>
      <trkpt lat="59.9949147" lon="17.7361172">
        <ele>44.358</ele>
        <time>2014-05-23T18:29:49Z</time>
      </trkpt>
      <trkpt lat="59.9948903" lon="17.7360856">
        <ele>44.358</ele>
        <time>2014-05-23T18:29:50Z</time>
      </trkpt>
      <trkpt lat="59.9948679" lon="17.7360634">
        <ele>45.3192</ele>
        <time>2014-05-23T18:29:51Z</time>
      </trkpt>
      <trkpt lat="59.9948414" lon="17.7360449">
        <ele>45.3192</ele>
        <time>2014-05-23T18:29:52Z</time>
      </trkpt>
      <trkpt lat="59.9948155" lon="17.7360287">
        <ele>45.7999</ele>
        <time>2014-05-23T18:29:53Z</time>
      </trkpt>
      <trkpt lat="59.9947872" lon="17.7360147">
        <ele>46.2806</ele>
        <time>2014-05-23T18:29:54Z</time>
      </trkpt>
      <trkpt lat="59.9947666" lon="17.7359943">
        <ele>46.2806</ele>
        <time>2014-05-23T18:29:55Z</time>
      </trkpt>
      <trkpt lat="59.9947416" lon="17.7359717">
        <ele>47.7225</ele>
        <time>2014-05-23T18:29:56Z</time>
      </trkpt>
      <trkpt lat="59.994717" lon="17.7359506">
        <ele>47.7225</ele>
        <time>2014-05-23T18:29:57Z</time>
      </trkpt>
      <trkpt lat="59.9946961" lon="17.7359344">
        <ele>48.684</ele>
        <time>2014-05-23T18:29:58Z</time>
      </trkpt>
      <trkpt lat="59.9946653" lon="17.7359177">
        <ele>49.1646</ele>
        <time>2014-05-23T18:29:59Z</time>
      </trkpt>
      <trkpt lat="59.9946269" lon="17.7358912">
        <ele>49.1646</ele>
        <time>2014-05-23T18:30:00Z</time>
      </trkpt>
      <trkpt lat="59.9946028" lon="17.7358733">
        <ele>49.6453</ele>
        <time>2014-05-23T18:30:01Z</time>
      </trkpt>
      <trkpt lat="59.994577" lon="17.7358545">
        <ele>50.126</ele>
        <time>2014-05-23T18:30:02Z</time>
      </trkpt>
      <trkpt lat="59.9945567" lon="17.7358337">
        <ele>49.6453</ele>
        <time>2014-05-23T18:30:03Z</time>
      </trkpt>
      <trkpt lat="59.9945349" lon="17.7358133">
        <ele>50.6066</ele>
        <time>2014-05-23T18:30:04Z</time>
      </trkpt>
      <trkpt lat="59.9945021" lon="17.7357807">
        <ele>49.1646</ele>
        <time>2014-05-23T18:30:05Z</time>
      </trkpt>
      <trkpt lat="59.9944862" lon="17.7357625">
        <ele>49.1646</ele>
        <time>2014-05-23T18:30:06Z</time>
      </trkpt>
      <trkpt lat="59.9944615" lon="17.7357607">
        <ele>49.6453</ele>
        <time>2014-05-23T18:30:07Z</time>
      </trkpt>
      <trkpt lat="59.9944383" lon="17.7357495">
        <ele>49.1646</ele>
        <time>2014-05-23T18:30:08Z</time>
      </trkpt>
      <trkpt lat="59.9944132" lon="17.7357394">
        <ele>48.684</ele>
        <time>2014-05-23T18:30:09Z</time>
      </trkpt>
      <trkpt lat="59.9943919" lon="17.7357247">
        <ele>48.684</ele>
        <time>2014-05-23T18:30:10Z</time>
      </trkpt>
      <trkpt lat="59.9943734" lon="17.7357096">
        <ele>48.2034</ele>
        <time>2014-05-23T18:30:11Z</time>
      </trkpt>
      <trkpt lat="59.9943484" lon="17.7357132">
        <ele>47.7225</ele>
        <time>2014-05-23T18:30:12Z</time>
      </trkpt>
      <trkpt lat="59.9943314" lon="17.7357166">
        <ele>48.2034</ele>
        <time>2014-05-23T18:30:13Z</time>
      </trkpt>
      <trkpt lat="59.9943224" lon="17.7357273">
        <ele>48.2034</ele>
        <time>2014-05-23T18:30:14Z</time>
      </trkpt>
      <trkpt lat="59.9943132" lon="17.7357413">
        <ele>48.684</ele>
        <time>2014-05-23T18:30:15Z</time>
      </trkpt>
      <trkpt lat="59.9942986" lon="17.7357463">
        <ele>47.7225</ele>
        <time>2014-05-23T18:30:16Z</time>
      </trkpt>
      <trkpt lat="59.9942793" lon="17.7357358">
        <ele>47.2418</ele>
        <time>2014-05-23T18:30:17Z</time>
      </trkpt>
      <trkpt lat="59.9942604" lon="17.7357199">
        <ele>47.2418</ele>
        <time>2014-05-23T18:30:18Z</time>
      </trkpt>
      <trkpt lat="59.9942421" lon="17.7357023">
        <ele>47.2418</ele>
        <time>2014-05-23T18:30:19Z</time>
      </trkpt>
      <trkpt lat="59.9942213" lon="17.7356991">
        <ele>47.7225</ele>
        <time>2014-05-23T18:30:20Z</time>
      </trkpt>
      <trkpt lat="59.994197" lon="17.7357004">
        <ele>48.2034</ele>
        <time>2014-05-23T18:30:21Z</time>
      </trkpt>
      <trkpt lat="59.9941765" lon="17.7357086">
        <ele>48.684</ele>
        <time>2014-05-23T18:30:22Z</time>
      </trkpt>
      <trkpt lat="59.9941443" lon="17.7357197">
        <ele>48.684</ele>
        <time>2014-05-23T18:30:23Z</time>
      </trkpt>
      <trkpt lat="59.9941024" lon="17.7357167">
        <ele>48.684</ele>
        <time>2014-05-23T18:30:24Z</time>
      </trkpt>
      <trkpt lat="59.9940702" lon="17.7357224">
        <ele>50.126</ele>
        <time>2014-05-23T18:30:25Z</time>
      </trkpt>
      <trkpt lat="59.9940375" lon="17.7357282">
        <ele>50.6066</ele>
        <time>2014-05-23T18:30:26Z</time>
      </trkpt>
      <trkpt lat="59.9940025" lon="17.7357377">
        <ele>51.0872</ele>
        <time>2014-05-23T18:30:27Z</time>
      </trkpt>
      <trkpt lat="59.9939719" lon="17.7357337">
        <ele>50.126</ele>
        <time>2014-05-23T18:30:28Z</time>
      </trkpt>
      <trkpt lat="59.9939421" lon="17.7357143">
        <ele>48.684</ele>
        <time>2014-05-23T18:30:29Z</time>
      </trkpt>
      <trkpt lat="59.9939185" lon="17.7357071">
        <ele>47.7225</ele>
        <time>2014-05-23T18:30:30Z</time>
      </trkpt>
      <trkpt lat="59.9938998" lon="17.7357049">
        <ele>47.2418</ele>
        <time>2014-05-23T18:30:31Z</time>
      </trkpt>
      <trkpt lat="59.9938847" lon="17.735706">
        <ele>47.7225</ele>
        <time>2014-05-23T18:30:32Z</time>
      </trkpt>
      <trkpt lat="59.9938604" lon="17.7357079">
        <ele>47.2418</ele>
        <time>2014-05-23T18:30:33Z</time>
      </trkpt>
      <trkpt lat="59.993834" lon="17.7357061">
        <ele>47.7225</ele>
        <time>2014-05-23T18:30:34Z</time>
      </trkpt>
      <trkpt lat="59.993803" lon="17.7357099">
        <ele>48.684</ele>
        <time>2014-05-23T18:30:35Z</time>
      </trkpt>
      <trkpt lat="59.9937766" lon="17.7357097">
        <ele>49.1646</ele>
        <time>2014-05-23T18:30:36Z</time>
      </trkpt>
      <trkpt lat="59.993743" lon="17.7357199">
        <ele>49.6453</ele>
        <time>2014-05-23T18:30:37Z</time>
      </trkpt>
      <trkpt lat="59.9937134" lon="17.7357354">
        <ele>50.6066</ele>
        <time>2014-05-23T18:30:38Z</time>
      </trkpt>
      <trkpt lat="59.9936824" lon="17.7357534">
        <ele>50.6066</ele>
        <time>2014-05-23T18:30:39Z</time>
      </trkpt>
      <trkpt lat="59.9936593" lon="17.7357597">
        <ele>50.6066</ele>
        <time>2014-05-23T18:30:40Z</time>
      </trkpt>
      <trkpt lat="59.9936341" lon="17.7357547">
        <ele>50.126</ele>
        <time>2014-05-23T18:30:41Z</time>
      </trkpt>
      <trkpt lat="59.9936137" lon="17.7357515">
        <ele>50.126</ele>
        <time>2014-05-23T18:30:42Z</time>
      </trkpt>
      <trkpt lat="59.9935873" lon="17.7357548">
        <ele>50.126</ele>
        <time>2014-05-23T18:30:43Z</time>
      </trkpt>
      <trkpt lat="59.9935605" lon="17.735762">
        <ele>50.126</ele>
        <time>2014-05-23T18:30:44Z</time>
      </trkpt>
      <trkpt lat="59.993534" lon="17.7357671">
        <ele>51.0872</ele>
        <time>2014-05-23T18:30:45Z</time>
      </trkpt>
      <trkpt lat="59.9935103" lon="17.7357666">
        <ele>51.0872</ele>
        <time>2014-05-23T18:30:46Z</time>
      </trkpt>
      <trkpt lat="59.9934849" lon="17.7357705">
        <ele>50.126</ele>
        <time>2014-05-23T18:30:47Z</time>
      </trkpt>
      <trkpt lat="59.9934538" lon="17.7357956">
        <ele>51.0872</ele>
        <time>2014-05-23T18:30:48Z</time>
      </trkpt>
      <trkpt lat="59.9934258" lon="17.7358282">
        <ele>52.5292</ele>
        <time>2014-05-23T18:30:49Z</time>
      </trkpt>
      <trkpt lat="59.9934005" lon="17.7358645">
        <ele>53.9712</ele>
        <time>2014-05-23T18:30:50Z</time>
      </trkpt>
      <trkpt lat="59.9933776" lon="17.7358877">
        <ele>54.9324</ele>
        <time>2014-05-23T18:30:51Z</time>
      </trkpt>
      <trkpt lat="59.9933568" lon="17.7359073">
        <ele>55.4131</ele>
        <time>2014-05-23T18:30:52Z</time>
      </trkpt>
      <trkpt lat="59.9933419" lon="17.7359319">
        <ele>55.8938</ele>
        <time>2014-05-23T18:30:53Z</time>
      </trkpt>
      <trkpt lat="59.9933255" lon="17.7359544">
        <ele>56.3745</ele>
        <time>2014-05-23T18:30:54Z</time>
      </trkpt>
      <trkpt lat="59.9933109" lon="17.7359825">
        <ele>56.8551</ele>
        <time>2014-05-23T18:30:55Z</time>
      </trkpt>
      <trkpt lat="59.9932905" lon="17.7360126">
        <ele>56.8551</ele>
        <time>2014-05-23T18:30:56Z</time>
      </trkpt>
      <trkpt lat="59.9932698" lon="17.7360549">
        <ele>58.2971</ele>
        <time>2014-05-23T18:30:57Z</time>
      </trkpt>
      <trkpt lat="59.9932449" lon="17.7361021">
        <ele>59.7391</ele>
        <time>2014-05-23T18:30:58Z</time>
      </trkpt>
      <trkpt lat="59.9932264" lon="17.7361375">
        <ele>59.7391</ele>
        <time>2014-05-23T18:30:59Z</time>
      </trkpt>
      <trkpt lat="59.9932135" lon="17.7361671">
        <ele>60.2197</ele>
        <time>2014-05-23T18:31:00Z</time>
      </trkpt>
      <trkpt lat="59.993202" lon="17.7361893">
        <ele>60.7003</ele>
        <time>2014-05-23T18:31:01Z</time>
      </trkpt>
      <trkpt lat="59.9931894" lon="17.7362108">
        <ele>60.7003</ele>
        <time>2014-05-23T18:31:02Z</time>
      </trkpt>
      <trkpt lat="59.9931725" lon="17.7362457">
        <ele>61.181</ele>
        <time>2014-05-23T18:31:03Z</time>
      </trkpt>
      <trkpt lat="59.9931586" lon="17.7362715">
        <ele>61.181</ele>
        <time>2014-05-23T18:31:04Z</time>
      </trkpt>
      <trkpt lat="59.9931472" lon="17.7363011">
        <ele>61.181</ele>
        <time>2014-05-23T18:31:05Z</time>
      </trkpt>
      <trkpt lat="59.9931352" lon="17.7363338">
        <ele>61.6617</ele>
        <time>2014-05-23T18:31:06Z</time>
      </trkpt>
      <trkpt lat="59.993125" lon="17.736369">
        <ele>62.6229</ele>
        <time>2014-05-23T18:31:07Z</time>
      </trkpt>
      <trkpt lat="59.9931135" lon="17.7364067">
        <ele>62.6229</ele>
        <time>2014-05-23T18:31:08Z</time>
      </trkpt>
      <trkpt lat="59.9931029" lon="17.7364426">
        <ele>63.1036</ele>
        <time>2014-05-23T18:31:09Z</time>
      </trkpt>
      <trkpt lat="59.993091" lon="17.7364777">
        <ele>64.0651</ele>
        <time>2014-05-23T18:31:10Z</time>
      </trkpt>
      <trkpt lat="59.9930782" lon="17.7365087">
        <ele>64.5457</ele>
        <time>2014-05-23T18:31:11Z</time>
      </trkpt>
      <trkpt lat="59.9930648" lon="17.7365353">
        <ele>64.5457</ele>
        <time>2014-05-23T18:31:12Z</time>
      </trkpt>
      <trkpt lat="59.9930508" lon="17.7365684">
        <ele>64.0651</ele>
        <time>2014-05-23T18:31:13Z</time>
      </trkpt>
      <trkpt lat="59.9930333" lon="17.7366115">
        <ele>63.1036</ele>
        <time>2014-05-23T18:31:14Z</time>
      </trkpt>
      <trkpt lat="59.9930155" lon="17.7366538">
        <ele>61.6617</ele>
        <time>2014-05-23T18:31:15Z</time>
      </trkpt>
      <trkpt lat="59.9929964" lon="17.7366918">
        <ele>61.6617</ele>
        <time>2014-05-23T18:31:16Z</time>
      </trkpt>
      <trkpt lat="59.9929829" lon="17.7367362">
        <ele>62.6229</ele>
        <time>2014-05-23T18:31:17Z</time>
      </trkpt>
      <trkpt lat="59.9929636" lon="17.7367766">
        <ele>62.6229</ele>
        <time>2014-05-23T18:31:18Z</time>
      </trkpt>
      <trkpt lat="59.9929454" lon="17.7368169">
        <ele>63.1036</ele>
        <time>2014-05-23T18:31:19Z</time>
      </trkpt>
      <trkpt lat="59.9929265" lon="17.7368591">
        <ele>64.0651</ele>
        <time>2014-05-23T18:31:20Z</time>
      </trkpt>
      <trkpt lat="59.9929066" lon="17.7368967">
        <ele>63.5844</ele>
        <time>2014-05-23T18:31:21Z</time>
      </trkpt>
      <trkpt lat="59.9928844" lon="17.7369393">
        <ele>64.0651</ele>
        <time>2014-05-23T18:31:22Z</time>
      </trkpt>
      <trkpt lat="59.992862" lon="17.7369823">
        <ele>64.5457</ele>
        <time>2014-05-23T18:31:23Z</time>
      </trkpt>
      <trkpt lat="59.9928441" lon="17.7370202">
        <ele>63.5844</ele>
        <time>2014-05-23T18:31:24Z</time>
      </trkpt>
      <trkpt lat="59.9928263" lon="17.7370532">
        <ele>63.5844</ele>
        <time>2014-05-23T18:31:25Z</time>
      </trkpt>
      <trkpt lat="59.9928075" lon="17.7370705">
        <ele>63.5844</ele>
        <time>2014-05-23T18:31:26Z</time>
      </trkpt>
      <trkpt lat="59.9927888" lon="17.7370977">
        <ele>63.5844</ele>
        <time>2014-05-23T18:31:27Z</time>
      </trkpt>
      <trkpt lat="59.9927665" lon="17.737135">
        <ele>63.5844</ele>
        <time>2014-05-23T18:31:28Z</time>
      </trkpt>
      <trkpt lat="59.9927462" lon="17.7371751">
        <ele>64.5457</ele>
        <time>2014-05-23T18:31:29Z</time>
      </trkpt>
      <trkpt lat="59.9927277" lon="17.7372049">
        <ele>65.0264</ele>
        <time>2014-05-23T18:31:30Z</time>
      </trkpt>
      <trkpt lat="59.9927104" lon="17.7372433">
        <ele>65.5071</ele>
        <time>2014-05-23T18:31:31Z</time>
      </trkpt>
      <trkpt lat="59.9926882" lon="17.7372739">
        <ele>64.5457</ele>
        <time>2014-05-23T18:31:32Z</time>
      </trkpt>
      <trkpt lat="59.9926706" lon="17.7372941">
        <ele>64.0651</ele>
        <time>2014-05-23T18:31:33Z</time>
      </trkpt>
      <trkpt lat="59.9926543" lon="17.7373145">
        <ele>64.5457</ele>
        <time>2014-05-23T18:31:34Z</time>
      </trkpt>
      <trkpt lat="59.9926303" lon="17.7373604">
        <ele>65.0264</ele>
        <time>2014-05-23T18:31:35Z</time>
      </trkpt>
      <trkpt lat="59.9926058" lon="17.7374049">
        <ele>65.9877</ele>
        <time>2014-05-23T18:31:36Z</time>
      </trkpt>
      <trkpt lat="59.9925825" lon="17.7374475">
        <ele>66.949</ele>
        <time>2014-05-23T18:31:37Z</time>
      </trkpt>
      <trkpt lat="59.9925562" lon="17.7374877">
        <ele>67.9103</ele>
        <time>2014-05-23T18:31:38Z</time>
      </trkpt>
      <trkpt lat="59.9925357" lon="17.7375176">
        <ele>68.3909</ele>
        <time>2014-05-23T18:31:39Z</time>
      </trkpt>
      <trkpt lat="59.9925173" lon="17.7375401">
        <ele>68.3909</ele>
        <time>2014-05-23T18:31:40Z</time>
      </trkpt>
      <trkpt lat="59.992495" lon="17.737553">
        <ele>67.9103</ele>
        <time>2014-05-23T18:31:41Z</time>
      </trkpt>
      <trkpt lat="59.9924685" lon="17.7375668">
        <ele>66.4683</ele>
        <time>2014-05-23T18:31:42Z</time>
      </trkpt>
      <trkpt lat="59.9924427" lon="17.7375806">
        <ele>65.5071</ele>
        <time>2014-05-23T18:31:43Z</time>
      </trkpt>
      <trkpt lat="59.9924213" lon="17.737596">
        <ele>65.5071</ele>
        <time>2014-05-23T18:31:44Z</time>
      </trkpt>
      <trkpt lat="59.9923974" lon="17.7376014">
        <ele>64.0651</ele>
        <time>2014-05-23T18:31:45Z</time>
      </trkpt>
      <trkpt lat="59.9923717" lon="17.7376278">
        <ele>64.0651</ele>
        <time>2014-05-23T18:31:46Z</time>
      </trkpt>
      <trkpt lat="59.9923479" lon="17.737647">
        <ele>63.5844</ele>
        <time>2014-05-23T18:31:47Z</time>
      </trkpt>
      <trkpt lat="59.9923214" lon="17.7376595">
        <ele>62.6229</ele>
        <time>2014-05-23T18:31:48Z</time>
      </trkpt>
      <trkpt lat="59.9922965" lon="17.7376776">
        <ele>62.6229</ele>
        <time>2014-05-23T18:31:49Z</time>
      </trkpt>
      <trkpt lat="59.9922739" lon="17.7376963">
        <ele>63.1036</ele>
        <time>2014-05-23T18:31:50Z</time>
      </trkpt>
      <trkpt lat="59.9922539" lon="17.737704">
        <ele>63.1036</ele>
        <time>2014-05-23T18:31:51Z</time>
      </trkpt>
      <trkpt lat="59.992238" lon="17.7377001">
        <ele>62.6229</ele>
        <time>2014-05-23T18:31:52Z</time>
      </trkpt>
      <trkpt lat="59.9922246" lon="17.7377076">
        <ele>63.1036</ele>
        <time>2014-05-23T18:31:53Z</time>
      </trkpt>
      <trkpt lat="59.992207" lon="17.7377072">
        <ele>63.1036</ele>
        <time>2014-05-23T18:31:54Z</time>
      </trkpt>
      <trkpt lat="59.9921832" lon="17.7377065">
        <ele>61.6617</ele>
        <time>2014-05-23T18:31:55Z</time>
      </trkpt>
      <trkpt lat="59.9921604" lon="17.7377164">
        <ele>61.181</ele>
        <time>2014-05-23T18:31:56Z</time>
      </trkpt>
      <trkpt lat="59.9921387" lon="17.7377283">
        <ele>60.7003</ele>
        <time>2014-05-23T18:31:57Z</time>
      </trkpt>
      <trkpt lat="59.9921166" lon="17.7377274">
        <ele>60.7003</ele>
        <time>2014-05-23T18:31:58Z</time>
      </trkpt>
      <trkpt lat="59.9920931" lon="17.7377424">
        <ele>61.181</ele>
        <time>2014-05-23T18:31:59Z</time>
      </trkpt>
      <trkpt lat="59.9920717" lon="17.7377581">
        <ele>62.1423</ele>
        <time>2014-05-23T18:32:00Z</time>
      </trkpt>
      <trkpt lat="59.9920548" lon="17.737756">
        <ele>62.6229</ele>
        <time>2014-05-23T18:32:01Z</time>
      </trkpt>
      <trkpt lat="59.9920365" lon="17.737748">
        <ele>62.1423</ele>
        <time>2014-05-23T18:32:02Z</time>
      </trkpt>
      <trkpt lat="59.9920104" lon="17.7377426">
        <ele>60.7003</ele>
        <time>2014-05-23T18:32:03Z</time>
      </trkpt>
      <trkpt lat="59.9919848" lon="17.7377391">
        <ele>60.2197</ele>
        <time>2014-05-23T18:32:04Z</time>
      </trkpt>
      <trkpt lat="59.9919589" lon="17.7377422">
        <ele>60.2197</ele>
        <time>2014-05-23T18:32:05Z</time>
      </trkpt>
      <trkpt lat="59.9919346" lon="17.7377381">
        <ele>58.7777</ele>
        <time>2014-05-23T18:32:06Z</time>
      </trkpt>
      <trkpt lat="59.9919113" lon="17.737738">
        <ele>58.2971</ele>
        <time>2014-05-23T18:32:07Z</time>
      </trkpt>
      <trkpt lat="59.9918875" lon="17.7377604">
        <ele>59.2584</ele>
        <time>2014-05-23T18:32:08Z</time>
      </trkpt>
      <trkpt lat="59.9918598" lon="17.7377774">
        <ele>59.7391</ele>
        <time>2014-05-23T18:32:09Z</time>
      </trkpt>
      <trkpt lat="59.9918289" lon="17.7377776">
        <ele>59.7391</ele>
        <time>2014-05-23T18:32:10Z</time>
      </trkpt>
      <trkpt lat="59.9918004" lon="17.7377801">
        <ele>59.2584</ele>
        <time>2014-05-23T18:32:11Z</time>
      </trkpt>
      <trkpt lat="59.9917796" lon="17.7377858">
        <ele>58.7777</ele>
        <time>2014-05-23T18:32:12Z</time>
      </trkpt>
      <trkpt lat="59.9917635" lon="17.737797">
        <ele>58.2971</ele>
        <time>2014-05-23T18:32:13Z</time>
      </trkpt>
      <trkpt lat="59.991747" lon="17.7378163">
        <ele>59.2584</ele>
        <time>2014-05-23T18:32:14Z</time>
      </trkpt>
      <trkpt lat="59.9917283" lon="17.7378153">
        <ele>58.2971</ele>
        <time>2014-05-23T18:32:15Z</time>
      </trkpt>
      <trkpt lat="59.991704" lon="17.7378045">
        <ele>57.3358</ele>
        <time>2014-05-23T18:32:16Z</time>
      </trkpt>
      <trkpt lat="59.9916742" lon="17.7378025">
        <ele>57.8165</ele>
        <time>2014-05-23T18:32:17Z</time>
      </trkpt>
      <trkpt lat="59.9916386" lon="17.737796">
        <ele>57.8165</ele>
        <time>2014-05-23T18:32:18Z</time>
      </trkpt>
      <trkpt lat="59.991605" lon="17.7377908">
        <ele>58.7777</ele>
        <time>2014-05-23T18:32:19Z</time>
      </trkpt>
      <trkpt lat="59.9915714" lon="17.7377833">
        <ele>58.2971</ele>
        <time>2014-05-23T18:32:20Z</time>
      </trkpt>
      <trkpt lat="59.9915424" lon="17.7377762">
        <ele>58.2971</ele>
        <time>2014-05-23T18:32:21Z</time>
      </trkpt>
      <trkpt lat="59.991521" lon="17.7377812">
        <ele>58.7777</ele>
        <time>2014-05-23T18:32:22Z</time>
      </trkpt>
      <trkpt lat="59.9914989" lon="17.737792">
        <ele>58.7777</ele>
        <time>2014-05-23T18:32:23Z</time>
      </trkpt>
      <trkpt lat="59.9914717" lon="17.7378009">
        <ele>58.7777</ele>
        <time>2014-05-23T18:32:24Z</time>
      </trkpt>
      <trkpt lat="59.9914414" lon="17.7378175">
        <ele>59.7391</ele>
        <time>2014-05-23T18:32:25Z</time>
      </trkpt>
      <trkpt lat="59.9914096" lon="17.7378334">
        <ele>60.7003</ele>
        <time>2014-05-23T18:32:26Z</time>
      </trkpt>
      <trkpt lat="59.9913785" lon="17.7378469">
        <ele>61.181</ele>
        <time>2014-05-23T18:32:27Z</time>
      </trkpt>
      <trkpt lat="59.9913498" lon="17.7378578">
        <ele>61.181</ele>
        <time>2014-05-23T18:32:28Z</time>
      </trkpt>
      <trkpt lat="59.991316" lon="17.7378651">
        <ele>60.7003</ele>
        <time>2014-05-23T18:32:29Z</time>
      </trkpt>
      <trkpt lat="59.9912816" lon="17.7378697">
        <ele>60.7003</ele>
        <time>2014-05-23T18:32:30Z</time>
      </trkpt>
      <trkpt lat="59.9912511" lon="17.7378763">
        <ele>60.7003</ele>
        <time>2014-05-23T18:32:31Z</time>
      </trkpt>
      <trkpt lat="59.9912216" lon="17.7378826">
        <ele>60.7003</ele>
        <time>2014-05-23T18:32:32Z</time>
      </trkpt>
      <trkpt lat="59.9911933" lon="17.7378899">
        <ele>60.7003</ele>
        <time>2014-05-23T18:32:33Z</time>
      </trkpt>
      <trkpt lat="59.9911642" lon="17.737893">
        <ele>60.2197</ele>
        <time>2014-05-23T18:32:34Z</time>
      </trkpt>
      <trkpt lat="59.9911373" lon="17.7378916">
        <ele>59.7391</ele>
        <time>2014-05-23T18:32:35Z</time>
      </trkpt>
      <trkpt lat="59.9911075" lon="17.7378871">
        <ele>59.2584</ele>
        <time>2014-05-23T18:32:36Z</time>
      </trkpt>
      <trkpt lat="59.9910799" lon="17.7378851">
        <ele>58.7777</ele>
        <time>2014-05-23T18:32:37Z</time>
      </trkpt>
      <trkpt lat="59.991056" lon="17.7378961">
        <ele>58.7777</ele>
        <time>2014-05-23T18:32:38Z</time>
      </trkpt>
      <trkpt lat="59.9910328" lon="17.7379044">
        <ele>58.7777</ele>
        <time>2014-05-23T18:32:39Z</time>
      </trkpt>
      <trkpt lat="59.9910052" lon="17.7379104">
        <ele>57.8165</ele>
        <time>2014-05-23T18:32:40Z</time>
      </trkpt>
      <trkpt lat="59.9909739" lon="17.7379389">
        <ele>57.8165</ele>
        <time>2014-05-23T18:32:41Z</time>
      </trkpt>
      <trkpt lat="59.9909462" lon="17.7379579">
        <ele>57.3358</ele>
        <time>2014-05-23T18:32:42Z</time>
      </trkpt>
      <trkpt lat="59.9909161" lon="17.7379757">
        <ele>57.3358</ele>
        <time>2014-05-23T18:32:43Z</time>
      </trkpt>
      <trkpt lat="59.990887" lon="17.7379847">
        <ele>57.3358</ele>
        <time>2014-05-23T18:32:44Z</time>
      </trkpt>
      <trkpt lat="59.9908565" lon="17.7379974">
        <ele>56.8551</ele>
        <time>2014-05-23T18:32:45Z</time>
      </trkpt>
      <trkpt lat="59.9908274" lon="17.738008">
        <ele>56.8551</ele>
        <time>2014-05-23T18:32:46Z</time>
      </trkpt>
      <trkpt lat="59.9908021" lon="17.7380189">
        <ele>56.8551</ele>
        <time>2014-05-23T18:32:47Z</time>
      </trkpt>
      <trkpt lat="59.9907773" lon="17.7380478">
        <ele>56.8551</ele>
        <time>2014-05-23T18:32:48Z</time>
      </trkpt>
      <trkpt lat="59.9907472" lon="17.7380733">
        <ele>56.3745</ele>
        <time>2014-05-23T18:32:49Z</time>
      </trkpt>
      <trkpt lat="59.9907157" lon="17.7381037">
        <ele>56.8551</ele>
        <time>2014-05-23T18:32:50Z</time>
      </trkpt>
      <trkpt lat="59.9906856" lon="17.7381256">
        <ele>56.8551</ele>
        <time>2014-05-23T18:32:51Z</time>
      </trkpt>
      <trkpt lat="59.9906579" lon="17.7381441">
        <ele>56.8551</ele>
        <time>2014-05-23T18:32:52Z</time>
      </trkpt>
      <trkpt lat="59.9906273" lon="17.73817">
        <ele>56.8551</ele>
        <time>2014-05-23T18:32:53Z</time>
      </trkpt>
      <trkpt lat="59.9905963" lon="17.7381981">
        <ele>56.3745</ele>
        <time>2014-05-23T18:32:54Z</time>
      </trkpt>
      <trkpt lat="59.9905737" lon="17.7382362">
        <ele>58.2971</ele>
        <time>2014-05-23T18:32:55Z</time>
      </trkpt>
      <trkpt lat="59.9905469" lon="17.7382643">
        <ele>58.7777</ele>
        <time>2014-05-23T18:32:56Z</time>
      </trkpt>
      <trkpt lat="59.9905248" lon="17.7382851">
        <ele>60.7003</ele>
        <time>2014-05-23T18:32:57Z</time>
      </trkpt>
      <trkpt lat="59.9905013" lon="17.7383008">
        <ele>61.181</ele>
        <time>2014-05-23T18:32:58Z</time>
      </trkpt>
      <trkpt lat="59.9904768" lon="17.7383073">
        <ele>61.6617</ele>
        <time>2014-05-23T18:32:59Z</time>
      </trkpt>
      <trkpt lat="59.9904533" lon="17.7383055">
        <ele>62.1423</ele>
        <time>2014-05-23T18:33:00Z</time>
      </trkpt>
      <trkpt lat="59.9904393" lon="17.738316">
        <ele>63.5844</ele>
        <time>2014-05-23T18:33:01Z</time>
      </trkpt>
      <trkpt lat="59.9904219" lon="17.7383166">
        <ele>63.5844</ele>
        <time>2014-05-23T18:33:02Z</time>
      </trkpt>
      <trkpt lat="59.990397" lon="17.7383279">
        <ele>63.5844</ele>
        <time>2014-05-23T18:33:03Z</time>
      </trkpt>
      <trkpt lat="59.9903733" lon="17.7383332">
        <ele>64.5457</ele>
        <time>2014-05-23T18:33:04Z</time>
      </trkpt>
      <trkpt lat="59.9903481" lon="17.7383473">
        <ele>65.0264</ele>
        <time>2014-05-23T18:33:05Z</time>
      </trkpt>
      <trkpt lat="59.9903235" lon="17.7383675">
        <ele>65.5071</ele>
        <time>2014-05-23T18:33:06Z</time>
      </trkpt>
      <trkpt lat="59.9902986" lon="17.7383991">
        <ele>66.4683</ele>
        <time>2014-05-23T18:33:07Z</time>
      </trkpt>
      <trkpt lat="59.9902708" lon="17.7384239">
        <ele>65.5071</ele>
        <time>2014-05-23T18:33:08Z</time>
      </trkpt>
      <trkpt lat="59.9902453" lon="17.7384348">
        <ele>65.5071</ele>
        <time>2014-05-23T18:33:09Z</time>
      </trkpt>
      <trkpt lat="59.9902177" lon="17.7384359">
        <ele>64.5457</ele>
        <time>2014-05-23T18:33:10Z</time>
      </trkpt>
      <trkpt lat="59.9901933" lon="17.7384524">
        <ele>65.0264</ele>
        <time>2014-05-23T18:33:11Z</time>
      </trkpt>
      <trkpt lat="59.9901702" lon="17.7384629">
        <ele>65.5071</ele>
        <time>2014-05-23T18:33:12Z</time>
      </trkpt>
      <trkpt lat="59.9901427" lon="17.7384608">
        <ele>64.5457</ele>
        <time>2014-05-23T18:33:13Z</time>
      </trkpt>
      <trkpt lat="59.9901207" lon="17.738466">
        <ele>65.0264</ele>
        <time>2014-05-23T18:33:14Z</time>
      </trkpt>
      <trkpt lat="59.990095" lon="17.7384736">
        <ele>64.5457</ele>
        <time>2014-05-23T18:33:15Z</time>
      </trkpt>
      <trkpt lat="59.9900695" lon="17.7384783">
        <ele>64.0651</ele>
        <time>2014-05-23T18:33:16Z</time>
      </trkpt>
      <trkpt lat="59.9900415" lon="17.7384785">
        <ele>63.1036</ele>
        <time>2014-05-23T18:33:17Z</time>
      </trkpt>
      <trkpt lat="59.9900117" lon="17.738487">
        <ele>62.6229</ele>
        <time>2014-05-23T18:33:18Z</time>
      </trkpt>
      <trkpt lat="59.9899863" lon="17.7384996">
        <ele>62.6229</ele>
        <time>2014-05-23T18:33:19Z</time>
      </trkpt>
      <trkpt lat="59.9899615" lon="17.7385052">
        <ele>63.1036</ele>
        <time>2014-05-23T18:33:20Z</time>
      </trkpt>
      <trkpt lat="59.9899351" lon="17.7385182">
        <ele>62.6229</ele>
        <time>2014-05-23T18:33:21Z</time>
      </trkpt>
      <trkpt lat="59.989912" lon="17.7385401">
        <ele>62.6229</ele>
        <time>2014-05-23T18:33:22Z</time>
      </trkpt>
      <trkpt lat="59.989885" lon="17.7385658">
        <ele>62.6229</ele>
        <time>2014-05-23T18:33:23Z</time>
      </trkpt>
      <trkpt lat="59.9898537" lon="17.7385851">
        <ele>62.6229</ele>
        <time>2014-05-23T18:33:24Z</time>
      </trkpt>
      <trkpt lat="59.9898305" lon="17.7386006">
        <ele>62.1423</ele>
        <time>2014-05-23T18:33:25Z</time>
      </trkpt>
      <trkpt lat="59.9898068" lon="17.7386106">
        <ele>62.6229</ele>
        <time>2014-05-23T18:33:26Z</time>
      </trkpt>
      <trkpt lat="59.9897796" lon="17.7386232">
        <ele>62.6229</ele>
        <time>2014-05-23T18:33:27Z</time>
      </trkpt>
      <trkpt lat="59.9897527" lon="17.7386365">
        <ele>62.6229</ele>
        <time>2014-05-23T18:33:28Z</time>
      </trkpt>
      <trkpt lat="59.9897304" lon="17.7386569">
        <ele>63.5844</ele>
        <time>2014-05-23T18:33:29Z</time>
      </trkpt>
      <trkpt lat="59.9897068" lon="17.7386577">
        <ele>64.0651</ele>
        <time>2014-05-23T18:33:30Z</time>
      </trkpt>
      <trkpt lat="59.9896817" lon="17.7386566">
        <ele>64.0651</ele>
        <time>2014-05-23T18:33:31Z</time>
      </trkpt>
      <trkpt lat="59.9896568" lon="17.738659">
        <ele>64.5457</ele>
        <time>2014-05-23T18:33:32Z</time>
      </trkpt>
      <trkpt lat="59.9896304" lon="17.7386602">
        <ele>64.5457</ele>
        <time>2014-05-23T18:33:33Z</time>
      </trkpt>
      <trkpt lat="59.9896051" lon="17.7386684">
        <ele>64.5457</ele>
        <time>2014-05-23T18:33:34Z</time>
      </trkpt>
      <trkpt lat="59.9895755" lon="17.7386793">
        <ele>65.0264</ele>
        <time>2014-05-23T18:33:35Z</time>
      </trkpt>
      <trkpt lat="59.9895424" lon="17.7387073">
        <ele>65.9877</ele>
        <time>2014-05-23T18:33:36Z</time>
      </trkpt>
      <trkpt lat="59.9895129" lon="17.738728">
        <ele>66.4683</ele>
        <time>2014-05-23T18:33:37Z</time>
      </trkpt>
      <trkpt lat="59.9894895" lon="17.738732">
        <ele>66.4683</ele>
        <time>2014-05-23T18:33:38Z</time>
      </trkpt>
      <trkpt lat="59.989467" lon="17.738733">
        <ele>66.4683</ele>
        <time>2014-05-23T18:33:39Z</time>
      </trkpt>
      <trkpt lat="59.989447" lon="17.738743">
        <ele>66.4683</ele>
        <time>2014-05-23T18:33:40Z</time>
      </trkpt>
      <trkpt lat="59.9894285" lon="17.738754">
        <ele>66.949</ele>
        <time>2014-05-23T18:33:41Z</time>
      </trkpt>
      <trkpt lat="59.9894086" lon="17.7387695">
        <ele>66.4683</ele>
        <time>2014-05-23T18:33:42Z</time>
      </trkpt>
      <trkpt lat="59.9893854" lon="17.7387793">
        <ele>66.4683</ele>
        <time>2014-05-23T18:33:43Z</time>
      </trkpt>
      <trkpt lat="59.9893603" lon="17.7387798">
        <ele>65.9877</ele>
        <time>2014-05-23T18:33:44Z</time>
      </trkpt>
      <trkpt lat="59.9893346" lon="17.7387882">
        <ele>65.5071</ele>
        <time>2014-05-23T18:33:45Z</time>
      </trkpt>
      <trkpt lat="59.9893083" lon="17.7388051">
        <ele>65.5071</ele>
        <time>2014-05-23T18:33:46Z</time>
      </trkpt>
      <trkpt lat="59.9892813" lon="17.7388166">
        <ele>65.5071</ele>
        <time>2014-05-23T18:33:47Z</time>
      </trkpt>
      <trkpt lat="59.9892565" lon="17.7388257">
        <ele>64.5457</ele>
        <time>2014-05-23T18:33:48Z</time>
      </trkpt>
      <trkpt lat="59.9892298" lon="17.7388345">
        <ele>63.1036</ele>
        <time>2014-05-23T18:33:49Z</time>
      </trkpt>
      <trkpt lat="59.9892061" lon="17.7388446">
        <ele>62.6229</ele>
        <time>2014-05-23T18:33:50Z</time>
      </trkpt>
      <trkpt lat="59.9891764" lon="17.7388569">
        <ele>61.181</ele>
        <time>2014-05-23T18:33:51Z</time>
      </trkpt>
      <trkpt lat="59.98915" lon="17.7388787">
        <ele>61.181</ele>
        <time>2014-05-23T18:33:52Z</time>
      </trkpt>
      <trkpt lat="59.9891196" lon="17.7389061">
        <ele>62.1423</ele>
        <time>2014-05-23T18:33:53Z</time>
      </trkpt>
      <trkpt lat="59.9890887" lon="17.7389119">
        <ele>61.181</ele>
        <time>2014-05-23T18:33:54Z</time>
      </trkpt>
      <trkpt lat="59.9890676" lon="17.7389271">
        <ele>61.181</ele>
        <time>2014-05-23T18:33:55Z</time>
      </trkpt>
      <trkpt lat="59.9890445" lon="17.7389466">
        <ele>61.181</ele>
        <time>2014-05-23T18:33:56Z</time>
      </trkpt>
      <trkpt lat="59.9890158" lon="17.7389813">
        <ele>61.6617</ele>
        <time>2014-05-23T18:33:57Z</time>
      </trkpt>
      <trkpt lat="59.9889817" lon="17.7390165">
        <ele>61.181</ele>
        <time>2014-05-23T18:33:58Z</time>
      </trkpt>
      <trkpt lat="59.9889476" lon="17.7390435">
        <ele>60.7003</ele>
        <time>2014-05-23T18:33:59Z</time>
      </trkpt>
      <trkpt lat="59.9889197" lon="17.7390627">
        <ele>60.7003</ele>
        <time>2014-05-23T18:34:00Z</time>
      </trkpt>
      <trkpt lat="59.9888979" lon="17.7390787">
        <ele>61.6617</ele>
        <time>2014-05-23T18:34:01Z</time>
      </trkpt>
      <trkpt lat="59.9888756" lon="17.7390906">
        <ele>61.6617</ele>
        <time>2014-05-23T18:34:02Z</time>
      </trkpt>
      <trkpt lat="59.9888487" lon="17.7391">
        <ele>61.6617</ele>
        <time>2014-05-23T18:34:03Z</time>
      </trkpt>
      <trkpt lat="59.9888212" lon="17.7391192">
        <ele>61.6617</ele>
        <time>2014-05-23T18:34:04Z</time>
      </trkpt>
      <trkpt lat="59.9887977" lon="17.7391358">
        <ele>61.6617</ele>
        <time>2014-05-23T18:34:05Z</time>
      </trkpt>
      <trkpt lat="59.9887797" lon="17.7391523">
        <ele>61.6617</ele>
        <time>2014-05-23T18:34:06Z</time>
      </trkpt>
      <trkpt lat="59.9887576" lon="17.739169">
        <ele>61.6617</ele>
        <time>2014-05-23T18:34:07Z</time>
      </trkpt>
      <trkpt lat="59.9887382" lon="17.7391837">
        <ele>62.1423</ele>
        <time>2014-05-23T18:34:08Z</time>
      </trkpt>
      <trkpt lat="59.9887192" lon="17.7391912">
        <ele>62.1423</ele>
        <time>2014-05-23T18:34:09Z</time>
      </trkpt>
      <trkpt lat="59.9886981" lon="17.7392115">
        <ele>62.1423</ele>
        <time>2014-05-23T18:34:10Z</time>
      </trkpt>
      <trkpt lat="59.9886731" lon="17.7392216">
        <ele>62.6229</ele>
        <time>2014-05-23T18:34:11Z</time>
      </trkpt>
      <trkpt lat="59.9886487" lon="17.7392085">
        <ele>61.6617</ele>
        <time>2014-05-23T18:34:12Z</time>
      </trkpt>
      <trkpt lat="59.9886244" lon="17.7392091">
        <ele>60.7003</ele>
        <time>2014-05-23T18:34:13Z</time>
      </trkpt>
      <trkpt lat="59.9885991" lon="17.7392129">
        <ele>60.2197</ele>
        <time>2014-05-23T18:34:14Z</time>
      </trkpt>
      <trkpt lat="59.988573" lon="17.7392273">
        <ele>59.7391</ele>
        <time>2014-05-23T18:34:15Z</time>
      </trkpt>
      <trkpt lat="59.9885457" lon="17.7392543">
        <ele>59.7391</ele>
        <time>2014-05-23T18:34:16Z</time>
      </trkpt>
      <trkpt lat="59.9885175" lon="17.7392803">
        <ele>59.7391</ele>
        <time>2014-05-23T18:34:17Z</time>
      </trkpt>
      <trkpt lat="59.9884912" lon="17.7392949">
        <ele>59.7391</ele>
        <time>2014-05-23T18:34:18Z</time>
      </trkpt>
      <trkpt lat="59.9884675" lon="17.7392972">
        <ele>59.7391</ele>
        <time>2014-05-23T18:34:19Z</time>
      </trkpt>
      <trkpt lat="59.988438" lon="17.7393018">
        <ele>60.2197</ele>
        <time>2014-05-23T18:34:20Z</time>
      </trkpt>
      <trkpt lat="59.9884089" lon="17.7393065">
        <ele>60.7003</ele>
        <time>2014-05-23T18:34:21Z</time>
      </trkpt>
      <trkpt lat="59.9883793" lon="17.7393189">
        <ele>60.2197</ele>
        <time>2014-05-23T18:34:22Z</time>
      </trkpt>
      <trkpt lat="59.9883515" lon="17.7393296">
        <ele>60.7003</ele>
        <time>2014-05-23T18:34:23Z</time>
      </trkpt>
      <trkpt lat="59.988324" lon="17.7393351">
        <ele>59.7391</ele>
        <time>2014-05-23T18:34:24Z</time>
      </trkpt>
      <trkpt lat="59.9883001" lon="17.7393375">
        <ele>58.7777</ele>
        <time>2014-05-23T18:34:25Z</time>
      </trkpt>
      <trkpt lat="59.9882737" lon="17.7393526">
        <ele>58.7777</ele>
        <time>2014-05-23T18:34:26Z</time>
      </trkpt>
      <trkpt lat="59.9882457" lon="17.7393715">
        <ele>58.2971</ele>
        <time>2014-05-23T18:34:27Z</time>
      </trkpt>
      <trkpt lat="59.9882173" lon="17.739388">
        <ele>58.7777</ele>
        <time>2014-05-23T18:34:28Z</time>
      </trkpt>
      <trkpt lat="59.9881924" lon="17.7393844">
        <ele>56.8551</ele>
        <time>2014-05-23T18:34:29Z</time>
      </trkpt>
      <trkpt lat="59.9881741" lon="17.7393889">
        <ele>56.8551</ele>
        <time>2014-05-23T18:34:30Z</time>
      </trkpt>
      <trkpt lat="59.9881514" lon="17.7393946">
        <ele>56.8551</ele>
        <time>2014-05-23T18:34:31Z</time>
      </trkpt>
      <trkpt lat="59.9881224" lon="17.7393894">
        <ele>56.3745</ele>
        <time>2014-05-23T18:34:32Z</time>
      </trkpt>
      <trkpt lat="59.9880939" lon="17.7393989">
        <ele>56.8551</ele>
        <time>2014-05-23T18:34:33Z</time>
      </trkpt>
      <trkpt lat="59.9880661" lon="17.73941">
        <ele>57.8165</ele>
        <time>2014-05-23T18:34:34Z</time>
      </trkpt>
      <trkpt lat="59.9880344" lon="17.7394144">
        <ele>57.3358</ele>
        <time>2014-05-23T18:34:35Z</time>
      </trkpt>
      <trkpt lat="59.9880022" lon="17.7394235">
        <ele>57.3358</ele>
        <time>2014-05-23T18:34:36Z</time>
      </trkpt>
      <trkpt lat="59.9879746" lon="17.7394236">
        <ele>57.8165</ele>
        <time>2014-05-23T18:34:37Z</time>
      </trkpt>
      <trkpt lat="59.9879484" lon="17.7394292">
        <ele>58.2971</ele>
        <time>2014-05-23T18:34:38Z</time>
      </trkpt>
      <trkpt lat="59.9879205" lon="17.7394386">
        <ele>58.2971</ele>
        <time>2014-05-23T18:34:39Z</time>
      </trkpt>
      <trkpt lat="59.9878881" lon="17.739461">
        <ele>58.2971</ele>
        <time>2014-05-23T18:34:40Z</time>
      </trkpt>
      <trkpt lat="59.9878567" lon="17.7394964">
        <ele>59.2584</ele>
        <time>2014-05-23T18:34:41Z</time>
      </trkpt>
      <trkpt lat="59.9878292" lon="17.7395225">
        <ele>60.2197</ele>
        <time>2014-05-23T18:34:42Z</time>
      </trkpt>
      <trkpt lat="59.9878003" lon="17.7395185">
        <ele>59.7391</ele>
        <time>2014-05-23T18:34:43Z</time>
      </trkpt>
      <trkpt lat="59.9877788" lon="17.7395131">
        <ele>60.2197</ele>
        <time>2014-05-23T18:34:44Z</time>
      </trkpt>
      <trkpt lat="59.9877557" lon="17.7395065">
        <ele>59.7391</ele>
        <time>2014-05-23T18:34:45Z</time>
      </trkpt>
      <trkpt lat="59.9877303" lon="17.7395014">
        <ele>59.2584</ele>
        <time>2014-05-23T18:34:46Z</time>
      </trkpt>
      <trkpt lat="59.9877054" lon="17.7394968">
        <ele>59.2584</ele>
        <time>2014-05-23T18:34:47Z</time>
      </trkpt>
      <trkpt lat="59.9876806" lon="17.7394936">
        <ele>59.2584</ele>
        <time>2014-05-23T18:34:48Z</time>
      </trkpt>
      <trkpt lat="59.9876521" lon="17.7395043">
        <ele>59.7391</ele>
        <time>2014-05-23T18:34:49Z</time>
      </trkpt>
      <trkpt lat="59.9876232" lon="17.7395133">
        <ele>60.7003</ele>
        <time>2014-05-23T18:34:50Z</time>
      </trkpt>
      <trkpt lat="59.9875919" lon="17.7395266">
        <ele>61.181</ele>
        <time>2014-05-23T18:34:51Z</time>
      </trkpt>
      <trkpt lat="59.9875545" lon="17.7395385">
        <ele>60.7003</ele>
        <time>2014-05-23T18:34:52Z</time>
      </trkpt>
      <trkpt lat="59.9875245" lon="17.739546">
        <ele>60.7003</ele>
        <time>2014-05-23T18:34:53Z</time>
      </trkpt>
      <trkpt lat="59.9874909" lon="17.7395583">
        <ele>60.7003</ele>
        <time>2014-05-23T18:34:54Z</time>
      </trkpt>
      <trkpt lat="59.9874647" lon="17.7395678">
        <ele>61.6617</ele>
        <time>2014-05-23T18:34:55Z</time>
      </trkpt>
      <trkpt lat="59.9874401" lon="17.7395596">
        <ele>61.181</ele>
        <time>2014-05-23T18:34:56Z</time>
      </trkpt>
      <trkpt lat="59.9874097" lon="17.7395748">
        <ele>62.6229</ele>
        <time>2014-05-23T18:34:57Z</time>
      </trkpt>
      <trkpt lat="59.9873805" lon="17.7395849">
        <ele>63.5844</ele>
        <time>2014-05-23T18:34:58Z</time>
      </trkpt>
      <trkpt lat="59.9873506" lon="17.7395878">
        <ele>63.5844</ele>
        <time>2014-05-23T18:34:59Z</time>
      </trkpt>
      <trkpt lat="59.9873207" lon="17.7395932">
        <ele>64.0651</ele>
        <time>2014-05-23T18:35:00Z</time>
      </trkpt>
      <trkpt lat="59.9872921" lon="17.7396107">
        <ele>65.0264</ele>
        <time>2014-05-23T18:35:01Z</time>
      </trkpt>
      <trkpt lat="59.9872635" lon="17.7396381">
        <ele>66.949</ele>
        <time>2014-05-23T18:35:02Z</time>
      </trkpt>
      <trkpt lat="59.9872349" lon="17.7396558">
        <ele>67.9103</ele>
        <time>2014-05-23T18:35:03Z</time>
      </trkpt>
      <trkpt lat="59.9872069" lon="17.7396532">
        <ele>67.9103</ele>
        <time>2014-05-23T18:35:04Z</time>
      </trkpt>
      <trkpt lat="59.9871739" lon="17.739637">
        <ele>66.949</ele>
        <time>2014-05-23T18:35:05Z</time>
      </trkpt>
      <trkpt lat="59.987143" lon="17.7396299">
        <ele>66.4683</ele>
        <time>2014-05-23T18:35:06Z</time>
      </trkpt>
      <trkpt lat="59.987117" lon="17.7396128">
        <ele>65.5071</ele>
        <time>2014-05-23T18:35:07Z</time>
      </trkpt>
      <trkpt lat="59.987089" lon="17.7396046">
        <ele>65.9877</ele>
        <time>2014-05-23T18:35:08Z</time>
      </trkpt>
      <trkpt lat="59.9870668" lon="17.7396138">
        <ele>66.949</ele>
        <time>2014-05-23T18:35:09Z</time>
      </trkpt>
      <trkpt lat="59.9870465" lon="17.7396062">
        <ele>65.9877</ele>
        <time>2014-05-23T18:35:10Z</time>
      </trkpt>
      <trkpt lat="59.9870204" lon="17.7395853">
        <ele>65.5071</ele>
        <time>2014-05-23T18:35:11Z</time>
      </trkpt>
      <trkpt lat="59.9869907" lon="17.7395688">
        <ele>65.0264</ele>
        <time>2014-05-23T18:35:12Z</time>
      </trkpt>
      <trkpt lat="59.986958" lon="17.7395564">
        <ele>64.5457</ele>
        <time>2014-05-23T18:35:13Z</time>
      </trkpt>
      <trkpt lat="59.9869289" lon="17.7395362">
        <ele>64.0651</ele>
        <time>2014-05-23T18:35:14Z</time>
      </trkpt>
      <trkpt lat="59.9869026" lon="17.7395067">
        <ele>63.5844</ele>
        <time>2014-05-23T18:35:15Z</time>
      </trkpt>
      <trkpt lat="59.9868755" lon="17.7394785">
        <ele>62.6229</ele>
        <time>2014-05-23T18:35:16Z</time>
      </trkpt>
      <trkpt lat="59.9868476" lon="17.7394485">
        <ele>61.6617</ele>
        <time>2014-05-23T18:35:17Z</time>
      </trkpt>
      <trkpt lat="59.9868187" lon="17.7394227">
        <ele>60.2197</ele>
        <time>2014-05-23T18:35:18Z</time>
      </trkpt>
      <trkpt lat="59.9867961" lon="17.7394016">
        <ele>59.7391</ele>
        <time>2014-05-23T18:35:19Z</time>
      </trkpt>
      <trkpt lat="59.986777" lon="17.7393653">
        <ele>58.7777</ele>
        <time>2014-05-23T18:35:20Z</time>
      </trkpt>
      <trkpt lat="59.9867566" lon="17.7393321">
        <ele>58.2971</ele>
        <time>2014-05-23T18:35:21Z</time>
      </trkpt>
      <trkpt lat="59.9867368" lon="17.7393113">
        <ele>58.2971</ele>
        <time>2014-05-23T18:35:22Z</time>
      </trkpt>
      <trkpt lat="59.9867157" lon="17.7392937">
        <ele>58.2971</ele>
        <time>2014-05-23T18:35:23Z</time>
      </trkpt>
      <trkpt lat="59.9866894" lon="17.7392662">
        <ele>57.8165</ele>
        <time>2014-05-23T18:35:24Z</time>
      </trkpt>
      <trkpt lat="59.9866684" lon="17.7392366">
        <ele>57.8165</ele>
        <time>2014-05-23T18:35:25Z</time>
      </trkpt>
      <trkpt lat="59.9866498" lon="17.7392072">
        <ele>56.8551</ele>
        <time>2014-05-23T18:35:26Z</time>
      </trkpt>
      <trkpt lat="59.986625" lon="17.7391796">
        <ele>55.8938</ele>
        <time>2014-05-23T18:35:27Z</time>
      </trkpt>
      <trkpt lat="59.9865995" lon="17.7391558">
        <ele>54.9324</ele>
        <time>2014-05-23T18:35:28Z</time>
      </trkpt>
      <trkpt lat="59.9865771" lon="17.739132">
        <ele>54.4518</ele>
        <time>2014-05-23T18:35:29Z</time>
      </trkpt>
      <trkpt lat="59.9865535" lon="17.7391005">
        <ele>53.9712</ele>
        <time>2014-05-23T18:35:30Z</time>
      </trkpt>
      <trkpt lat="59.9865309" lon="17.7390612">
        <ele>53.0098</ele>
        <time>2014-05-23T18:35:31Z</time>
      </trkpt>
      <trkpt lat="59.9865104" lon="17.7390237">
        <ele>52.5292</ele>
        <time>2014-05-23T18:35:32Z</time>
      </trkpt>
      <trkpt lat="59.9864862" lon="17.7390031">
        <ele>53.0098</ele>
        <time>2014-05-23T18:35:33Z</time>
      </trkpt>
      <trkpt lat="59.9864621" lon="17.7389791">
        <ele>52.0486</ele>
        <time>2014-05-23T18:35:34Z</time>
      </trkpt>
      <trkpt lat="59.9864404" lon="17.7389591">
        <ele>52.0486</ele>
        <time>2014-05-23T18:35:35Z</time>
      </trkpt>
      <trkpt lat="59.9864166" lon="17.7389445">
        <ele>52.5292</ele>
        <time>2014-05-23T18:35:36Z</time>
      </trkpt>
      <trkpt lat="59.9863921" lon="17.738927">
        <ele>52.0486</ele>
        <time>2014-05-23T18:35:37Z</time>
      </trkpt>
      <trkpt lat="59.9863725" lon="17.7389098">
        <ele>51.5679</ele>
        <time>2014-05-23T18:35:38Z</time>
      </trkpt>
      <trkpt lat="59.986353" lon="17.7388902">
        <ele>52.0486</ele>
        <time>2014-05-23T18:35:39Z</time>
      </trkpt>
      <trkpt lat="59.9863291" lon="17.7388704">
        <ele>51.5679</ele>
        <time>2014-05-23T18:35:40Z</time>
      </trkpt>
      <trkpt lat="59.9863037" lon="17.7388606">
        <ele>51.5679</ele>
        <time>2014-05-23T18:35:41Z</time>
      </trkpt>
      <trkpt lat="59.9862799" lon="17.7388503">
        <ele>52.0486</ele>
        <time>2014-05-23T18:35:42Z</time>
      </trkpt>
      <trkpt lat="59.9862541" lon="17.7388363">
        <ele>52.0486</ele>
        <time>2014-05-23T18:35:43Z</time>
      </trkpt>
      <trkpt lat="59.9862292" lon="17.7388119">
        <ele>51.0872</ele>
        <time>2014-05-23T18:35:44Z</time>
      </trkpt>
      <trkpt lat="59.9862127" lon="17.7387763">
        <ele>51.0872</ele>
        <time>2014-05-23T18:35:45Z</time>
      </trkpt>
      <trkpt lat="59.9861932" lon="17.73874">
        <ele>50.6066</ele>
        <time>2014-05-23T18:35:46Z</time>
      </trkpt>
      <trkpt lat="59.986172" lon="17.7387268">
        <ele>50.126</ele>
        <time>2014-05-23T18:35:47Z</time>
      </trkpt>
      <trkpt lat="59.9861438" lon="17.7387087">
        <ele>49.6453</ele>
        <time>2014-05-23T18:35:48Z</time>
      </trkpt>
      <trkpt lat="59.9861156" lon="17.7386844">
        <ele>49.1646</ele>
        <time>2014-05-23T18:35:49Z</time>
      </trkpt>
      <trkpt lat="59.9860851" lon="17.7386524">
        <ele>47.7225</ele>
        <time>2014-05-23T18:35:50Z</time>
      </trkpt>
      <trkpt lat="59.9860595" lon="17.7386382">
        <ele>47.2418</ele>
        <time>2014-05-23T18:35:51Z</time>
      </trkpt>
      <trkpt lat="59.986035" lon="17.738622">
        <ele>46.7612</ele>
        <time>2014-05-23T18:35:52Z</time>
      </trkpt>
      <trkpt lat="59.98601" lon="17.7386172">
        <ele>47.2418</ele>
        <time>2014-05-23T18:35:53Z</time>
      </trkpt>
      <trkpt lat="59.9859847" lon="17.7386223">
        <ele>47.7225</ele>
        <time>2014-05-23T18:35:54Z</time>
      </trkpt>
      <trkpt lat="59.9859554" lon="17.7386141">
        <ele>46.7612</ele>
        <time>2014-05-23T18:35:55Z</time>
      </trkpt>
      <trkpt lat="59.9859252" lon="17.7385937">
        <ele>46.2806</ele>
        <time>2014-05-23T18:35:56Z</time>
      </trkpt>
      <trkpt lat="59.9858995" lon="17.738571">
        <ele>45.3192</ele>
        <time>2014-05-23T18:35:57Z</time>
      </trkpt>
      <trkpt lat="59.9858749" lon="17.7385557">
        <ele>44.8386</ele>
        <time>2014-05-23T18:35:58Z</time>
      </trkpt>
      <trkpt lat="59.985848" lon="17.7385531">
        <ele>45.3192</ele>
        <time>2014-05-23T18:35:59Z</time>
      </trkpt>
      <trkpt lat="59.9858169" lon="17.7385365">
        <ele>44.8386</ele>
        <time>2014-05-23T18:36:00Z</time>
      </trkpt>
      <trkpt lat="59.9857904" lon="17.7385274">
        <ele>43.8773</ele>
        <time>2014-05-23T18:36:01Z</time>
      </trkpt>
      <trkpt lat="59.9857671" lon="17.7385232">
        <ele>43.3966</ele>
        <time>2014-05-23T18:36:02Z</time>
      </trkpt>
      <trkpt lat="59.9857439" lon="17.7385022">
        <ele>42.916</ele>
        <time>2014-05-23T18:36:03Z</time>
      </trkpt>
      <trkpt lat="59.9857173" lon="17.7384885">
        <ele>42.4354</ele>
        <time>2014-05-23T18:36:04Z</time>
      </trkpt>
      <trkpt lat="59.9856923" lon="17.738467">
        <ele>40.9934</ele>
        <time>2014-05-23T18:36:05Z</time>
      </trkpt>
      <trkpt lat="59.9856674" lon="17.7384406">
        <ele>40.0321</ele>
        <time>2014-05-23T18:36:06Z</time>
      </trkpt>
      <trkpt lat="59.9856488" lon="17.7384302">
        <ele>39.5513</ele>
        <time>2014-05-23T18:36:07Z</time>
      </trkpt>
      <trkpt lat="59.9856299" lon="17.7384342">
        <ele>40.5128</ele>
        <time>2014-05-23T18:36:08Z</time>
      </trkpt>
      <trkpt lat="59.9855988" lon="17.7384167">
        <ele>40.5128</ele>
        <time>2014-05-23T18:36:09Z</time>
      </trkpt>
      <trkpt lat="59.9855712" lon="17.7384059">
        <ele>40.5128</ele>
        <time>2014-05-23T18:36:10Z</time>
      </trkpt>
      <trkpt lat="59.9855395" lon="17.738395">
        <ele>40.0321</ele>
        <time>2014-05-23T18:36:11Z</time>
      </trkpt>
      <trkpt lat="59.9855028" lon="17.7383759">
        <ele>38.5901</ele>
        <time>2014-05-23T18:36:12Z</time>
      </trkpt>
      <trkpt lat="59.9854734" lon="17.7383645">
        <ele>37.6287</ele>
        <time>2014-05-23T18:36:13Z</time>
      </trkpt>
      <trkpt lat="59.985452" lon="17.7383576">
        <ele>37.6287</ele>
        <time>2014-05-23T18:36:14Z</time>
      </trkpt>
      <trkpt lat="59.9854234" lon="17.7383438">
        <ele>36.6675</ele>
        <time>2014-05-23T18:36:15Z</time>
      </trkpt>
      <trkpt lat="59.9854032" lon="17.7383328">
        <ele>38.1094</ele>
        <time>2014-05-23T18:36:16Z</time>
      </trkpt>
      <trkpt lat="59.9853791" lon="17.7383194">
        <ele>38.5901</ele>
        <time>2014-05-23T18:36:17Z</time>
      </trkpt>
      <trkpt lat="59.9853526" lon="17.7383166">
        <ele>40.0321</ele>
        <time>2014-05-23T18:36:18Z</time>
      </trkpt>
      <trkpt lat="59.9853231" lon="17.7383157">
        <ele>40.5128</ele>
        <time>2014-05-23T18:36:19Z</time>
      </trkpt>
      <trkpt lat="59.9852915" lon="17.7383096">
        <ele>40.5128</ele>
        <time>2014-05-23T18:36:20Z</time>
      </trkpt>
      <trkpt lat="59.9852696" lon="17.7382924">
        <ele>40.5128</ele>
        <time>2014-05-23T18:36:21Z</time>
      </trkpt>
      <trkpt lat="59.9852474" lon="17.7382792">
        <ele>42.4354</ele>
        <time>2014-05-23T18:36:22Z</time>
      </trkpt>
      <trkpt lat="59.9852164" lon="17.7382701">
        <ele>42.916</ele>
        <time>2014-05-23T18:36:23Z</time>
      </trkpt>
      <trkpt lat="59.9851828" lon="17.7382696">
        <ele>42.916</ele>
        <time>2014-05-23T18:36:24Z</time>
      </trkpt>
      <trkpt lat="59.985157" lon="17.7382757">
        <ele>44.358</ele>
        <time>2014-05-23T18:36:25Z</time>
      </trkpt>
      <trkpt lat="59.9851303" lon="17.738269">
        <ele>44.358</ele>
        <time>2014-05-23T18:36:26Z</time>
      </trkpt>
      <trkpt lat="59.9851038" lon="17.7382602">
        <ele>44.8386</ele>
        <time>2014-05-23T18:36:27Z</time>
      </trkpt>
      <trkpt lat="59.9850802" lon="17.7382515">
        <ele>46.7612</ele>
        <time>2014-05-23T18:36:28Z</time>
      </trkpt>
      <trkpt lat="59.9850553" lon="17.7382339">
        <ele>47.2418</ele>
        <time>2014-05-23T18:36:29Z</time>
      </trkpt>
      <trkpt lat="59.9850309" lon="17.7382236">
        <ele>48.2034</ele>
        <time>2014-05-23T18:36:30Z</time>
      </trkpt>
      <trkpt lat="59.9850064" lon="17.7382243">
        <ele>49.6453</ele>
        <time>2014-05-23T18:36:31Z</time>
      </trkpt>
      <trkpt lat="59.9849786" lon="17.7382148">
        <ele>50.126</ele>
        <time>2014-05-23T18:36:32Z</time>
      </trkpt>
      <trkpt lat="59.9849465" lon="17.7381996">
        <ele>50.6066</ele>
        <time>2014-05-23T18:36:33Z</time>
      </trkpt>
      <trkpt lat="59.984918" lon="17.7381796">
        <ele>50.126</ele>
        <time>2014-05-23T18:36:34Z</time>
      </trkpt>
      <trkpt lat="59.984893" lon="17.7381671">
        <ele>49.6453</ele>
        <time>2014-05-23T18:36:35Z</time>
      </trkpt>
      <trkpt lat="59.9848687" lon="17.7381602">
        <ele>49.6453</ele>
        <time>2014-05-23T18:36:36Z</time>
      </trkpt>
      <trkpt lat="59.9848455" lon="17.7381629">
        <ele>49.6453</ele>
        <time>2014-05-23T18:36:37Z</time>
      </trkpt>
      <trkpt lat="59.9848237" lon="17.7381717">
        <ele>49.6453</ele>
        <time>2014-05-23T18:36:38Z</time>
      </trkpt>
      <trkpt lat="59.9847989" lon="17.738167">
        <ele>49.1646</ele>
        <time>2014-05-23T18:36:39Z</time>
      </trkpt>
      <trkpt lat="59.9847662" lon="17.7381643">
        <ele>49.1646</ele>
        <time>2014-05-23T18:36:40Z</time>
      </trkpt>
      <trkpt lat="59.9847373" lon="17.738167">
        <ele>49.6453</ele>
        <time>2014-05-23T18:36:41Z</time>
      </trkpt>
      <trkpt lat="59.9847138" lon="17.7381629">
        <ele>50.6066</ele>
        <time>2014-05-23T18:36:42Z</time>
      </trkpt>
      <trkpt lat="59.9846855" lon="17.7381542">
        <ele>50.126</ele>
        <time>2014-05-23T18:36:43Z</time>
      </trkpt>
      <trkpt lat="59.9846628" lon="17.7381468">
        <ele>49.1646</ele>
        <time>2014-05-23T18:36:44Z</time>
      </trkpt>
      <trkpt lat="59.9846466" lon="17.7381479">
        <ele>49.6453</ele>
        <time>2014-05-23T18:36:45Z</time>
      </trkpt>
      <trkpt lat="59.9846165" lon="17.7381433">
        <ele>48.684</ele>
        <time>2014-05-23T18:36:46Z</time>
      </trkpt>
      <trkpt lat="59.984589" lon="17.7381373">
        <ele>48.2034</ele>
        <time>2014-05-23T18:36:47Z</time>
      </trkpt>
      <trkpt lat="59.984567" lon="17.7381251">
        <ele>48.684</ele>
        <time>2014-05-23T18:36:48Z</time>
      </trkpt>
      <trkpt lat="59.9845478" lon="17.7381162">
        <ele>49.1646</ele>
        <time>2014-05-23T18:36:49Z</time>
      </trkpt>
      <trkpt lat="59.9845358" lon="17.7381136">
        <ele>50.126</ele>
        <time>2014-05-23T18:36:50Z</time>
      </trkpt>
      <trkpt lat="59.9845254" lon="17.7381199">
        <ele>51.5679</ele>
        <time>2014-05-23T18:36:51Z</time>
      </trkpt>
      <trkpt lat="59.9845082" lon="17.7381302">
        <ele>53.0098</ele>
        <time>2014-05-23T18:36:52Z</time>
      </trkpt>
      <trkpt lat="59.9844828" lon="17.7381141">
        <ele>52.0486</ele>
        <time>2014-05-23T18:36:53Z</time>
      </trkpt>
      <trkpt lat="59.9844601" lon="17.7380881">
        <ele>52.0486</ele>
        <time>2014-05-23T18:36:54Z</time>
      </trkpt>
      <trkpt lat="59.9844291" lon="17.7380819">
        <ele>51.5679</ele>
        <time>2014-05-23T18:36:55Z</time>
      </trkpt>
      <trkpt lat="59.9844004" lon="17.7380741">
        <ele>50.6066</ele>
        <time>2014-05-23T18:36:56Z</time>
      </trkpt>
      <trkpt lat="59.9843721" lon="17.7380748">
        <ele>50.126</ele>
        <time>2014-05-23T18:36:57Z</time>
      </trkpt>
      <trkpt lat="59.9843452" lon="17.7380634">
        <ele>49.1646</ele>
        <time>2014-05-23T18:36:58Z</time>
      </trkpt>
      <trkpt lat="59.9843186" lon="17.7380409">
        <ele>47.7225</ele>
        <time>2014-05-23T18:36:59Z</time>
      </trkpt>
      <trkpt lat="59.9842908" lon="17.7380272">
        <ele>46.2806</ele>
        <time>2014-05-23T18:37:00Z</time>
      </trkpt>
      <trkpt lat="59.9842565" lon="17.7380314">
        <ele>45.3192</ele>
        <time>2014-05-23T18:37:01Z</time>
      </trkpt>
      <trkpt lat="59.984214" lon="17.7380235">
        <ele>43.8773</ele>
        <time>2014-05-23T18:37:02Z</time>
      </trkpt>
      <trkpt lat="59.9841712" lon="17.7380214">
        <ele>44.358</ele>
        <time>2014-05-23T18:37:03Z</time>
      </trkpt>
      <trkpt lat="59.9841339" lon="17.7380189">
        <ele>43.3966</ele>
        <time>2014-05-23T18:37:04Z</time>
      </trkpt>
      <trkpt lat="59.9841025" lon="17.7380105">
        <ele>42.4354</ele>
        <time>2014-05-23T18:37:05Z</time>
      </trkpt>
      <trkpt lat="59.9840711" lon="17.7379952">
        <ele>41.474</ele>
        <time>2014-05-23T18:37:06Z</time>
      </trkpt>
      <trkpt lat="59.9840374" lon="17.7379774">
        <ele>39.5513</ele>
        <time>2014-05-23T18:37:07Z</time>
      </trkpt>
      <trkpt lat="59.9840036" lon="17.7379662">
        <ele>38.5901</ele>
        <time>2014-05-23T18:37:08Z</time>
      </trkpt>
      <trkpt lat="59.9839733" lon="17.7379598">
        <ele>37.6287</ele>
        <time>2014-05-23T18:37:09Z</time>
      </trkpt>
      <trkpt lat="59.9839468" lon="17.7379491">
        <ele>37.1481</ele>
        <time>2014-05-23T18:37:10Z</time>
      </trkpt>
      <trkpt lat="59.9839158" lon="17.7379456">
        <ele>37.6287</ele>
        <time>2014-05-23T18:37:11Z</time>
      </trkpt>
      <trkpt lat="59.9838888" lon="17.7379619">
        <ele>37.6287</ele>
        <time>2014-05-23T18:37:12Z</time>
      </trkpt>
      <trkpt lat="59.9838599" lon="17.737966">
        <ele>37.1481</ele>
        <time>2014-05-23T18:37:13Z</time>
      </trkpt>
      <trkpt lat="59.9838328" lon="17.7379806">
        <ele>37.6287</ele>
        <time>2014-05-23T18:37:14Z</time>
      </trkpt>
      <trkpt lat="59.9838096" lon="17.7380106">
        <ele>38.1094</ele>
        <time>2014-05-23T18:37:15Z</time>
      </trkpt>
      <trkpt lat="59.9837836" lon="17.738033">
        <ele>37.1481</ele>
        <time>2014-05-23T18:37:16Z</time>
      </trkpt>
      <trkpt lat="59.9837484" lon="17.7380463">
        <ele>35.7061</ele>
        <time>2014-05-23T18:37:17Z</time>
      </trkpt>
      <trkpt lat="59.9837146" lon="17.7380583">
        <ele>35.2255</ele>
        <time>2014-05-23T18:37:18Z</time>
      </trkpt>
      <trkpt lat="59.9836852" lon="17.738062">
        <ele>34.7449</ele>
        <time>2014-05-23T18:37:19Z</time>
      </trkpt>
      <trkpt lat="59.9836529" lon="17.738066">
        <ele>34.7449</ele>
        <time>2014-05-23T18:37:20Z</time>
      </trkpt>
      <trkpt lat="59.9836207" lon="17.7380765">
        <ele>35.7061</ele>
        <time>2014-05-23T18:37:21Z</time>
      </trkpt>
      <trkpt lat="59.9835893" lon="17.7380926">
        <ele>36.1868</ele>
        <time>2014-05-23T18:37:22Z</time>
      </trkpt>
      <trkpt lat="59.9835578" lon="17.7381068">
        <ele>36.6675</ele>
        <time>2014-05-23T18:37:23Z</time>
      </trkpt>
      <trkpt lat="59.9835298" lon="17.7381225">
        <ele>37.6287</ele>
        <time>2014-05-23T18:37:24Z</time>
      </trkpt>
      <trkpt lat="59.9834934" lon="17.7381364">
        <ele>38.1094</ele>
        <time>2014-05-23T18:37:25Z</time>
      </trkpt>
      <trkpt lat="59.9834534" lon="17.7381689">
        <ele>40.9934</ele>
        <time>2014-05-23T18:37:26Z</time>
      </trkpt>
      <trkpt lat="59.9834221" lon="17.738194">
        <ele>41.9547</ele>
        <time>2014-05-23T18:37:27Z</time>
      </trkpt>
      <trkpt lat="59.9833888" lon="17.7382195">
        <ele>42.916</ele>
        <time>2014-05-23T18:37:28Z</time>
      </trkpt>
      <trkpt lat="59.9833573" lon="17.7382302">
        <ele>44.358</ele>
        <time>2014-05-23T18:37:29Z</time>
      </trkpt>
      <trkpt lat="59.9833278" lon="17.738238">
        <ele>45.3192</ele>
        <time>2014-05-23T18:37:30Z</time>
      </trkpt>
      <trkpt lat="59.983305" lon="17.7382613">
        <ele>47.7225</ele>
        <time>2014-05-23T18:37:31Z</time>
      </trkpt>
      <trkpt lat="59.9832775" lon="17.7382555">
        <ele>47.2418</ele>
        <time>2014-05-23T18:37:32Z</time>
      </trkpt>
      <trkpt lat="59.9832581" lon="17.7382552">
        <ele>47.7225</ele>
        <time>2014-05-23T18:37:33Z</time>
      </trkpt>
      <trkpt lat="59.9832442" lon="17.7382566">
        <ele>47.7225</ele>
        <time>2014-05-23T18:37:34Z</time>
      </trkpt>
      <trkpt lat="59.9832238" lon="17.7382634">
        <ele>48.2034</ele>
        <time>2014-05-23T18:37:35Z</time>
      </trkpt>
      <trkpt lat="59.9831979" lon="17.7382695">
        <ele>49.1646</ele>
        <time>2014-05-23T18:37:36Z</time>
      </trkpt>
      <trkpt lat="59.9831688" lon="17.7382638">
        <ele>49.1646</ele>
        <time>2014-05-23T18:37:37Z</time>
      </trkpt>
      <trkpt lat="59.9831387" lon="17.7382689">
        <ele>49.6453</ele>
        <time>2014-05-23T18:37:38Z</time>
      </trkpt>
      <trkpt lat="59.9831138" lon="17.7382924">
        <ele>51.0872</ele>
        <time>2014-05-23T18:37:39Z</time>
      </trkpt>
      <trkpt lat="59.9830935" lon="17.7382969">
        <ele>52.5292</ele>
        <time>2014-05-23T18:37:40Z</time>
      </trkpt>
      <trkpt lat="59.9830701" lon="17.7383018">
        <ele>53.4905</ele>
        <time>2014-05-23T18:37:41Z</time>
      </trkpt>
      <trkpt lat="59.9830473" lon="17.7383129">
        <ele>54.4518</ele>
        <time>2014-05-23T18:37:42Z</time>
      </trkpt>
      <trkpt lat="59.9830267" lon="17.7383095">
        <ele>54.4518</ele>
        <time>2014-05-23T18:37:43Z</time>
      </trkpt>
      <trkpt lat="59.9829966" lon="17.7383106">
        <ele>54.9324</ele>
        <time>2014-05-23T18:37:44Z</time>
      </trkpt>
      <trkpt lat="59.9829693" lon="17.7383021">
        <ele>54.9324</ele>
        <time>2014-05-23T18:37:45Z</time>
      </trkpt>
      <trkpt lat="59.9829413" lon="17.738295">
        <ele>54.9324</ele>
        <time>2014-05-23T18:37:46Z</time>
      </trkpt>
      <trkpt lat="59.9829111" lon="17.7382969">
        <ele>55.8938</ele>
        <time>2014-05-23T18:37:47Z</time>
      </trkpt>
      <trkpt lat="59.9828775" lon="17.7382933">
        <ele>56.3745</ele>
        <time>2014-05-23T18:37:48Z</time>
      </trkpt>
      <trkpt lat="59.982846" lon="17.7382801">
        <ele>55.4131</ele>
        <time>2014-05-23T18:37:49Z</time>
      </trkpt>
      <trkpt lat="59.9828165" lon="17.7382788">
        <ele>55.8938</ele>
        <time>2014-05-23T18:37:50Z</time>
      </trkpt>
      <trkpt lat="59.9827885" lon="17.7382694">
        <ele>55.8938</ele>
        <time>2014-05-23T18:37:51Z</time>
      </trkpt>
      <trkpt lat="59.9827634" lon="17.7382666">
        <ele>56.3745</ele>
        <time>2014-05-23T18:37:52Z</time>
      </trkpt>
      <trkpt lat="59.9827361" lon="17.7382692">
        <ele>56.8551</ele>
        <time>2014-05-23T18:37:53Z</time>
      </trkpt>
      <trkpt lat="59.9827063" lon="17.7382725">
        <ele>56.8551</ele>
        <time>2014-05-23T18:37:54Z</time>
      </trkpt>
      <trkpt lat="59.9826788" lon="17.7382747">
        <ele>56.3745</ele>
        <time>2014-05-23T18:37:55Z</time>
      </trkpt>
      <trkpt lat="59.982645" lon="17.738277">
        <ele>56.3745</ele>
        <time>2014-05-23T18:37:56Z</time>
      </trkpt>
      <trkpt lat="59.9826119" lon="17.7382592">
        <ele>55.8938</ele>
        <time>2014-05-23T18:37:57Z</time>
      </trkpt>
      <trkpt lat="59.9825858" lon="17.7382477">
        <ele>55.4131</ele>
        <time>2014-05-23T18:37:58Z</time>
      </trkpt>
      <trkpt lat="59.9825616" lon="17.7382453">
        <ele>55.4131</ele>
        <time>2014-05-23T18:37:59Z</time>
      </trkpt>
      <trkpt lat="59.9825331" lon="17.7382519">
        <ele>56.3745</ele>
        <time>2014-05-23T18:38:00Z</time>
      </trkpt>
      <trkpt lat="59.9825029" lon="17.738252">
        <ele>56.8551</ele>
        <time>2014-05-23T18:38:01Z</time>
      </trkpt>
      <trkpt lat="59.9824765" lon="17.738251">
        <ele>57.3358</ele>
        <time>2014-05-23T18:38:02Z</time>
      </trkpt>
      <trkpt lat="59.9824508" lon="17.7382539">
        <ele>57.3358</ele>
        <time>2014-05-23T18:38:03Z</time>
      </trkpt>
      <trkpt lat="59.9824213" lon="17.7382596">
        <ele>58.2971</ele>
        <time>2014-05-23T18:38:04Z</time>
      </trkpt>
      <trkpt lat="59.9823931" lon="17.7382692">
        <ele>58.7777</ele>
        <time>2014-05-23T18:38:05Z</time>
      </trkpt>
      <trkpt lat="59.9823653" lon="17.7382868">
        <ele>59.2584</ele>
        <time>2014-05-23T18:38:06Z</time>
      </trkpt>
      <trkpt lat="59.9823362" lon="17.7382924">
        <ele>59.2584</ele>
        <time>2014-05-23T18:38:07Z</time>
      </trkpt>
      <trkpt lat="59.9823088" lon="17.7383095">
        <ele>60.2197</ele>
        <time>2014-05-23T18:38:08Z</time>
      </trkpt>
      <trkpt lat="59.9822773" lon="17.7383165">
        <ele>59.7391</ele>
        <time>2014-05-23T18:38:09Z</time>
      </trkpt>
      <trkpt lat="59.9822477" lon="17.7383245">
        <ele>59.2584</ele>
        <time>2014-05-23T18:38:10Z</time>
      </trkpt>
      <trkpt lat="59.9822223" lon="17.7383229">
        <ele>58.2971</ele>
        <time>2014-05-23T18:38:11Z</time>
      </trkpt>
      <trkpt lat="59.9821959" lon="17.738325">
        <ele>57.3358</ele>
        <time>2014-05-23T18:38:12Z</time>
      </trkpt>
      <trkpt lat="59.9821699" lon="17.7383419">
        <ele>56.8551</ele>
        <time>2014-05-23T18:38:13Z</time>
      </trkpt>
      <trkpt lat="59.9821486" lon="17.7383531">
        <ele>56.8551</ele>
        <time>2014-05-23T18:38:14Z</time>
      </trkpt>
      <trkpt lat="59.9821317" lon="17.7383507">
        <ele>55.8938</ele>
        <time>2014-05-23T18:38:15Z</time>
      </trkpt>
      <trkpt lat="59.9821113" lon="17.738358">
        <ele>55.4131</ele>
        <time>2014-05-23T18:38:16Z</time>
      </trkpt>
      <trkpt lat="59.9820864" lon="17.7383645">
        <ele>54.4518</ele>
        <time>2014-05-23T18:38:17Z</time>
      </trkpt>
      <trkpt lat="59.9820607" lon="17.7383799">
        <ele>55.4131</ele>
        <time>2014-05-23T18:38:18Z</time>
      </trkpt>
      <trkpt lat="59.9820337" lon="17.7383942">
        <ele>56.3745</ele>
        <time>2014-05-23T18:38:19Z</time>
      </trkpt>
      <trkpt lat="59.9820057" lon="17.7384065">
        <ele>56.8551</ele>
        <time>2014-05-23T18:38:20Z</time>
      </trkpt>
      <trkpt lat="59.9819783" lon="17.7384184">
        <ele>57.3358</ele>
        <time>2014-05-23T18:38:21Z</time>
      </trkpt>
      <trkpt lat="59.9819523" lon="17.7384093">
        <ele>56.8551</ele>
        <time>2014-05-23T18:38:22Z</time>
      </trkpt>
      <trkpt lat="59.9819274" lon="17.7384096">
        <ele>56.3745</ele>
        <time>2014-05-23T18:38:23Z</time>
      </trkpt>
      <trkpt lat="59.9819041" lon="17.7384193">
        <ele>55.8938</ele>
        <time>2014-05-23T18:38:24Z</time>
      </trkpt>
      <trkpt lat="59.9818751" lon="17.7384307">
        <ele>55.4131</ele>
        <time>2014-05-23T18:38:25Z</time>
      </trkpt>
      <trkpt lat="59.9818442" lon="17.7384482">
        <ele>55.8938</ele>
        <time>2014-05-23T18:38:26Z</time>
      </trkpt>
      <trkpt lat="59.981816" lon="17.7384541">
        <ele>55.4131</ele>
        <time>2014-05-23T18:38:27Z</time>
      </trkpt>
      <trkpt lat="59.9817841" lon="17.7384622">
        <ele>54.9324</ele>
        <time>2014-05-23T18:38:28Z</time>
      </trkpt>
      <trkpt lat="59.9817521" lon="17.7384846">
        <ele>54.9324</ele>
        <time>2014-05-23T18:38:29Z</time>
      </trkpt>
      <trkpt lat="59.9817203" lon="17.7385043">
        <ele>54.4518</ele>
        <time>2014-05-23T18:38:30Z</time>
      </trkpt>
      <trkpt lat="59.9816932" lon="17.7385139">
        <ele>53.9712</ele>
        <time>2014-05-23T18:38:31Z</time>
      </trkpt>
      <trkpt lat="59.9816702" lon="17.7385167">
        <ele>53.0098</ele>
        <time>2014-05-23T18:38:32Z</time>
      </trkpt>
      <trkpt lat="59.9816448" lon="17.7385279">
        <ele>53.4905</ele>
        <time>2014-05-23T18:38:33Z</time>
      </trkpt>
      <trkpt lat="59.98162" lon="17.7385343">
        <ele>53.0098</ele>
        <time>2014-05-23T18:38:34Z</time>
      </trkpt>
      <trkpt lat="59.9815962" lon="17.7385414">
        <ele>52.5292</ele>
        <time>2014-05-23T18:38:35Z</time>
      </trkpt>
      <trkpt lat="59.9815751" lon="17.7385315">
        <ele>51.5679</ele>
        <time>2014-05-23T18:38:36Z</time>
      </trkpt>
      <trkpt lat="59.9815578" lon="17.7385373">
        <ele>51.0872</ele>
        <time>2014-05-23T18:38:37Z</time>
      </trkpt>
      <trkpt lat="59.9815401" lon="17.7385472">
        <ele>51.0872</ele>
        <time>2014-05-23T18:38:38Z</time>
      </trkpt>
      <trkpt lat="59.9815169" lon="17.7385527">
        <ele>50.6066</ele>
        <time>2014-05-23T18:38:39Z</time>
      </trkpt>
      <trkpt lat="59.9814961" lon="17.7385575">
        <ele>50.6066</ele>
        <time>2014-05-23T18:38:40Z</time>
      </trkpt>
      <trkpt lat="59.9814731" lon="17.7385545">
        <ele>50.126</ele>
        <time>2014-05-23T18:38:41Z</time>
      </trkpt>
      <trkpt lat="59.9814489" lon="17.7385507">
        <ele>49.6453</ele>
        <time>2014-05-23T18:38:42Z</time>
      </trkpt>
      <trkpt lat="59.9814242" lon="17.738558">
        <ele>48.684</ele>
        <time>2014-05-23T18:38:43Z</time>
      </trkpt>
      <trkpt lat="59.9813982" lon="17.7385628">
        <ele>48.2034</ele>
        <time>2014-05-23T18:38:44Z</time>
      </trkpt>
      <trkpt lat="59.9813745" lon="17.7385664">
        <ele>47.7225</ele>
        <time>2014-05-23T18:38:45Z</time>
      </trkpt>
      <trkpt lat="59.9813526" lon="17.7385839">
        <ele>48.2034</ele>
        <time>2014-05-23T18:38:46Z</time>
      </trkpt>
      <trkpt lat="59.981332" lon="17.7385961">
        <ele>47.2418</ele>
        <time>2014-05-23T18:38:47Z</time>
      </trkpt>
      <trkpt lat="59.9813069" lon="17.7386063">
        <ele>47.2418</ele>
        <time>2014-05-23T18:38:48Z</time>
      </trkpt>
      <trkpt lat="59.981282" lon="17.7386136">
        <ele>46.7612</ele>
        <time>2014-05-23T18:38:49Z</time>
      </trkpt>
      <trkpt lat="59.9812548" lon="17.738615">
        <ele>45.3192</ele>
        <time>2014-05-23T18:38:50Z</time>
      </trkpt>
      <trkpt lat="59.981227" lon="17.7386192">
        <ele>43.8773</ele>
        <time>2014-05-23T18:38:51Z</time>
      </trkpt>
      <trkpt lat="59.9811999" lon="17.7386374">
        <ele>43.8773</ele>
        <time>2014-05-23T18:38:52Z</time>
      </trkpt>
      <trkpt lat="59.9811722" lon="17.738667">
        <ele>44.8386</ele>
        <time>2014-05-23T18:38:53Z</time>
      </trkpt>
      <trkpt lat="59.9811445" lon="17.738685">
        <ele>45.3192</ele>
        <time>2014-05-23T18:38:54Z</time>
      </trkpt>
      <trkpt lat="59.9811229" lon="17.7387057">
        <ele>45.7999</ele>
        <time>2014-05-23T18:38:55Z</time>
      </trkpt>
      <trkpt lat="59.9810957" lon="17.7387115">
        <ele>45.3192</ele>
        <time>2014-05-23T18:38:56Z</time>
      </trkpt>
      <trkpt lat="59.9810628" lon="17.7387224">
        <ele>45.3192</ele>
        <time>2014-05-23T18:38:57Z</time>
      </trkpt>
      <trkpt lat="59.9810291" lon="17.7387232">
        <ele>44.8386</ele>
        <time>2014-05-23T18:38:58Z</time>
      </trkpt>
      <trkpt lat="59.9809962" lon="17.7387273">
        <ele>43.8773</ele>
        <time>2014-05-23T18:38:59Z</time>
      </trkpt>
      <trkpt lat="59.9809652" lon="17.7387379">
        <ele>43.8773</ele>
        <time>2014-05-23T18:39:00Z</time>
      </trkpt>
      <trkpt lat="59.9809349" lon="17.7387415">
        <ele>43.8773</ele>
        <time>2014-05-23T18:39:01Z</time>
      </trkpt>
      <trkpt lat="59.9809035" lon="17.738748">
        <ele>43.8773</ele>
        <time>2014-05-23T18:39:02Z</time>
      </trkpt>
      <trkpt lat="59.9808766" lon="17.7387555">
        <ele>43.8773</ele>
        <time>2014-05-23T18:39:03Z</time>
      </trkpt>
      <trkpt lat="59.9808537" lon="17.7387663">
        <ele>43.8773</ele>
        <time>2014-05-23T18:39:04Z</time>
      </trkpt>
      <trkpt lat="59.9808287" lon="17.738784">
        <ele>44.8386</ele>
        <time>2014-05-23T18:39:05Z</time>
      </trkpt>
      <trkpt lat="59.9808" lon="17.7387898">
        <ele>44.358</ele>
        <time>2014-05-23T18:39:06Z</time>
      </trkpt>
      <trkpt lat="59.9807723" lon="17.7388035">
        <ele>44.358</ele>
        <time>2014-05-23T18:39:07Z</time>
      </trkpt>
      <trkpt lat="59.9807459" lon="17.7388231">
        <ele>44.358</ele>
        <time>2014-05-23T18:39:08Z</time>
      </trkpt>
      <trkpt lat="59.9807202" lon="17.7388399">
        <ele>45.3192</ele>
        <time>2014-05-23T18:39:09Z</time>
      </trkpt>
      <trkpt lat="59.9806926" lon="17.7388437">
        <ele>45.7999</ele>
        <time>2014-05-23T18:39:10Z</time>
      </trkpt>
      <trkpt lat="59.9806674" lon="17.7388397">
        <ele>45.7999</ele>
        <time>2014-05-23T18:39:11Z</time>
      </trkpt>
      <trkpt lat="59.9806438" lon="17.7388414">
        <ele>45.3192</ele>
        <time>2014-05-23T18:39:12Z</time>
      </trkpt>
      <trkpt lat="59.9806181" lon="17.7388312">
        <ele>45.3192</ele>
        <time>2014-05-23T18:39:13Z</time>
      </trkpt>
      <trkpt lat="59.9805895" lon="17.7388345">
        <ele>45.3192</ele>
        <time>2014-05-23T18:39:14Z</time>
      </trkpt>
      <trkpt lat="59.9805575" lon="17.7388482">
        <ele>45.3192</ele>
        <time>2014-05-23T18:39:15Z</time>
      </trkpt>
      <trkpt lat="59.9805212" lon="17.7388589">
        <ele>44.8386</ele>
        <time>2014-05-23T18:39:16Z</time>
      </trkpt>
      <trkpt lat="59.9804916" lon="17.7388719">
        <ele>44.8386</ele>
        <time>2014-05-23T18:39:17Z</time>
      </trkpt>
      <trkpt lat="59.980463" lon="17.738871">
        <ele>44.8386</ele>
        <time>2014-05-23T18:39:18Z</time>
      </trkpt>
      <trkpt lat="59.9804309" lon="17.738871">
        <ele>44.8386</ele>
        <time>2014-05-23T18:39:19Z</time>
      </trkpt>
      <trkpt lat="59.9803999" lon="17.7388636">
        <ele>44.358</ele>
        <time>2014-05-23T18:39:20Z</time>
      </trkpt>
      <trkpt lat="59.9803718" lon="17.7388591">
        <ele>43.3966</ele>
        <time>2014-05-23T18:39:21Z</time>
      </trkpt>
      <trkpt lat="59.9803455" lon="17.7388602">
        <ele>43.3966</ele>
        <time>2014-05-23T18:39:22Z</time>
      </trkpt>
      <trkpt lat="59.9803219" lon="17.7388607">
        <ele>43.3966</ele>
        <time>2014-05-23T18:39:23Z</time>
      </trkpt>
      <trkpt lat="59.9803" lon="17.7388632">
        <ele>42.916</ele>
        <time>2014-05-23T18:39:24Z</time>
      </trkpt>
      <trkpt lat="59.9802768" lon="17.7388746">
        <ele>43.3966</ele>
        <time>2014-05-23T18:39:25Z</time>
      </trkpt>
      <trkpt lat="59.9802504" lon="17.738889">
        <ele>43.3966</ele>
        <time>2014-05-23T18:39:26Z</time>
      </trkpt>
      <trkpt lat="59.9802249" lon="17.7388974">
        <ele>43.3966</ele>
        <time>2014-05-23T18:39:27Z</time>
      </trkpt>
      <trkpt lat="59.9801974" lon="17.7388916">
        <ele>43.3966</ele>
        <time>2014-05-23T18:39:28Z</time>
      </trkpt>
      <trkpt lat="59.9801731" lon="17.7388845">
        <ele>42.916</ele>
        <time>2014-05-23T18:39:29Z</time>
      </trkpt>
      <trkpt lat="59.9801475" lon="17.7388803">
        <ele>42.916</ele>
        <time>2014-05-23T18:39:30Z</time>
      </trkpt>
      <trkpt lat="59.9801219" lon="17.7388708">
        <ele>42.916</ele>
        <time>2014-05-23T18:39:31Z</time>
      </trkpt>
      <trkpt lat="59.9800928" lon="17.7388596">
        <ele>42.4354</ele>
        <time>2014-05-23T18:39:32Z</time>
      </trkpt>
      <trkpt lat="59.9800637" lon="17.7388582">
        <ele>41.9547</ele>
        <time>2014-05-23T18:39:33Z</time>
      </trkpt>
      <trkpt lat="59.9800333" lon="17.7388394">
        <ele>40.0321</ele>
        <time>2014-05-23T18:39:34Z</time>
      </trkpt>
      <trkpt lat="59.9800045" lon="17.7388301">
        <ele>39.5513</ele>
        <time>2014-05-23T18:39:35Z</time>
      </trkpt>
      <trkpt lat="59.97997" lon="17.7388425">
        <ele>39.0707</ele>
        <time>2014-05-23T18:39:36Z</time>
      </trkpt>
      <trkpt lat="59.9799373" lon="17.738849">
        <ele>40.0321</ele>
        <time>2014-05-23T18:39:37Z</time>
      </trkpt>
      <trkpt lat="59.9799121" lon="17.7388568">
        <ele>41.474</ele>
        <time>2014-05-23T18:39:38Z</time>
      </trkpt>
      <trkpt lat="59.9798831" lon="17.7388658">
        <ele>42.916</ele>
        <time>2014-05-23T18:39:39Z</time>
      </trkpt>
      <trkpt lat="59.9798535" lon="17.7388726">
        <ele>43.3966</ele>
        <time>2014-05-23T18:39:40Z</time>
      </trkpt>
      <trkpt lat="59.9798248" lon="17.7388762">
        <ele>44.358</ele>
        <time>2014-05-23T18:39:41Z</time>
      </trkpt>
      <trkpt lat="59.979796" lon="17.7388786">
        <ele>44.8386</ele>
        <time>2014-05-23T18:39:42Z</time>
      </trkpt>
      <trkpt lat="59.9797675" lon="17.7388836">
        <ele>45.3192</ele>
        <time>2014-05-23T18:39:43Z</time>
      </trkpt>
      <trkpt lat="59.9797405" lon="17.7388926">
        <ele>45.7999</ele>
        <time>2014-05-23T18:39:44Z</time>
      </trkpt>
      <trkpt lat="59.9797118" lon="17.7389162">
        <ele>46.7612</ele>
        <time>2014-05-23T18:39:45Z</time>
      </trkpt>
      <trkpt lat="59.9796849" lon="17.7389444">
        <ele>48.684</ele>
        <time>2014-05-23T18:39:46Z</time>
      </trkpt>
      <trkpt lat="59.9796562" lon="17.7389556">
        <ele>49.6453</ele>
        <time>2014-05-23T18:39:47Z</time>
      </trkpt>
      <trkpt lat="59.9796306" lon="17.7389581">
        <ele>50.126</ele>
        <time>2014-05-23T18:39:48Z</time>
      </trkpt>
      <trkpt lat="59.9796069" lon="17.7389601">
        <ele>50.126</ele>
        <time>2014-05-23T18:39:49Z</time>
      </trkpt>
      <trkpt lat="59.9795805" lon="17.7389601">
        <ele>49.6453</ele>
        <time>2014-05-23T18:39:50Z</time>
      </trkpt>
      <trkpt lat="59.979555" lon="17.7389724">
        <ele>50.126</ele>
        <time>2014-05-23T18:39:51Z</time>
      </trkpt>
      <trkpt lat="59.9795252" lon="17.7389865">
        <ele>49.6453</ele>
        <time>2014-05-23T18:39:52Z</time>
      </trkpt>
      <trkpt lat="59.9794965" lon="17.739002">
        <ele>49.1646</ele>
        <time>2014-05-23T18:39:53Z</time>
      </trkpt>
      <trkpt lat="59.9794717" lon="17.7390201">
        <ele>48.684</ele>
        <time>2014-05-23T18:39:54Z</time>
      </trkpt>
      <trkpt lat="59.9794461" lon="17.7390306">
        <ele>48.2034</ele>
        <time>2014-05-23T18:39:55Z</time>
      </trkpt>
      <trkpt lat="59.9794194" lon="17.7390451">
        <ele>47.2418</ele>
        <time>2014-05-23T18:39:56Z</time>
      </trkpt>
      <trkpt lat="59.9793934" lon="17.7390694">
        <ele>47.2418</ele>
        <time>2014-05-23T18:39:57Z</time>
      </trkpt>
      <trkpt lat="59.9793645" lon="17.7390942">
        <ele>45.7999</ele>
        <time>2014-05-23T18:39:58Z</time>
      </trkpt>
      <trkpt lat="59.9793364" lon="17.7391303">
        <ele>44.8386</ele>
        <time>2014-05-23T18:39:59Z</time>
      </trkpt>
      <trkpt lat="59.9793066" lon="17.7391604">
        <ele>44.358</ele>
        <time>2014-05-23T18:40:00Z</time>
      </trkpt>
      <trkpt lat="59.9792765" lon="17.7391692">
        <ele>43.3966</ele>
        <time>2014-05-23T18:40:01Z</time>
      </trkpt>
      <trkpt lat="59.9792496" lon="17.7391735">
        <ele>42.916</ele>
        <time>2014-05-23T18:40:02Z</time>
      </trkpt>
      <trkpt lat="59.9792242" lon="17.739172">
        <ele>41.9547</ele>
        <time>2014-05-23T18:40:03Z</time>
      </trkpt>
      <trkpt lat="59.9791961" lon="17.7391793">
        <ele>41.474</ele>
        <time>2014-05-23T18:40:04Z</time>
      </trkpt>
      <trkpt lat="59.9791634" lon="17.7391958">
        <ele>40.9934</ele>
        <time>2014-05-23T18:40:05Z</time>
      </trkpt>
      <trkpt lat="59.9791301" lon="17.7392122">
        <ele>40.5128</ele>
        <time>2014-05-23T18:40:06Z</time>
      </trkpt>
      <trkpt lat="59.9790987" lon="17.7392238">
        <ele>40.0321</ele>
        <time>2014-05-23T18:40:07Z</time>
      </trkpt>
      <trkpt lat="59.9790688" lon="17.7392438">
        <ele>40.0321</ele>
        <time>2014-05-23T18:40:08Z</time>
      </trkpt>
      <trkpt lat="59.9790336" lon="17.7392713">
        <ele>40.0321</ele>
        <time>2014-05-23T18:40:09Z</time>
      </trkpt>
      <trkpt lat="59.9790018" lon="17.7392895">
        <ele>40.5128</ele>
        <time>2014-05-23T18:40:10Z</time>
      </trkpt>
      <trkpt lat="59.9789729" lon="17.739304">
        <ele>40.5128</ele>
        <time>2014-05-23T18:40:11Z</time>
      </trkpt>
      <trkpt lat="59.9789459" lon="17.7393208">
        <ele>41.474</ele>
        <time>2014-05-23T18:40:12Z</time>
      </trkpt>
      <trkpt lat="59.978922" lon="17.7393285">
        <ele>42.4354</ele>
        <time>2014-05-23T18:40:13Z</time>
      </trkpt>
      <trkpt lat="59.9789034" lon="17.7393575">
        <ele>42.4354</ele>
        <time>2014-05-23T18:40:14Z</time>
      </trkpt>
      <trkpt lat="59.9788936" lon="17.7394049">
        <ele>41.9547</ele>
        <time>2014-05-23T18:40:15Z</time>
      </trkpt>
      <trkpt lat="59.978893" lon="17.7394698">
        <ele>41.474</ele>
        <time>2014-05-23T18:40:16Z</time>
      </trkpt>
      <trkpt lat="59.9788967" lon="17.739524">
        <ele>40.9934</ele>
        <time>2014-05-23T18:40:17Z</time>
      </trkpt>
      <trkpt lat="59.9788865" lon="17.7395916">
        <ele>41.474</ele>
        <time>2014-05-23T18:40:18Z</time>
      </trkpt>
      <trkpt lat="59.9788633" lon="17.7396491">
        <ele>41.474</ele>
        <time>2014-05-23T18:40:19Z</time>
      </trkpt>
      <trkpt lat="59.9788396" lon="17.739688">
        <ele>40.9934</ele>
        <time>2014-05-23T18:40:20Z</time>
      </trkpt>
      <trkpt lat="59.9788149" lon="17.7397196">
        <ele>40.5128</ele>
        <time>2014-05-23T18:40:21Z</time>
      </trkpt>
      <trkpt lat="59.9787942" lon="17.7397506">
        <ele>40.0321</ele>
        <time>2014-05-23T18:40:22Z</time>
      </trkpt>
      <trkpt lat="59.978786" lon="17.7397949">
        <ele>40.0321</ele>
        <time>2014-05-23T18:40:23Z</time>
      </trkpt>
      <trkpt lat="59.9787858" lon="17.7398433">
        <ele>40.0321</ele>
        <time>2014-05-23T18:40:24Z</time>
      </trkpt>
      <trkpt lat="59.9787865" lon="17.7398915">
        <ele>39.5513</ele>
        <time>2014-05-23T18:40:25Z</time>
      </trkpt>
      <trkpt lat="59.9787947" lon="17.7399407">
        <ele>39.5513</ele>
        <time>2014-05-23T18:40:26Z</time>
      </trkpt>
    </trkseg>
  </trk>
</gpx>